[[{"header":{"parameterUnit":"m.s-1","parameterCategory":1,"la1":30.6,"la2":29.2853,"lo1":-89.7004,"lo2":-87.6739,"dy":0.0162,"dx":0.0183,"nx":112,"ny":82,"refTime":"2023-06-11T06:00:00:Z","depth":0,"parameterNumber":2,"parameterNumberName":"U-component_of_WINDS"},"data":[0.0,0.0,0.0,0.0,0.0,0.0,0.0,0.0,0.0,0.0,0.0,0.0,0.0,0.0,0.0,0.0,0.0,0.0,0.0,0.0,0.0,0.0,0.0,0.0,0.0,0.0,0.0,0.0,0.0,0.0,0.0,0.0,0.0,0.0,0.0,0.0,0.0,0.0,0.0,0.0,0.0,0.0,0.0,0.0,0.0,0.0,0.0,0.0,0.0,0.0,0.0,0.0,0.0,0.0,0.0,0.0,0.0,0.0,0.0,0.0,0.0,0.0,0.0,0.0,0.0,0.0,0.0,0.0,0.0,0.0,0.0,0.0,0.0,0.0,0.0,0.0,0.0,0.0,0.0,0.0,0.0,0.0,0.0,0.0,0.0,0.0,0.0,0.0,0.0,0.0,-5.0407,-5.4737,-6.3384,-6.9339,-7.0367,-7.1244,-6.8641,-6.145,0.0,0.0,0.0,0.0,0.0,0.0,0.0,0.0,0.0,0.0,0.0,0.0,0.0,0.0,0.0,0.0,0.0,0.0,0.0,0.0,0.0,0.0,0.0,0.0,0.0,0.0,0.0,0.0,0.0,0.0,0.0,0.0,0.0,0.0,0.0,0.0,0.0,0.0,0.0,0.0,0.0,0.0,0.0,0.0,0.0,0.0,0.0,0.0,0.0,0.0,0.0,0.0,0.0,0.0,0.0,0.0,0.0,0.0,0.0,0.0,0.0,0.0,0.0,0.0,0.0,0.0,0.0,0.0,0.0,0.0,0.0,0.0,0.0,0.0,0.0,0.0,0.0,0.0,0.0,0.0,0.0,0.0,0.0,0.0,0.0,0.0,0.0,0.0,0.0,0.0,0.0,0.0,0.0,0.0,0.0,0.0,0.0,0.0,0.0,0.0,0.0,0.0,0.0,0.0,-5.1442,-6.0466,-6.5893,-6.9779,-7.1945,-6.9791,-6.6488,-6.2098,0.0,0.0,0.0,0.0,0.0,0.0,0.0,0.0,0.0,0.0,0.0,0.0,0.0,0.0,0.0,0.0,0.0,0.0,0.0,0.0,0.0,0.0,0.0,0.0,0.0,0.0,0.0,0.0,0.0,0.0,0.0,0.0,0.0,0.0,0.0,0.0,0.0,0.0,0.0,0.0,0.0,0.0,0.0,0.0,0.0,0.0,0.0,0.0,0.0,0.0,0.0,0.0,0.0,0.0,0.0,0.0,0.0,0.0,0.0,0.0,0.0,0.0,0.0,0.0,0.0,0.0,0.0,0.0,0.0,0.0,0.0,0.0,0.0,0.0,0.0,0.0,0.0,0.0,0.0,0.0,0.0,0.0,0.0,0.0,0.0,0.0,0.0,0.0,0.0,0.0,0.0,0.0,0.0,0.0,0.0,0.0,0.0,0.0,0.0,0.0,0.0,0.0,0.0,-5.039,-5.4989,-6.2057,-6.6476,-6.9339,-7.044,-6.8727,-6.5646,-6.0998,-5.7917,0.0,0.0,0.0,0.0,0.0,0.0,0.0,0.0,0.0,0.0,0.0,0.0,0.0,0.0,0.0,0.0,0.0,0.0,0.0,0.0,0.0,0.0,0.0,0.0,0.0,0.0,0.0,0.0,0.0,0.0,0.0,0.0,0.0,0.0,0.0,0.0,0.0,0.0,0.0,0.0,0.0,0.0,0.0,0.0,0.0,0.0,0.0,0.0,0.0,0.0,0.0,0.0,0.0,0.0,0.0,0.0,0.0,0.0,0.0,0.0,0.0,0.0,0.0,0.0,0.0,0.0,0.0,0.0,0.0,0.0,0.0,0.0,0.0,0.0,0.0,0.0,0.0,0.0,0.0,0.0,0.0,0.0,0.0,0.0,0.0,0.0,0.0,0.0,0.0,0.0,0.0,0.0,0.0,0.0,0.0,0.0,0.0,0.0,0.0,0.0,0.0,0.0,-5.4038,-5.7981,-6.235,-6.6096,-6.8393,-6.8576,-6.7114,-6.4224,-5.9572,-5.494,0.0,0.0,0.0,0.0,0.0,0.0,0.0,0.0,0.0,0.0,0.0,0.0,0.0,0.0,0.0,0.0,0.0,0.0,0.0,0.0,0.0,0.0,0.0,0.0,0.0,0.0,0.0,0.0,0.0,0.0,0.0,0.0,0.0,0.0,0.0,0.0,0.0,0.0,0.0,0.0,0.0,0.0,0.0,0.0,0.0,0.0,0.0,0.0,0.0,0.0,0.0,0.0,0.0,0.0,0.0,0.0,0.0,0.0,0.0,0.0,0.0,0.0,0.0,0.0,0.0,0.0,0.0,0.0,0.0,0.0,0.0,0.0,0.0,0.0,0.0,0.0,0.0,0.0,0.0,0.0,0.0,0.0,0.0,0.0,0.0,0.0,0.0,0.0,0.0,0.0,0.0,0.0,0.0,0.0,0.0,0.0,0.0,0.0,0.0,0.0,0.0,0.0,-5.3798,-5.8501,-6.2386,-6.5084,-6.6891,-6.7644,-6.4188,-6.0941,-5.8432,-5.2536,0.0,0.0,0.0,0.0,0.0,0.0,0.0,0.0,0.0,0.0,0.0,0.0,0.0,0.0,0.0,0.0,0.0,0.0,0.0,0.0,0.0,0.0,0.0,0.0,0.0,0.0,0.0,0.0,0.0,0.0,0.0,0.0,0.0,0.0,0.0,0.0,0.0,0.0,0.0,0.0,0.0,0.0,0.0,0.0,0.0,0.0,0.0,0.0,0.0,0.0,0.0,0.0,0.0,0.0,0.0,0.0,0.0,0.0,0.0,0.0,0.0,0.0,0.0,0.0,0.0,0.0,0.0,0.0,0.0,0.0,0.0,0.0,0.0,0.0,0.0,0.0,0.0,0.0,0.0,0.0,0.0,0.0,0.0,0.0,0.0,0.0,0.0,0.0,0.0,0.0,0.0,0.0,0.0,0.0,0.0,0.0,0.0,0.0,0.0,0.0,0.0,0.0,-5.3077,-5.7497,-6.0316,-6.3178,-6.4848,-6.4613,-6.2705,-6.0148,-5.6982,0.0,0.0,0.0,0.0,0.0,0.0,0.0,0.0,0.0,0.0,0.0,0.0,0.0,0.0,0.0,0.0,0.0,0.0,0.0,0.0,0.0,0.0,0.0,0.0,0.0,0.0,0.0,0.0,0.0,0.0,0.0,0.0,0.0,0.0,0.0,0.0,0.0,0.0,0.0,0.0,0.0,0.0,0.0,0.0,0.0,0.0,0.0,0.0,0.0,0.0,0.0,0.0,0.0,0.0,0.0,0.0,0.0,0.0,0.0,0.0,0.0,0.0,0.0,0.0,0.0,0.0,0.0,0.0,0.0,0.0,0.0,0.0,0.0,0.0,0.0,0.0,0.0,0.0,0.0,0.0,0.0,0.0,0.0,0.0,0.0,0.0,0.0,0.0,0.0,0.0,0.0,0.0,0.0,0.0,0.0,0.0,0.0,0.0,0.0,0.0,0.0,0.0,-4.7415,-5.2418,-5.6557,-5.9011,-6.1412,-6.2697,-6.2408,-6.0702,-5.8359,-5.5324,0.0,0.0,0.0,0.0,0.0,0.0,0.0,0.0,0.0,0.0,0.0,0.0,0.0,0.0,0.0,0.0,0.0,0.0,0.0,0.0,0.0,0.0,0.0,0.0,0.0,0.0,0.0,0.0,0.0,0.0,0.0,0.0,0.0,0.0,0.0,0.0,0.0,0.0,0.0,0.0,0.0,0.0,0.0,0.0,0.0,0.0,0.0,0.0,0.0,0.0,0.0,0.0,0.0,0.0,0.0,0.0,0.0,0.0,0.0,0.0,0.0,0.0,0.0,0.0,0.0,0.0,0.0,0.0,0.0,0.0,0.0,0.0,0.0,0.0,0.0,0.0,0.0,0.0,0.0,0.0,0.0,0.0,0.0,0.0,0.0,0.0,0.0,0.0,0.0,0.0,0.0,0.0,0.0,0.0,0.0,0.0,0.0,0.0,0.0,0.0,0.0,0.0,-4.7402,-5.1882,-5.5872,-5.8951,-5.9849,-6.0566,-6.1363,-5.7909,-5.5074,0.0,0.0,0.0,0.0,0.0,0.0,0.0,0.0,0.0,0.0,0.0,0.0,0.0,0.0,0.0,0.0,0.0,0.0,0.0,0.0,0.0,0.0,0.0,0.0,0.0,0.0,0.0,0.0,0.0,0.0,0.0,0.0,0.0,0.0,0.0,0.0,0.0,0.0,0.0,0.0,0.0,0.0,0.0,0.0,0.0,0.0,0.0,0.0,0.0,0.0,0.0,0.0,0.0,0.0,0.0,0.0,0.0,0.0,0.0,0.0,0.0,0.0,0.0,0.0,0.0,0.0,0.0,0.0,0.0,0.0,0.0,0.0,0.0,0.0,0.0,0.0,0.0,0.0,0.0,0.0,0.0,0.0,0.0,0.0,0.0,0.0,0.0,0.0,0.0,0.0,0.0,0.0,0.0,0.0,0.0,0.0,0.0,0.0,0.0,0.0,0.0,0.0,0.0,-4.669,-5.108,-5.4437,-5.5816,-5.7146,-5.777,-5.743,-5.5891,-5.4059,-5.2029,0.0,0.0,0.0,0.0,0.0,0.0,0.0,0.0,0.0,0.0,0.0,0.0,0.0,0.0,0.0,0.0,0.0,0.0,0.0,0.0,0.0,0.0,0.0,0.0,0.0,0.0,0.0,0.0,0.0,0.0,0.0,0.0,0.0,0.0,0.0,0.0,0.0,0.0,0.0,0.0,0.0,0.0,0.0,0.0,0.0,0.0,0.0,0.0,0.0,0.0,0.0,0.0,0.0,0.0,0.0,0.0,0.0,0.0,0.0,0.0,0.0,0.0,0.0,0.0,0.0,0.0,0.0,0.0,0.0,0.0,0.0,0.0,0.0,0.0,0.0,0.0,0.0,0.0,0.0,0.0,0.0,0.0,0.0,0.0,0.0,0.0,0.0,0.0,0.0,0.0,0.0,0.0,0.0,0.0,0.0,0.0,0.0,0.0,0.0,0.0,0.0,0.0,-4.6406,-5.0461,-5.3494,-5.4499,-5.5689,-5.6235,-5.5751,-5.5006,-5.3382,-5.0507,0.0,0.0,0.0,0.0,0.0,0.0,0.0,0.0,0.0,0.0,0.0,0.0,0.0,0.0,0.0,0.0,0.0,0.0,0.0,0.0,0.0,0.0,0.0,0.0,0.0,0.0,0.0,0.0,0.0,0.0,0.0,0.0,0.0,0.0,0.0,0.0,0.0,0.0,0.0,0.0,0.0,0.0,0.0,0.0,0.0,0.0,0.0,0.0,0.0,0.0,0.0,0.0,0.0,0.0,0.0,0.0,0.0,0.0,0.0,0.0,0.0,0.0,0.0,0.0,0.0,0.0,0.0,0.0,0.0,0.0,0.0,0.0,0.0,0.0,0.0,0.0,0.0,0.0,0.0,0.0,0.0,0.0,0.0,0.0,0.0,0.0,0.0,0.0,0.0,0.0,0.0,0.0,0.0,0.0,0.0,0.0,0.0,0.0,0.0,0.0,0.0,0.0,-4.6536,-4.9999,-5.2807,-5.4329,-5.5108,-5.5513,-5.5513,-5.4803,-5.2841,-4.9221,0.0,0.0,0.0,0.0,0.0,0.0,0.0,0.0,0.0,0.0,0.0,0.0,0.0,0.0,0.0,0.0,0.0,0.0,0.0,0.0,0.0,0.0,0.0,0.0,0.0,0.0,0.0,0.0,0.0,0.0,0.0,0.0,0.0,0.0,0.0,0.0,0.0,0.0,0.0,0.0,0.0,0.0,0.0,0.0,0.0,0.0,0.0,0.0,0.0,0.0,0.0,0.0,0.0,0.0,0.0,0.0,0.0,0.0,0.0,0.0,-4.6803,0.0,0.0,0.0,0.0,0.0,0.0,0.0,0.0,0.0,0.0,0.0,0.0,0.0,0.0,0.0,0.0,0.0,0.0,0.0,0.0,0.0,0.0,0.0,0.0,0.0,0.0,0.0,0.0,0.0,0.0,0.0,0.0,0.0,0.0,0.0,0.0,0.0,0.0,0.0,0.0,0.0,-4.7275,-4.9866,-5.2029,-5.3585,-5.389,-5.3991,-5.3991,-5.3247,-5.1725,-4.9154,-4.7582,0.0,0.0,0.0,0.0,0.0,0.0,0.0,0.0,0.0,0.0,0.0,0.0,0.0,0.0,0.0,0.0,0.0,0.0,0.0,0.0,0.0,0.0,0.0,0.0,0.0,0.0,0.0,0.0,0.0,0.0,0.0,0.0,0.0,0.0,0.0,0.0,0.0,0.0,0.0,0.0,0.0,0.0,0.0,0.0,0.0,0.0,0.0,0.0,0.0,0.0,0.0,0.0,0.0,0.0,0.0,0.0,0.0,0.0,0.0,0.0,-4.7432,0.0,0.0,0.0,0.0,0.0,0.0,0.0,0.0,0.0,0.0,0.0,0.0,0.0,0.0,0.0,0.0,0.0,0.0,0.0,0.0,0.0,0.0,0.0,0.0,0.0,0.0,0.0,0.0,0.0,0.0,0.0,0.0,0.0,0.0,0.0,0.0,0.0,0.0,0.0,0.0,-4.7507,-4.9833,-5.1792,-5.3348,-5.3518,-5.3518,-5.3518,-5.3112,-5.1758,-4.9154,-4.7567,0.0,0.0,0.0,0.0,0.0,0.0,0.0,0.0,0.0,0.0,0.0,0.0,0.0,0.0,0.0,0.0,0.0,0.0,0.0,0.0,0.0,0.0,0.0,0.0,0.0,0.0,0.0,0.0,0.0,0.0,0.0,0.0,0.0,0.0,0.0,0.0,0.0,0.0,0.0,0.0,0.0,0.0,0.0,0.0,0.0,0.0,0.0,0.0,0.0,0.0,0.0,0.0,0.0,-5.6381,-5.6486,-5.5869,-5.6145,-5.5491,-5.4,-5.0682,-4.9656,-5.0119,-4.8165,0.0,0.0,0.0,0.0,0.0,0.0,0.0,0.0,0.0,0.0,0.0,0.0,0.0,0.0,0.0,0.0,0.0,0.0,0.0,0.0,0.0,0.0,0.0,0.0,-4.7995,-4.801,-4.3984,0.0,0.0,0.0,0.0,0.0,0.0,0.0,0.0,0.0,0.0,0.0,-4.7541,-4.9729,-5.1555,-5.2942,-5.3112,-5.3112,-5.3112,-5.3112,-5.1862,-4.8935,-4.7398,-4.5303,0.0,0.0,0.0,0.0,0.0,0.0,0.0,0.0,0.0,0.0,0.0,0.0,0.0,0.0,0.0,0.0,0.0,0.0,0.0,0.0,0.0,0.0,0.0,0.0,0.0,0.0,0.0,0.0,0.0,0.0,0.0,0.0,-5.359,-5.4281,0.0,0.0,0.0,0.0,0.0,0.0,0.0,0.0,0.0,0.0,0.0,0.0,0.0,-5.4656,-5.6161,-5.8364,-5.9501,-5.9648,-6.1153,-6.1801,-6.164,-5.9693,-5.8674,-5.8325,-5.5751,0.0,-5.0917,-5.0042,0.0,0.0,0.0,0.0,0.0,0.0,0.0,0.0,0.0,0.0,0.0,0.0,0.0,0.0,0.0,0.0,0.0,0.0,0.0,0.0,0.0,0.0,-5.0249,-4.8696,-4.899,-4.9084,0.0,-4.5506,-4.4339,-4.3822,-4.2194,-4.0766,0.0,0.0,0.0,0.0,0.0,0.0,-4.7669,-4.9289,-5.0574,-5.1388,-5.1522,-5.1522,-5.1522,-5.1522,-5.0421,-4.7935,-4.6979,-4.534,-4.2716,-4.0011,0.0,0.0,0.0,0.0,0.0,0.0,0.0,0.0,0.0,0.0,0.0,0.0,0.0,0.0,0.0,0.0,0.0,0.0,0.0,0.0,0.0,0.0,0.0,0.0,0.0,0.0,0.0,0.0,0.0,-5.2044,-5.5083,-5.4806,-5.5071,-5.4484,0.0,0.0,0.0,0.0,0.0,0.0,0.0,0.0,0.0,-5.7152,-5.8033,-5.8988,-6.0162,-6.1704,-6.2475,-6.2475,-6.3649,-6.3709,-6.2731,-6.1717,-6.049,-5.9081,-5.7562,-5.5687,-5.3574,-5.199,-5.0507,-4.9086,0.0,0.0,0.0,0.0,-4.5669,-4.5534,-4.7124,-4.7462,-4.7158,-4.6989,0.0,0.0,0.0,0.0,0.0,0.0,0.0,-4.7192,0.0,0.0,-5.0221,-4.97,-4.9839,-4.9742,-4.8439,-4.715,-4.5872,-4.4462,-4.3717,-4.2585,-4.0444,-4.0134,0.0,0.0,0.0,-4.4847,-4.6717,-4.7867,-4.9024,-5.0293,-5.0393,-5.0626,-5.1153,-5.0693,-4.9792,-4.8298,-4.6595,-4.4911,-4.3392,-4.0939,-3.938,0.0,0.0,0.0,0.0,0.0,0.0,0.0,0.0,0.0,0.0,0.0,0.0,0.0,0.0,0.0,0.0,0.0,0.0,0.0,0.0,0.0,0.0,0.0,0.0,0.0,0.0,0.0,0.0,-5.4202,-5.6626,-5.5588,-5.7069,-5.6741,0.0,0.0,0.0,0.0,0.0,0.0,-5.5581,-5.6799,-5.8777,-6.1557,-6.2622,-6.3539,-6.4347,-6.5007,-6.5338,-6.5338,-6.5742,-6.5129,-6.3649,-6.3066,-6.163,-5.957,-5.8194,-5.69,-5.5581,-5.3687,-5.2232,-5.1048,-4.9187,-4.8003,-4.7462,-4.8206,-4.8139,-4.7902,-4.9729,-5.0236,-4.9965,-4.9255,-4.8615,-4.7736,-4.5505,0.0,0.0,0.0,0.0,-4.7634,-5.0388,-5.0354,-4.9664,-4.9917,-5.0009,-4.9773,-4.8973,-4.8119,-4.699,0.0,-4.4788,-4.3835,-4.0812,-4.0358,0.0,0.0,0.0,-4.4124,-4.5725,-4.6561,-4.7487,-4.8742,-4.8911,-4.9153,-4.9859,-4.9255,-4.8544,-4.7744,-4.5918,-4.4527,-4.3703,-4.1707,-4.0187,-3.917,0.0,0.0,0.0,0.0,0.0,0.0,0.0,0.0,0.0,0.0,0.0,0.0,0.0,0.0,0.0,0.0,0.0,0.0,0.0,0.0,0.0,0.0,0.0,0.0,0.0,0.0,0.0,0.0,0.0,-5.8319,-6.1,0.0,0.0,0.0,0.0,-5.5557,-5.6941,-5.8165,-5.8924,-6.048,-6.2463,-6.4971,-6.6586,-6.776,-6.8605,-6.8641,-6.8678,-6.8641,-6.7907,-6.712,-6.6133,-6.3814,-6.2277,-6.1224,-5.8178,-5.6427,-5.5649,-5.4803,-5.3179,-5.115,-5.0304,-4.9526,-4.8984,-4.9729,-4.9965,-5.0033,-5.0879,-5.0676,-5.0304,-5.1657,-5.0676,-4.8917,-4.8781,-4.7259,0.0,0.0,-4.7688,-4.7967,-5.0243,-5.0054,-4.9241,-4.8979,-4.8851,-4.8882,-4.881,-4.7747,-4.6756,0.0,-4.4922,-4.3148,-4.2398,0.0,-4.254,-4.2571,-4.3948,-4.5016,-4.5112,-4.5789,-4.6272,-4.6375,-4.6375,-4.6375,-4.6445,-4.641,-4.5985,-4.503,-4.488,-4.4358,-4.3349,-4.2051,-4.1332,-4.1235,-3.8721,0.0,0.0,0.0,0.0,0.0,0.0,0.0,0.0,0.0,0.0,0.0,0.0,0.0,0.0,0.0,0.0,0.0,0.0,0.0,0.0,0.0,0.0,0.0,0.0,0.0,0.0,0.0,0.0,-5.9281,-6.2089,0.0,-5.8973,-5.9396,-5.9754,-5.9384,-6.153,-6.3323,-6.4364,-6.5605,-6.6953,-6.8348,-6.9449,-6.9926,-6.9669,-6.9669,-6.9412,-6.8898,-6.6992,-6.5633,-6.4706,-6.2343,-6.0773,-5.9784,-5.7688,-5.6393,-5.5649,-5.4905,-5.3822,-5.2672,-5.2401,-5.1792,-5.1217,-5.1995,-5.1961,-5.1623,-5.2401,-5.2503,-5.23,-5.23,-5.1116,-4.9796,-5.027,-4.9526,-4.8849,-5.0338,-5.0687,-5.0727,-5.1338,-5.0765,-4.9808,-4.8992,-4.8293,-4.7849,-4.7849,-4.7558,-4.7044,-4.6042,-4.4996,-4.3868,-4.2617,-4.2439,-4.2516,-4.2516,-4.2999,-4.3499,-4.3891,-4.4174,-4.4593,-4.5227,-4.53,-4.5525,-4.6138,-4.5634,-4.5153,-4.4812,-4.4167,-4.3512,-4.277,-4.1863,-4.0995,-4.0127,-3.8751,-3.7644,0.0,0.0,0.0,0.0,0.0,0.0,0.0,0.0,0.0,0.0,0.0,0.0,0.0,0.0,0.0,0.0,0.0,0.0,0.0,0.0,0.0,0.0,0.0,0.0,0.0,0.0,-6.1858,-6.0127,-6.3705,-6.4859,-6.1127,-6.2358,-6.3412,-6.3467,-6.5499,-6.7159,-6.8073,-6.8893,-6.9559,-7.0073,-7.0881,-7.0917,-7.011,-7.011,-6.9706,-6.8871,-6.6671,-6.5033,-6.3831,-6.1704,-5.9975,-5.8558,-5.707,-5.6021,-5.5277,-5.4532,-5.3923,-5.3518,-5.3518,-5.3179,-5.2773,-5.3315,-5.3179,-5.2739,-5.301,-5.3112,-5.2976,-5.2198,-5.1285,-5.0507,-5.0777,-5.0676,-5.0676,-5.1657,-5.1866,-5.1797,-5.1867,-5.1155,-5.0062,-4.8773,-4.7956,-4.7413,-4.7129,-4.6813,-4.6335,-4.5576,-4.5511,-4.5011,-4.3064,-4.2982,-4.3158,-4.3079,-4.2821,-4.291,-4.3559,-4.3439,-4.3566,-4.4205,-4.4282,-4.4548,-4.5196,-4.4631,-4.419,-4.4013,-4.315,-4.2372,-4.1752,-4.1294,-4.0546,-3.9403,-3.8512,-3.7434,-3.6148,0.0,0.0,0.0,0.0,0.0,0.0,0.0,0.0,0.0,0.0,0.0,0.0,0.0,0.0,0.0,0.0,0.0,0.0,0.0,0.0,0.0,0.0,0.0,-5.6923,-6.0692,-6.2781,-6.1204,-6.6167,-6.809,-6.3897,-6.65,-6.8248,-6.7719,-6.8717,-6.9493,-6.9897,-7.0064,-7.0146,-7.0146,-7.0881,-7.0881,-7.011,-7.0073,-6.9669,-6.8871,-6.715,-6.5469,-6.3795,-6.2158,-6.0113,-5.778,-5.6325,-5.5277,-5.4532,-5.3788,-5.3518,-5.3518,-5.3518,-5.3518,-5.3518,-5.3518,-5.3484,-5.3348,-5.257,-5.2266,-5.2164,-5.1454,-5.1185,-5.1082,-5.0338,-5.0642,-5.1185,-5.1219,-5.1061,-5.1034,-5.1723,-5.1155,-4.9974,-4.8253,-4.7787,-4.7561,-4.6841,-4.5474,-4.4609,-4.5464,-4.6459,-4.635,-4.3735,-4.412,-4.4611,-4.4328,-4.3708,0.0,-4.4197,-4.3678,-4.329,-4.3319,-4.329,-4.329,-4.3319,-4.329,-4.303,-4.241,-4.1752,-4.1055,-4.0397,-4.0367,-4.0068,-3.9409,-3.8093,-3.6776,-3.5519,0.0,0.0,0.0,0.0,0.0,0.0,0.0,0.0,0.0,0.0,0.0,0.0,0.0,0.0,0.0,0.0,0.0,0.0,0.0,0.0,0.0,0.0,-5.7665,-5.7896,-6.2127,-6.5243,-6.5359,-6.7936,-6.9244,-6.8052,-6.9321,-7.0165,-6.999,-7.1218,-7.1998,-7.2093,-7.1409,-7.0991,-7.0991,-7.0624,-7.033,-7.011,-6.9522,-6.9119,-6.8871,-6.6017,-6.4136,-6.301,-6.0237,-5.829,-5.7036,-5.5547,-5.4769,-5.4532,-5.3788,-5.3518,-5.3518,-5.3518,-5.3518,-5.3518,-5.3518,-5.3145,-5.2604,-5.2367,-5.1961,-5.1488,-5.1252,-5.1185,-5.1151,-5.098,-5.1048,-5.1319,-5.186,-5.1932,-5.1865,-5.1902,-5.131,-5.0384,-4.9184,-4.7926,-4.6933,-4.6748,-4.5996,-4.5183,-4.4779,-4.5672,-4.5818,-4.3684,-4.3527,-4.3705,-4.3569,-4.3409,0.0,-4.3529,-4.3409,-4.3469,-4.3947,-4.3589,-4.3499,-4.3977,-4.318,-4.2381,-4.1722,-4.1025,-4.0367,-3.9709,-3.9679,-3.9379,-3.8691,-3.7853,-3.7015,0.0,0.0,0.0,0.0,0.0,0.0,0.0,0.0,0.0,0.0,0.0,0.0,0.0,0.0,0.0,0.0,0.0,0.0,0.0,0.0,0.0,0.0,-5.7319,-6.0012,-6.0358,-6.3589,-6.632,-6.7513,-6.8859,-6.9975,-7.0667,-7.1168,-7.1745,-7.2437,-7.2832,-7.3177,-7.3517,-7.181,-7.0807,-7.0807,-7.0036,-6.9449,-6.9082,-6.8972,-6.8568,-6.7844,-6.5229,-6.3372,-6.2198,-5.9282,-5.7396,-5.6292,-5.5108,-5.4397,-5.4093,-5.3687,-5.3518,0.0,0.0,0.0,0.0,0.0,-5.2976,-5.2266,-5.1961,-5.1352,-5.071,-5.0405,-5.0507,-5.0676,-5.0371,-5.071,-5.1219,-5.1352,-5.1589,-5.1796,-5.1662,-5.1292,-5.0619,-4.9343,-4.8272,-4.7337,-4.6642,-4.5884,-4.5141,-4.4621,-4.4756,0.0,-4.3497,-4.3654,-4.3862,-4.3728,-4.3469,-4.3379,-4.3678,-4.3469,-4.3439,-4.3828,-4.3529,-4.3439,-4.3828,-4.297,0.0,0.0,0.0,-3.9559,-3.8601,-3.8332,0.0,0.0,0.0,-3.6716,-3.6058,0.0,0.0,0.0,-3.6477,-3.6956,0.0,0.0,0.0,0.0,0.0,0.0,0.0,0.0,0.0,0.0,0.0,0.0,0.0,0.0,0.0,0.0,-6.0023,-6.2512,-6.332,-6.4936,-6.6628,-6.8205,-6.9244,-7.0475,-7.2052,-7.2283,-7.3,-7.448,-7.3612,-7.3307,-7.4017,0.0,0.0,0.0,0.0,-6.8421,-6.7714,-6.8421,-6.8017,-6.6449,-6.474,-6.3109,-6.153,-5.8978,-5.7008,-5.5683,-5.4837,-5.4093,-5.3518,-5.3518,-5.3518,-5.3518,-5.3518,-5.345,-5.3382,-5.3382,-5.2807,-5.1961,-5.1319,0.0,0.0,-4.9221,-4.9424,-4.983,-4.9187,-4.9932,-5.0845,-5.0236,-5.0574,-5.1116,-5.1151,-5.115,-5.0719,-4.9194,-4.8728,-4.816,-4.6684,-4.5525,-4.4812,-4.4812,-4.4004,-4.329,-4.329,-4.4043,-4.4534,-4.4228,-4.3678,-4.3499,-4.4137,-4.3648,-4.3319,-4.3379,0.0,0.0,-4.3409,-4.2701,-4.2021,-4.1362,-4.0038,-3.8721,-3.7464,-3.6956,-3.6626,-3.6477,-3.6477,-3.6178,-3.5519,-3.5519,-3.5848,-3.6477,-3.6477,-3.7135,0.0,0.0,0.0,0.0,0.0,0.0,0.0,0.0,0.0,0.0,0.0,0.0,0.0,0.0,0.0,-5.7703,-6.0858,-6.3358,-6.4243,-6.5782,-6.7244,-6.8282,-6.9744,-7.1052,-7.2091,-7.2822,-7.346,-7.3989,-7.338,-7.289,-7.263,-7.0412,-6.9119,-6.9119,-6.8348,-6.7834,-6.7687,-6.7834,-6.743,-6.6476,0.0,0.0,-6.1494,-5.847,-5.6576,-5.5614,-5.4296,-5.3619,-5.3518,-5.3518,-5.3518,-5.3518,-5.3518,-5.3112,-5.2536,-5.2536,-5.1691,-5.0507,-5.0338,-4.983,-4.9187,-4.9052,-4.9086,-4.9187,-4.9052,-4.9221,0.0,-4.9965,-5.0202,-5.0439,-5.1048,-5.0777,-5.0238,-4.991,-4.8794,-4.7737,-4.7406,-4.5992,-4.4812,-4.4812,-4.4004,-4.329,-4.329,-4.3488,-4.3557,-4.3509,-4.3379,-4.3349,-4.3469,-4.3379,-4.3499,-4.4077,-4.3618,-4.3499,-4.4077,-4.2551,-4.1294,-4.0636,-3.9349,-3.8242,-3.7434,-3.7793,-3.7524,-3.6507,-3.6477,-3.6178,-3.5519,-3.5519,-3.5848,-3.6477,-3.6477,-3.6896,0.0,0.0,0.0,0.0,0.0,0.0,0.0,0.0,0.0,0.0,0.0,-5.1222,0.0,0.0,-5.7149,-5.9188,-6.1666,-6.3589,-6.4474,-6.6436,-6.7898,-6.8359,-6.9898,-7.1398,-7.2706,-7.363,-7.435,-7.4916,-7.3744,-7.2902,-7.2589,-7.0221,-6.8898,-6.8898,-6.8128,-6.7687,-6.7687,-6.7687,-6.71,-6.5862,-6.4195,-6.2562,-6.0897,-5.7727,-5.6099,-5.5649,-5.416,-5.3518,-5.3518,-5.3518,-5.3518,-5.3518,-5.3518,-5.301,-5.23,-5.23,-5.1352,-5.0101,-5.0101,-4.9627,-4.9018,-4.9018,-4.9018,-4.9018,-4.9018,-4.9018,-4.9086,-4.9458,-4.956,-4.9627,-4.9999,-4.983,-4.956,-4.956,-4.8908,-4.8193,-4.7704,-4.6866,-4.5921,-4.4968,-4.4396,-4.3888,-4.3409,-4.329,-4.329,-4.329,-4.329,-4.329,-4.329,-4.329,-4.3409,-4.3738,-4.3499,-4.329,-4.3329,-4.1833,-4.0606,-3.9948,-3.896,-3.8093,-3.7434,-3.7434,-3.6985,-3.6028,-3.5998,-3.5818,-3.5519,-3.5519,-3.5848,-3.6477,-3.6477,-3.6806,0.0,0.0,0.0,0.0,0.0,0.0,0.0,0.0,-4.857,-5.1124,-5.2627,-5.3994,-5.5882,-5.7013,-5.8449,-6.0684,-6.232,-6.3666,-6.4705,-6.6898,-6.8462,-6.8615,-7.0129,-7.1706,-7.3129,-7.4019,-7.4712,-7.5133,-7.3591,-7.2476,-7.2215,-6.9939,-6.8678,-6.8678,-6.8017,-6.7687,-6.7687,-6.7687,-6.6953,-6.5495,-6.3669,-6.2017,-6.0512,-5.7225,-5.5681,-5.5649,-5.416,-5.3518,-5.3518,-5.3518,-5.3518,-5.3484,-5.3348,-5.2773,-5.2097,-5.2097,-5.1251,-5.0067,-4.9932,-4.9492,-4.9018,-4.9018,-4.9018,-4.9018,-4.9018,-4.9018,-4.9018,-4.9018,-4.9018,-4.9018,-4.9018,-4.9018,-4.9018,-4.9018,-4.9018,-4.8798,-4.8064,-4.7605,-4.69,-4.5374,-4.4774,-4.4243,-4.3448,-4.329,-4.329,-4.329,-4.329,-4.329,-4.329,-4.32,-4.315,-4.315,-4.2991,-4.2701,-4.2081,-4.0995,-4.0127,-3.9469,-3.8901,-3.8242,-3.7434,-3.6926,-3.6297,-3.5519,-3.5519,-3.5519,-3.5519,-3.5519,-3.5789,-3.6297,-3.6297,-3.6626,-3.1695,-3.4334,-3.8494,-4.3581,-4.5088,-4.6789,0.0,0.0,-5.3465,-5.4852,-5.655,-5.7839,-5.7989,-5.8829,-6.0035,-6.1686,-6.2704,-6.3858,-6.5513,-6.7282,-6.8706,-6.9475,-7.1014,-7.2129,-7.2322,-7.3335,-7.3513,-7.2331,-7.1599,-7.0698,-6.9426,-6.8419,-6.7834,-6.7834,-6.7724,-6.7687,-6.7687,-6.7687,-6.7247,-6.6339,-6.392,-6.2332,-6.1321,-5.7432,-5.5681,-5.5649,-5.416,-5.3518,-5.3518,-5.3518,-5.3518,-5.345,-5.2706,-5.1995,-5.132,-5.132,-5.0811,-4.9999,-4.9357,-4.9086,-4.9018,-4.9018,-4.9018,-4.9018,-4.9018,-4.9018,-4.9018,-4.9018,-4.9018,-4.9018,-4.9018,-4.9018,-4.9018,-4.9018,-4.9018,-4.8954,-4.8861,-4.7506,-4.6279,-4.6067,-4.4668,-4.3448,-4.3329,-4.329,-4.329,-4.329,-4.329,-4.329,-4.329,-4.2821,-4.25,-4.25,-4.1991,-4.1324,-4.0666,-4.0487,-4.0127,-3.9469,-3.9313,-3.8721,-3.7464,-3.7345,-3.6746,-3.5519,-3.5519,-3.5519,-3.5519,-3.5519,-3.5549,-3.5609,-3.5609,-3.5968,-3.5032,-3.7851,-4.0937,-4.4385,-4.6428,-4.8576,-5.2496,-5.3418,-5.4088,-5.6346,-5.7489,-5.8327,-5.9022,-5.9502,-6.0312,0.0,-6.281,-6.4089,-6.6282,-6.7628,-6.8898,-7.0244,-7.1475,-7.2399,-7.2899,-7.3532,-7.3664,-7.308,-7.1313,-7.004,-6.9445,-6.8331,-6.7687,-6.7687,-6.7687,-6.7687,-6.7687,-6.7687,-6.7063,-6.5789,-6.3741,-6.2124,-6.0791,-5.7294,-5.5243,-5.4397,-5.3788,-5.3518,-5.345,-5.301,-5.2807,-5.2739,-5.1961,-5.1488,-5.1151,-5.071,-5.0101,-4.9424,-4.912,-4.9018,-4.9018,-4.9018,-4.9018,-4.9018,-4.9018,-4.9018,-4.9018,-4.9018,-4.9018,-4.9018,-4.9018,-4.9018,-4.9018,-4.9018,-4.9018,-4.9018,-4.9018,-4.8353,-4.7671,-4.7138,-4.5925,-4.4787,-4.4282,-4.3693,-4.329,-4.329,-4.329,-4.329,-4.329,-4.2761,-4.2261,-4.1871,-4.1205,-4.0696,-4.0427,-4.0038,-3.9529,-3.8871,-3.92,-3.8661,-3.6956,-3.7225,-3.6806,-3.5519,-3.5519,-3.5519,-3.5519,-3.5519,-3.5519,-3.5519,-3.5519,-3.5639,-3.7948,-4.0583,-4.2793,-4.557,-4.7793,-4.9952,-5.2382,-5.3438,-5.4522,-5.6816,-5.7749,-5.8462,-5.9515,-5.9761,-6.0321,-6.1979,-6.3037,-6.4474,-6.6782,-6.8052,-6.9283,-7.0744,-7.1668,-7.2395,-7.2869,-7.3174,-7.3155,-7.2794,-7.0736,-6.9558,-6.9558,-6.8373,-6.7687,-6.7687,-6.7687,-6.7687,-6.7687,-6.7687,-6.699,-6.5605,-6.3912,-6.2164,-6.0331,-5.6916,-5.4702,-5.3518,-5.3518,-5.3518,-5.345,-5.2638,-5.23,-5.2198,-5.1251,-5.0913,-5.0811,-5.0067,-4.9593,-4.9255,-4.9086,-4.9018,-4.9018,-4.9018,-4.9018,-4.9018,-4.9018,-4.9018,-4.9018,-4.9018,-4.9018,-4.9018,-4.9018,-4.9018,-4.9018,-4.9018,-4.9018,-4.9018,-4.9018,-4.8798,-4.8385,-4.7737,-4.6833,-4.5889,-4.4962,-4.4197,-4.3615,-4.3329,-4.329,-4.323,-4.309,-4.2342,-4.1602,-4.0905,-4.0397,-4.0038,-3.9858,-3.9409,-3.8841,-3.8153,-3.8601,-3.8153,-3.6567,-3.6926,-3.6626,-3.5519,-3.5519,-3.5519,-3.5519,-3.5519,-3.5519,-3.5519,-3.5519,-3.5519,-3.9378,-4.1512,-4.3729,-4.8075,-4.9777,-5.0969,-5.3329,-5.4876,-5.5903,-5.6329,-5.7857,-5.9127,-5.9446,-5.9679,-6.0306,-6.1851,-6.3486,-6.5166,-6.6859,-6.859,-6.9975,-7.0783,-7.1668,-7.2025,0.0,-7.1692,-7.1309,-6.991,-6.9278,-6.8926,-6.8926,-6.8155,-6.7687,-6.7687,-6.7687,-6.7687,-6.7687,-6.7687,-6.7283,-6.6439,-6.4754,-6.2742,-6.0357,-5.6434,-5.4228,-5.3518,-5.3518,-5.3518,-5.345,-5.2638,-5.23,-5.2164,-5.071,-5.0135,-5.0033,-4.9323,-4.9458,-4.9965,-4.9255,-4.9018,-4.9018,-4.9018,-4.9018,-4.9018,-4.9018,-4.9018,-4.9018,-4.9018,-4.9018,-4.9018,-4.9018,-4.9018,-4.9018,-4.9018,-4.9018,-4.9018,-4.9018,-4.8289,-4.7605,-4.7638,-4.6833,-4.5889,-4.4962,-4.4774,-4.4434,-4.3448,-4.329,-4.312,-4.25,-4.1265,-4.0217,-3.9523,-3.9469,-3.917,-3.8512,-3.8422,-3.8153,-3.7494,-3.7464,-3.7165,-3.6507,-3.6507,-3.6178,-3.5519,-3.5519,-3.5519,-3.5519,-3.5519,-3.5519,-3.5519,-3.5519,-3.5519,-4.076,-4.2847,-4.4634,-4.7662,-4.92,-5.0452,-5.2377,-5.359,-5.4653,-5.6113,-5.5589,-5.5262,-5.6521,-5.675,-5.7599,-6.0152,-6.3334,-6.6244,-6.8513,-7.0783,-7.2129,-7.1783,-7.218,0.0,0.0,0.0,0.0,-6.9836,-6.9252,-6.8898,-6.8898,-6.8641,-6.8495,-6.8495,-6.7981,-6.7687,-6.7687,-6.7173,-6.6512,-6.5642,-6.2421,-5.9613,-5.7238,-5.5415,-5.4194,-5.3484,-5.2942,-5.2706,-5.2604,-5.1352,-5.0845,-5.0744,-4.9763,-4.9357,-4.9357,-4.9086,-4.9154,-4.9323,-4.9086,-4.9018,-4.9018,-4.9018,-4.9018,-4.9018,-4.9018,-4.9018,-4.9018,-4.9018,-4.9018,-4.9018,-4.9018,-4.9018,-4.9018,-4.9018,-4.9018,-4.9018,-4.9018,-4.8767,-4.8545,-4.8545,-4.777,-4.6831,-4.5921,-4.5227,-4.4318,-4.2887,-4.2671,-4.2462,-4.1841,-4.0935,-4.0157,-3.9463,-3.902,-3.8631,-3.8422,-3.7973,-3.7464,-3.6836,-3.7195,-3.6926,-3.5878,-3.6237,-3.6178,-3.5519,-3.5519,-3.5519,-3.5519,-3.5519,-3.5519,-3.5519,-3.5519,-3.5519,-4.2059,-4.3874,-4.5267,-4.7463,-4.8424,-4.9224,-5.064,-5.1495,-5.2392,-5.3858,-5.296,-5.2322,-5.3917,-5.4358,-5.5377,-5.8158,-6.194,-6.5628,-6.8783,-7.0898,-7.2399,-7.3014,-7.3073,-7.2261,0.0,0.0,0.0,-6.9546,-6.9389,-6.9339,-6.9339,-6.9082,-6.8898,-6.8898,-6.8128,-6.7687,-6.7687,-6.688,-6.5815,-6.4358,-6.0654,-5.7958,-5.6086,-5.4799,-5.3957,-5.345,-5.2638,-5.23,-5.2198,-5.071,-5.0101,-5.0033,-4.9289,-4.9018,-4.9018,-4.9018,-4.9018,-4.9018,-4.9018,-4.9018,-4.9018,-4.9018,-4.9018,-4.9018,-4.9018,-4.9018,-4.9018,-4.9018,-4.9018,-4.9018,-4.9018,-4.9018,-4.9018,-4.9018,-4.9018,-4.9018,-4.9018,-4.9018,-4.9018,-4.9018,-4.8513,-4.7704,-4.6419,-4.5122,-4.3838,-4.2617,-4.2201,-4.1811,-4.1115,-4.0457,-3.9888,-3.9433,-3.8811,-3.8302,-3.8063,-3.7434,-3.6806,-3.6178,-3.6507,-3.6357,-3.5549,-3.5908,-3.5938,-3.5519,-3.5519,-3.5519,-3.5519,-3.5519,-3.5519,-3.5519,-3.5519,-3.5519,-4.3281,-4.4565,-4.5621,-4.7389,-4.7476,-4.7333,-4.8142,-4.8761,-4.9291,-4.9746,-4.9907,-5.0314,0.0,0.0,-5.3765,-5.6114,-5.9817,-6.3858,-6.809,-6.9513,-7.1321,0.0,0.0,0.0,0.0,0.0,0.0,-6.9173,0.0,-7.0146,-7.0146,-6.9449,-6.9009,-6.8972,-6.8164,-6.7724,-6.7614,-6.6806,-6.5118,-6.2633,-5.9614,-5.7723,-5.675,-5.4512,-5.3518,-5.345,-5.2604,-5.2232,-5.2131,-5.0642,-5.0033,-4.9965,-4.9255,-4.9018,-4.9018,-4.9018,-4.9018,-4.9018,-4.9018,-4.9018,-4.9018,-4.9018,-4.9018,-4.9018,-4.9018,-4.9018,-4.9018,-4.9018,-4.9018,-4.9018,-4.9018,-4.9018,-4.9018,-4.9018,-4.9018,-4.9018,-4.9018,-4.9018,-4.9018,-4.9018,-4.8889,-4.8222,-4.6389,-4.4463,-4.3,-4.241,-4.1782,-4.1115,-4.0487,-3.9828,-3.9373,-3.9343,-3.8751,-3.8063,-3.7404,-3.6806,-3.6178,-3.5549,-3.5519,-3.5519,-3.5519,-3.5519,-3.5519,-3.5519,-3.5519,-3.5519,-3.5519,-3.5519,-3.5519,-3.5519,-3.5519,-3.5519,-4.4572,-4.4978,-4.5049,-4.5333,-4.5197,-4.4937,-4.4775,-4.5302,-4.5692,-4.5154,-4.5114,-4.5213,0.0,0.0,0.0,-5.5973,-6.2273,0.0,-7.1706,-7.4553,0.0,-7.6592,0.0,-7.5431,-7.3824,-7.2906,0.0,0.0,-7.0881,-7.0991,-7.0991,-7.0807,-7.0403,-6.9816,-6.9009,-6.8017,-6.6806,-6.5411,-6.3466,-6.0982,-5.9111,-5.741,-5.595,-5.4239,-5.3518,-5.3416,-5.2097,-5.1488,-5.1386,-4.9898,-4.9289,-4.9255,-4.9086,-4.9018,-4.9018,-4.9018,-4.9018,-4.9018,-4.9018,-4.9018,-4.9018,-4.9018,-4.9018,-4.9018,-4.9018,-4.9018,-4.9018,-4.9018,-4.9018,-4.9018,-4.9018,-4.9018,-4.9018,-4.9018,-4.9018,-4.9018,-4.9018,-4.9018,-4.9018,-4.9018,-4.747,-4.5783,-4.4593,-4.3006,-4.1654,-4.0995,-4.0756,-4.0576,-4.0427,-3.9828,-3.923,-3.8721,-3.8063,-3.7404,-3.6776,-3.6118,-3.5699,-3.5519,-3.5519,-3.5519,-3.5519,-3.5519,-3.5519,-3.5519,-3.5519,-3.5519,-3.5519,-3.5519,-3.5519,-3.5519,-3.5519,-3.5519,-4.4473,-4.4135,-4.3597,-4.3419,-4.2604,-4.1784,-4.1635,-4.1753,-4.1614,-4.0568,-4.0776,-4.115,-4.1344,-4.5853,0.0,0.0,0.0,0.0,-7.1255,-7.4399,-7.6609,0.0,-7.7336,0.0,-7.5112,-7.4125,-7.323,0.0,-7.2055,-7.1688,-7.1293,-7.1293,-7.0954,-7.011,-6.9339,-6.7772,-6.5432,-6.4157,-6.2139,-5.9365,-5.8178,-5.6771,-5.5173,-5.4044,-5.3518,-5.3416,0.0,-5.1185,-5.1116,-4.9627,-4.9018,-4.9018,-4.9018,-4.9018,-4.9018,-4.9018,-4.9018,-4.9018,-4.9018,-4.9018,-4.9018,-4.9018,-4.9018,-4.9018,-4.9018,-4.9018,-4.9018,-4.9018,-4.9018,-4.9018,-4.9018,-4.9018,-4.9018,-4.9018,-4.9018,-4.9018,-4.9018,-4.9018,-4.9018,-4.9018,-4.6947,-4.5109,-4.4898,-4.2941,-4.1265,-4.0876,-4.0576,-4.0277,-4.0008,-3.9649,-3.914,-3.8452,-3.7793,-3.7165,-3.6537,-3.5878,-3.5519,-3.5519,-3.5519,-3.5519,-3.5519,-3.5519,-3.5519,-3.5519,-3.5519,-3.5519,-3.5519,-3.5519,-3.5519,-3.5519,-3.5519,-3.5519,-4.4013,-4.2971,-4.1908,-4.198,-4.046,-3.8953,-3.9014,-3.8543,-3.7699,-3.62,-3.6934,-3.7982,-3.8497,-4.3148,-4.7868,-5.0894,0.0,-6.4192,-6.9404,-7.2289,-7.4903,-7.7607,-7.8019,-7.756,-7.6275,-7.5465,-7.4735,-7.3927,-7.312,-7.2312,-7.1476,-7.1468,-7.0971,-6.9969,-6.8834,-6.6854,-6.3869,-6.2861,-6.0898,-5.8096,-5.7199,-5.599,-5.4541,-5.3713,-5.3348,-5.3281,-5.1725,-5.1082,-5.0947,-4.956,-4.9018,-4.9018,-4.9018,-4.9018,-4.9018,-4.9018,-4.9018,-4.9018,-4.9018,-4.9018,-4.9018,-4.9018,-4.9018,-4.9018,-4.9018,-4.9018,-4.9018,-4.9018,-4.9018,-4.9018,-4.9018,-4.9018,-4.9018,-4.9018,-4.9018,-4.9018,-4.9018,-4.9018,-4.8954,-4.8829,-4.698,-4.5516,-4.5987,-4.351,-4.146,-4.146,-4.0808,-4.0068,-3.9463,-3.9313,-3.902,-3.8332,-3.7674,-3.7045,-3.6417,-3.5818,-3.5519,-3.5519,-3.5519,-3.5519,-3.5519,-3.5519,-3.5519,-3.5519,-3.5519,-3.5519,-3.5519,-3.5519,-3.5519,-3.5519,-3.5519,-3.5519,-4.5357,-4.3437,-4.1619,-4.2375,-4.0991,-3.9139,-3.7862,-3.7056,0.0,0.0,-3.4197,-3.5787,-3.5443,-4.0473,-4.6232,-5.1088,-5.7223,-6.3896,-7.1243,-7.435,-7.684,0.0,-7.9253,-7.8675,-7.7915,-7.6675,0.0,0.0,-7.3964,-7.312,-7.2349,-7.2312,-7.129,-6.9098,-6.6315,-6.4236,-6.2951,-6.0925,-5.9301,-5.8096,-5.6675,-5.5504,-5.4541,-5.3134,-5.2503,-5.2435,-5.0947,0.0,-5.0202,-4.9357,-4.9018,-4.9018,-4.9018,-4.9018,-4.9018,-4.9018,-4.9018,-4.9018,-4.9018,-4.9018,-4.9018,-4.9018,-4.9018,-4.9018,-4.9018,-4.9018,-4.9018,-4.9018,-4.9018,-4.9018,-4.9018,-4.9018,-4.9018,-4.9018,-4.9018,-4.9018,-4.9018,-4.9018,-4.8767,-4.7966,-4.7045,-4.6126,-4.5484,-4.3333,-4.1723,-4.1723,-4.0491,-3.9523,-3.9403,-3.8931,-3.8332,-3.7644,-3.7015,-3.6387,-3.5729,-3.5579,-3.5519,-3.5519,-3.5519,-3.5519,-3.5519,-3.5519,-3.5519,-3.5519,-3.5519,-3.5519,-3.5519,-3.5519,-3.5519,-3.5519,-3.5519,-3.5519,-4.636,-4.4271,-4.2206,-4.2737,-4.0735,-3.8368,-3.7358,0.0,0.0,0.0,-3.3431,-3.4703,-3.4877,-3.943,0.0,-4.8484,-5.4972,-6.1726,-6.8157,-7.2574,0.0,-7.8087,-7.8829,-7.8816,0.0,-7.6376,-7.5322,-7.4955,-7.378,-7.2716,-7.1945,-7.1101,-7.0062,-6.8848,-6.5675,-6.3381,-6.208,-5.9768,-5.804,-5.6829,-5.5713,-5.4761,-5.4009,-5.2836,-5.23,-5.2232,-5.0744,-5.0101,-5.0033,-4.9289,-4.9018,-4.9018,-4.9018,-4.9018,-4.9018,-4.9018,-4.9018,-4.9018,-4.9018,-4.9018,-4.9018,-4.9018,-4.9018,-4.9018,-4.9018,-4.9018,-4.9018,-4.9018,-4.9018,-4.9018,-4.9018,-4.9018,-4.9018,-4.9018,-4.9018,-4.9018,-4.9018,-4.9018,-4.8861,-4.8418,-4.7402,-4.6422,-4.5805,-4.3819,-4.2133,-4.1693,-4.0637,-3.9798,-3.9433,-3.8811,-3.8123,-3.7494,-3.7135,-3.6567,-3.5579,-3.5519,-3.5519,-3.5519,-3.5519,-3.5519,-3.5519,-3.5519,-3.5519,-3.5519,-3.5519,-3.5519,-3.5519,-3.5519,-3.5519,-3.5519,-3.5519,-3.5519,-4.7334,-4.528,-4.3132,-4.3414,-4.1121,-3.8475,-3.7281,-3.5958,0.0,-3.2905,-3.3359,-3.4245,-3.5008,-3.8678,-4.2624,0.0,-5.2246,-5.8857,-6.4689,-7.0024,-7.4197,0.0,-7.8121,0.0,-7.7426,-7.5989,0.0,-7.4918,-7.3054,-7.1648,-7.1026,-6.9636,-6.8539,-6.7769,-6.4946,-6.2659,-6.0979,-5.8668,-5.6918,-5.5716,-5.4803,-5.4059,-5.3484,-5.2672,-5.2198,-5.1995,-5.0676,-4.9999,-4.983,-4.9255,-4.9018,-4.9018,-4.9018,-4.9018,-4.9018,-4.9018,-4.9018,-4.9018,-4.9018,-4.9018,-4.9018,-4.9018,-4.9018,-4.9018,-4.9018,-4.9018,-4.9018,-4.9018,-4.9018,-4.9018,-4.9018,-4.9018,-4.9018,-4.9018,-4.9018,-4.9018,-4.9018,-4.9018,-4.9018,-4.9018,-4.7822,-4.675,-4.653,-4.4555,-4.2705,-4.1842,-4.0965,-4.0157,-3.9499,-3.896,-3.8362,-3.7704,-3.7375,-3.6806,-3.5789,-3.5579,-3.5519,-3.5519,-3.5519,-3.5519,-3.5519,-3.5519,-3.5519,-3.5519,-3.5519,-3.5519,-3.5519,-3.5519,-3.5519,-3.5519,-3.5519,-3.5519,-4.8505,-4.6307,-4.4081,-4.488,-4.3526,-4.1135,-3.7866,0.0,-3.5968,-3.3195,-3.3359,-3.4185,-3.49,-3.7307,-4.0599,-4.4897,0.0,-5.5916,-6.4007,-6.866,-7.2705,-7.6614,0.0,0.0,-7.7365,-7.6533,0.0,-7.4955,-7.192,-7.0138,-7.0129,-6.9302,-6.739,-6.4392,-6.2614,-6.0911,-5.9248,-5.7008,-5.5854,-5.5647,-5.4262,-5.3585,-5.3484,-5.2672,-5.1928,-5.1285,-5.0439,-4.9729,0.0,-4.9052,-4.9018,-4.9018,-4.9018,-4.9018,-4.9018,-4.9018,-4.9018,-4.9018,-4.9018,-4.9018,-4.9018,-4.9018,-4.9018,-4.9018,-4.9018,-4.9018,-4.9018,-4.9018,-4.9018,-4.9018,-4.9018,-4.9018,-4.9018,-4.9018,-4.9018,-4.9018,-4.9018,-4.9018,-4.9018,-4.9018,-4.819,-4.7507,-4.7473,-4.5359,-4.3485,-4.2757,-4.1383,-4.0157,-3.9499,-3.9379,-3.905,-3.8362,-3.7255,-3.6537,-3.6417,-3.5848,-3.5519,-3.5519,-3.5519,-3.5519,-3.5519,-3.5519,-3.5519,-3.5519,-3.5519,-3.5519,-3.5519,-3.5519,-3.5519,-3.5519,-3.5519,-3.5519,-4.9833,-4.8456,-4.6462,-4.605,-4.3868,-4.1122,-3.8535,0.0,-3.681,-3.5258,-3.5967,-3.6929,-3.7171,-3.9281,-4.1671,-4.3869,0.0,0.0,-5.9408,-6.391,-6.8539,-7.3528,-7.487,0.0,0.0,0.0,-7.4598,-7.2751,-7.0956,-6.9271,-6.7658,-6.7325,-6.6134,-6.3862,-6.23,-6.0458,-5.8355,-5.6596,-5.548,-5.504,-5.3991,-5.3247,-5.2739,-5.1995,-5.1251,-5.0507,-4.9763,-4.9255,0.0,-4.9018,-4.9018,-4.9018,-4.9018,-4.9018,-4.9018,-4.9018,-4.9018,-4.9018,-4.9018,-4.9018,-4.9018,-4.9018,-4.9018,-4.9018,-4.9018,-4.9018,-4.9018,-4.9018,-4.9018,-4.9018,-4.9018,-4.9018,-4.9018,-4.9018,-4.9018,-4.9018,-4.9018,-4.9018,-4.9018,-4.9018,-4.8257,-4.7406,-4.6833,-4.5448,-4.3852,-4.2186,-4.1407,-4.0606,-3.9559,-3.9373,-3.932,-3.905,-3.8182,-3.7464,-3.7075,-3.6447,-3.6088,-3.6088,-3.5729,-3.5519,-3.5519,-3.5519,-3.5519,-3.5519,-3.5519,-3.5519,-3.5519,-3.5519,-3.5519,-3.5519,-3.5519,-3.5519,-4.9663,-4.916,-4.7908,-4.6355,-4.3976,-4.1377,0.0,0.0,-3.791,-3.7325,-3.8398,-3.947,-3.969,-4.1489,-4.3244,-4.4172,0.0,-5.2616,-5.6407,-6.0566,-6.4999,0.0,0.0,-7.2812,0.0,-7.5037,-7.3536,-7.1268,-6.9881,-6.822,-6.6118,-6.5366,-6.4319,-6.277,-6.1252,-5.9487,-5.7577,-5.6122,-5.5108,-5.4566,-5.3619,-5.2841,-5.2266,-5.1555,-5.0811,-5.0067,-4.956,-4.9311,0.0,-4.9077,-4.9107,-4.9286,-4.9077,-4.9018,-4.9018,-4.9018,-4.9018,-4.9018,-4.9018,-4.9018,-4.9018,-4.9018,-4.9018,-4.9018,-4.9018,-4.9018,-4.9018,-4.9018,-4.9018,-4.9018,-4.9018,-4.9018,-4.9018,-4.9018,-4.9018,-4.9018,-4.9018,-4.9018,-4.9018,-4.9018,-4.7864,-4.6742,-4.6282,-4.4883,-4.3304,-4.1926,-4.1354,-4.0756,-3.9828,-3.9493,-3.9373,-3.9373,-3.9209,-3.8706,-3.7798,-3.7105,-3.6686,-3.6507,-3.6058,-3.5699,-3.5519,-3.5519,-3.5519,-3.5519,-3.5519,-3.5519,-3.5519,-3.5519,-3.5519,-3.5519,-3.5519,-3.5519,-4.7566,-4.7834,-4.761,-4.5537,-4.4128,-4.2485,0.0,0.0,-3.9526,-3.8984,-4.0025,-4.1274,-4.1949,-4.3416,-4.496,-4.6351,-4.9226,0.0,-5.6539,-5.9777,0.0,0.0,0.0,-6.9036,-7.2239,-7.3156,-7.2857,-7.1236,-6.8646,0.0,-6.6046,-6.3717,-6.1743,-6.0182,-5.873,-5.7543,-5.6833,-5.5344,-5.46,-5.4566,-5.3044,-5.23,-5.2266,-5.1555,-5.0811,-5.0101,-5.0067,-5.0055,0.0,-4.9256,-4.9372,-4.9919,-4.9256,-4.9018,-4.9018,-4.9018,-4.9018,-4.9018,-4.9018,-4.9018,-4.9018,-4.9018,-4.9018,-4.9018,-4.9018,-4.9018,-4.9018,-4.9018,-4.9018,-4.9018,-4.9018,-4.9018,-4.9018,-4.9018,-4.9018,-4.9018,-4.9018,-4.9018,-4.9018,-4.9018,-4.6947,-4.5442,-4.608,-4.3555,-4.1662,-4.2291,-4.1235,-4.0397,-4.0397,-3.9828,-3.9373,-3.9373,-4.017,-4.0036,-3.8527,-3.7793,-3.7135,-3.6537,-3.6477,-3.6178,-3.5519,-3.5519,-3.5519,-3.5519,-3.5519,-3.5519,-3.5519,-3.5519,-3.5519,-3.5519,-3.5519,-3.5519,-4.5886,-4.6033,-4.5546,-4.3986,-4.2896,-4.1717,-3.985,0.0,-4.0706,-4.102,-4.2291,-4.3542,-4.4294,-4.574,-4.713,-4.8073,-5.0381,0.0,0.0,0.0,0.0,-6.6826,-7.0917,-7.3354,0.0,0.0,-7.1498,-6.8573,-6.7111,-6.5742,-6.4357,-6.2101,-6.0588,-6.0114,-5.866,-5.7306,-5.6089,-5.5074,-5.4329,-5.3822,-5.2807,-5.2063,-5.1522,-5.0777,-5.0033,-4.9357,-4.9357,-4.9611,-4.9947,-4.9286,-4.9406,-4.9919,-4.9256,-4.9018,-4.9018,-4.9018,-4.9018,-4.9018,-4.9018,-4.9018,-4.9018,-4.9018,-4.9018,-4.9018,-4.9018,-4.9018,-4.9018,-4.9018,-4.9018,-4.9018,-4.9018,-4.9018,-4.9018,-4.9018,-4.9018,-4.9018,-4.9018,-4.9018,-4.9018,-4.9018,-4.7434,-4.6123,-4.6218,-4.4408,-4.3063,-4.3315,-4.3015,-4.2808,-4.2984,-4.2837,-4.2488,-4.1985,-4.2157,-4.1469,-3.9283,-3.9013,-3.8629,-3.7863,-3.6956,-3.6387,-3.6178,-3.6218,-3.6006,-3.5489,-3.6006,-3.6006,-3.5519,-3.5519,-3.5519,-3.5519,-3.5519,-3.5519,0.0,-4.4063,-4.4148,-4.2753,-4.2032,0.0,0.0,-4.1064,-4.2124,-4.2886,-4.4495,-4.5863,-4.6327,-4.7698,-4.8883,-4.9357,-5.108,0.0,0.0,0.0,0.0,-6.6616,0.0,0.0,0.0,-7.1192,-7.0096,-6.7298,-6.6079,-6.4752,-6.3165,-6.1197,-5.9844,-5.9268,-5.7848,-5.6494,-5.531,-5.4566,-5.3788,-5.3044,-5.2266,-5.1522,-5.0777,-5.0033,-4.9424,-4.9018,-4.9018,-4.9551,0.0,-4.9664,-4.978,-5.0335,-4.9634,-4.9226,-4.9018,-4.9018,-4.9018,-4.9018,-4.9018,-4.9018,-4.9018,-4.9018,-4.9018,-4.9018,-4.9018,-4.9018,-4.9018,-4.9018,-4.9018,-4.9018,-4.9018,-4.9018,-4.9018,-4.9018,-4.9018,-4.9018,-4.9018,-4.9018,-4.9018,-4.9018,-4.769,-4.6487,-4.6345,-4.497,-4.3988,-4.4239,-4.4086,-4.4082,-4.4543,-4.4354,-4.3905,-4.32,-4.3104,-4.222,-4.0086,-4.0013,-3.9576,-3.8462,-3.7644,-3.7075,-3.6836,-3.6671,-3.6499,-3.6305,-3.6476,-3.6508,-3.6383,-3.607,-3.5782,-3.5519,-3.5519,-3.5519,0.0,-4.2036,-4.3172,-4.1703,-4.1586,-4.1744,-4.1252,-4.2429,0.0,-4.4676,-4.6481,-4.7906,-4.8071,-4.9187,-5.0135,-5.0236,-5.142,0.0,0.0,-5.8796,0.0,0.0,-6.8485,0.0,-6.7339,-6.8478,-6.8644,-6.6969,-6.5346,-6.3802,-6.2381,-6.0791,-5.9268,-5.7848,-5.6393,-5.531,-5.46,-5.3822,-5.3044,-5.23,-5.1522,-5.0777,-5.0067,-4.9323,-4.9018,0.0,-4.9046,-4.9838,-5.1034,-5.0335,-5.0472,-5.1034,-5.0279,-4.9576,-4.9018,-4.9018,-4.9018,-4.8984,-4.8951,-4.8951,-4.9018,-4.9018,-4.9018,-4.9018,-4.9018,-4.9018,-4.9018,-4.9018,-4.9018,-4.9018,-4.9018,-4.9018,-4.9018,-4.9018,-4.9018,-4.9018,-4.9018,-4.9018,-4.9018,-4.9018,-4.7753,-4.668,-4.6584,-4.5341,-4.4582,-4.5186,-4.4805,-4.4714,-4.5391,-4.4942,-4.4233,-4.3427,-4.3331,-4.2584,-4.0956,-4.0758,-4.0067,-3.8582,-3.8422,-3.8123,-3.7494,-3.6903,-3.6912,-3.7591,-3.7002,-3.7024,-3.7706,-3.6964,-3.6228,-3.5519,-3.5519,-3.5519,-4.054,0.0,-4.1136,-4.0723,-4.2099,-4.35,0.0,0.0,-4.6207,-4.6993,-4.7564,-4.821,-4.9357,-4.9864,-5.0473,-5.1589,0.0,0.0,-5.6144,0.0,0.0,-6.785,-6.963,-6.9531,-6.6628,-6.7165,-6.6738,-6.4511,-6.3453,-6.2516,-6.1603,-5.9539,-5.7983,-5.7103,-5.5615,-5.4769,-5.46,-5.3247,-5.2503,-5.2266,-5.098,-5.027,-5.0067,-4.9323,-4.9018,-4.9015,-4.9551,-5.0286,-5.1086,-5.0903,-5.0929,-5.1034,-5.0279,-4.9576,-4.9018,-4.9018,-4.9018,-4.8917,-4.8376,-4.8545,-4.9018,-4.9018,-4.9018,-4.9018,-4.9018,-4.9018,-4.9018,-4.9018,-4.9018,-4.9018,-4.9018,-4.9018,-4.9018,-4.9018,-4.9018,-4.9018,-4.9018,-4.9018,-4.9018,-4.9018,-4.8222,-4.7546,-4.7374,-4.6586,-4.6192,-4.6912,-4.688,-4.7111,-4.799,-4.7952,-4.735,-4.6046,-4.5324,-4.4041,-4.1883,-4.1064,-4.0251,-3.9206,-3.8691,-3.8332,-3.8153,-3.7621,-3.7431,-3.7591,-3.7551,-3.7293,-3.6873,-3.6691,-3.6228,-3.5519,-3.5519,-3.5519,-4.0935,-4.1055,-4.1332,-4.1332,-4.2953,-4.4571,-4.4571,0.0,0.0,0.0,0.0,0.0,-4.9898,0.0,0.0,0.0,-5.345,0.0,0.0,0.0,0.0,-6.7762,-6.8394,-6.8094,0.0,0.0,-6.5289,-6.3639,-6.2821,-6.1907,-6.0825,-5.893,-5.7408,-5.6325,-5.5175,-5.4262,-5.3551,-5.2706,-5.1961,-5.1285,-5.0473,-4.9898,-4.9593,-4.9187,-4.9018,-4.9015,-4.9722,-5.0215,-5.0555,-5.0859,-5.0809,-5.0468,-4.9723,-4.9274,-4.8951,-4.8612,-4.8714,-4.8883,-4.8173,-4.8173,-4.8578,-4.8883,-4.9018,-4.9018,-4.9018,-4.9018,-4.9018,-4.9018,-4.9018,-4.9018,-4.9018,-4.9018,-4.9018,-4.9018,-4.9018,-4.9018,-4.9018,-4.9018,-4.9018,-4.9018,-4.868,-4.8256,-4.7788,-4.7691,-4.7658,-4.7725,-4.8025,-4.845,-4.8923,-4.9018,-4.8578,-4.7428,-4.5849,-4.4269,-4.2655,-4.1047,-3.9884,-3.9409,-3.9446,-3.9117,-3.8427,-3.8218,-3.7997,-3.768,-3.844,-3.8469,-3.7642,-3.7642,-3.7293,-3.6538,-3.6538,-3.6538,-4.1803,-4.244,-4.292,-4.25,-4.3913,-4.5368,-4.5307,0.0,0.0,0.0,0.0,0.0,0.0,-5.1386,0.0,0.0,0.0,0.0,-6.1534,-6.2679,-6.4133,-6.6516,-6.6343,0.0,-6.6117,-6.5019,-6.3971,-6.3226,-6.2381,-6.1264,-5.9844,-5.8355,-5.6934,-5.5581,-5.4702,-5.3551,-5.2164,-5.2131,-5.1454,-5.0101,-4.9965,-4.9593,-4.9018,-4.9018,-4.9018,-4.9046,0.0,0.0,-4.9953,-5.0628,-5.0414,-4.968,-4.9174,-4.8908,-4.8781,-4.8108,-4.8308,-4.8748,-4.8108,-4.7804,-4.7868,-4.8714,-4.9018,-4.9018,-4.9018,-4.9018,-4.9018,-4.9018,-4.9018,-4.9018,-4.9018,-4.9018,-4.9018,-4.9018,-4.9018,-4.9018,-4.9018,-4.9018,-4.9018,-4.9018,-4.9018,-4.8815,-4.8206,-4.8612,-4.8781,-4.8173,-4.8612,-4.9018,-4.9018,-4.9018,-4.8619,-4.7619,-4.5537,-4.3808,-4.2843,-4.0681,-3.9445,-3.9559,-4.017,-3.9872,-3.8486,-3.86,-3.8496,-3.7966,-3.9375,-3.9688,-3.8908,-3.8908,-3.8525,-3.7793,-3.7793,-3.7793,-4.3718,-4.4766,-4.5185,-4.295,-4.4663,-4.671,-4.6173,0.0,0.0,0.0,0.0,0.0,0.0,-5.1725,-5.2536,0.0,0.0,-5.9712,0.0,0.0,-6.5202,-6.5032,0.0,-6.5054,-6.3266,-6.2854,-6.2415,-6.1704,-6.0317,-5.9167,-5.8287,-5.6833,-5.5649,-5.4803,-5.3382,-5.2232,-5.1386,-5.1386,-5.0947,-5.0067,-4.9458,-4.912,-4.9018,-4.9018,-4.9018,-4.9012,0.0,-4.9905,-4.9968,-5.054,-5.0095,-4.8997,-4.9538,-4.9055,-4.8071,-4.7939,-4.7973,-4.8041,-4.7939,-4.7496,-4.7192,-4.8545,-4.9018,-4.9018,-4.9018,-4.9018,-4.9018,-4.9018,-4.9018,-4.9018,-4.9018,-4.9018,-4.9018,-4.9018,-4.9018,-4.9018,-4.9018,-4.9018,-4.9018,-4.9018,-4.9018,-4.8951,-4.8849,-4.8951,-4.8951,-4.8849,-4.8951,-4.9018,-4.9018,-4.9018,-4.8197,-4.6107,-4.4887,-4.3349,-4.1245,-4.0051,-3.9702,-4.0451,-3.992,-3.9269,-3.8598,-3.8685,-3.8769,-3.8718,-3.9636,-3.9688,-3.8908,-3.8908,-3.8525,-3.7793,-3.7793,-3.7793,-4.3678,-4.4456,-4.5169,-4.4913,-4.6854,-4.8898,0.0,0.0,0.0,0.0,0.0,0.0,0.0,0.0,-5.4465,-5.7273,0.0,-5.9776,-6.2009,-6.2516,-6.2719,0.0,0.0,-6.3057,-6.2448,-6.2042,-6.1467,-6.0723,-5.9268,-5.8254,-5.7915,-5.6122,-5.4661,-5.373,-5.233,-5.116,-5.0393,-5.0026,-4.9754,-4.9492,-4.9154,-4.8815,-4.8409,-4.8409,-4.8206,-4.7827,0.0,-4.8505,-4.8198,-4.9293,-4.9126,-4.8234,-4.8583,-4.8625,-4.8477,-4.8041,-4.7428,-4.6786,-4.7192,-4.6819,-4.6447,-4.7936,-4.8409,-4.8409,-4.8409,-4.868,-4.8917,-4.8545,-4.8714,-4.9018,-4.9018,-4.9018,-4.9018,-4.9018,-4.9018,-4.9018,-4.9018,-4.9018,-4.9018,-4.9018,-4.9018,-4.9018,-4.9018,-4.9018,-4.9018,-4.9018,-4.9018,-4.9018,-4.9018,-4.8646,-4.7986,-4.691,-4.5299,-4.388,-4.2816,-4.1517,-4.0805,-4.0826,-4.0089,-3.9595,-3.9418,-3.9062,-3.8851,-3.8881,-3.9688,-3.9927,-3.9558,-3.9558,-3.9368,-3.9049,-3.9049,-3.9049,-4.3469,-4.4007,-4.4981,-4.6835,0.0,0.0,0.0,0.0,0.0,0.0,0.0,0.0,0.0,-5.3923,0.0,-6.0114,-6.008,-6.0148,-6.1839,-6.1535,-6.1366,-6.2009,-6.1772,-6.1772,-6.2347,-6.14,-6.0419,-5.9641,-5.8389,-5.7476,-5.7137,-5.5269,-5.377,-5.2781,-5.1152,-4.9993,-4.9363,-4.8557,-4.8363,-4.8748,-4.8748,-4.8376,-4.7635,-4.7635,-4.7327,-4.6844,-4.7307,-4.7264,-4.6899,-4.8055,-4.8176,-4.7699,-4.7885,-4.8175,-4.8409,-4.7868,-4.6718,-4.5534,-4.6278,-4.6177,-4.5906,-4.7225,-4.7635,-4.7635,-4.7635,-4.8037,-4.8376,-4.78,-4.8071,-4.8545,-4.8917,-4.9018,-4.9018,-4.9018,-4.9018,-4.9018,-4.9018,-4.9018,-4.9018,-4.9018,-4.9018,-4.8951,-4.8781,-4.8748,-4.868,-4.8511,-4.8477,-4.8477,-4.8477,-4.8003,-4.7507,-4.7124,-4.5471,-4.4247,-4.3866,-4.2745,-4.1753,-4.0982,-4.0281,-3.9971,-4.0061,-3.9303,-3.8989,-3.9183,-3.9799,-4.0113,-4.0113,-4.0113,-4.0113,-4.0113,-4.0113,-4.0113,-4.4077,-4.4736,-4.5718,-4.7725,-4.7828,0.0,-5.3099,-5.3168,0.0,-5.5919,0.0,0.0,0.0,-5.5074,-5.6427,-5.8795,-6.0283,-6.1907,-6.4072,0.0,-6.4309,-6.4377,-6.3159,-6.2347,-6.2381,-6.0452,-5.8863,-5.8084,-5.734,-5.6292,-5.4905,-5.3725,-5.2752,-5.202,-4.971,-4.846,-4.8395,-4.7235,-4.71,-4.7973,-4.7973,-4.7597,-4.6887,-4.6887,-4.6853,-4.6811,-4.6728,-4.7012,-4.7554,-4.7639,-4.765,-4.7692,-4.8421,-4.8003,-4.6955,-4.6887,-4.594,-4.4784,-4.5534,-4.5737,-4.5838,-4.6616,-4.6887,-4.6887,-4.6887,-4.6921,-4.6955,-4.6887,-4.6921,-4.7259,-4.8646,-4.9018,-4.9018,-4.9018,-4.9018,-4.9018,-4.9018,-4.9018,-4.9018,-4.9018,-4.9018,-4.8781,-4.8075,-4.7973,-4.7767,-4.7056,-4.6955,-4.6955,-4.6955,-4.6921,-4.6316,-4.4823,-4.4504,-4.3802,-4.2302,-4.2183,-4.1855,-4.1041,-4.0294,-3.9879,-3.9916,-3.9276,-3.9262,-3.9978,-4.0087,-4.0113,-4.0113,-4.0113,-4.0113,-4.0113,-4.0113,-4.0113,-4.3589,-4.4496,-4.5778,-4.7876,-4.845,0.0,0.0,-5.5471,-5.5547,-5.7137,-5.7983,0.0,0.0,0.0,-5.7509,-5.8795,-6.0283,-6.1603,-6.2448,-6.255,-6.2347,-6.1873,-6.1298,-6.0791,-6.0317,-5.9099,-5.8017,-5.7273,-5.6089,-5.4897,-5.3692,-5.2798,-5.1601,-5.0016,-4.8299,-4.7383,-4.7307,-4.6205,-4.5865,-4.6364,-4.6952,-4.6819,-4.6109,-4.6109,-4.6109,-4.6104,-4.5574,-4.5747,-4.6446,-4.6893,-4.71,-4.7176,-4.7957,-4.7631,-4.6718,-4.6278,-4.5466,-4.4649,-4.4919,-4.4993,-4.5128,-4.5872,-4.6109,-4.6109,-4.6109,-4.6447,-4.6684,-4.6244,-4.6447,-4.6921,-4.7496,-4.7631,-4.7767,-4.8206,-4.8342,-4.8443,-4.8917,-4.9018,-4.8883,-4.8379,-4.8342,-4.8105,-4.7327,-4.7225,-4.7124,-4.6819,-4.6786,-4.6786,-4.6786,-4.638,-4.5857,-4.5261,-4.4796,-4.4307,-4.3651,-4.3681,-4.3154,-4.1887,-4.1106,-4.0513,-4.0046,-3.977,-3.9799,-4.0113,-4.0113,-4.0113,-4.0113,-4.0113,-4.0113,-4.0113,-4.0113,-4.0113,-4.3618,-4.4317,-4.5506,-4.7812,0.0,0.0,-5.5898,-5.6968,-5.7273,-5.8964,-5.937,-5.8863,-5.7137,0.0,0.0,0.0,-5.9776,-6.0926,-6.0926,-6.0926,-6.0723,-6.0182,-5.9911,-5.9471,-5.8727,-5.7983,-5.7137,-5.619,-5.4863,-5.3666,-5.2683,-5.1564,-5.0153,-4.854,-4.7136,-4.626,-4.5935,-4.5142,-4.481,-4.4951,-4.5741,-4.5838,-4.5365,-4.5365,-4.5365,-4.5331,-4.4818,-4.4998,-4.5704,-4.623,-4.6583,-4.6853,-4.7361,-4.7124,-4.638,-4.5906,-4.5229,-4.4615,-4.4615,-4.4615,-4.4682,-4.5196,-4.5365,-4.5365,-4.5365,-4.5703,-4.5974,-4.55,-4.5703,-4.6109,-4.6109,-4.6447,-4.6989,-4.7703,-4.7906,-4.8041,-4.8545,-4.8646,-4.8443,-4.7699,-4.7564,-4.7327,-4.6583,-4.6447,-4.638,-4.6143,-4.6109,-4.6109,-4.6109,-4.5669,-4.5365,-4.5365,-4.4919,-4.4615,-4.4615,-4.4378,-4.3673,-4.2388,-4.161,-4.0865,-4.0146,-4.0113,-4.0113,-4.0113,-4.0113,-4.0113,-4.0113,-4.0113,-4.0113,-4.0113,-4.0113,-4.0113,-4.4317,-4.4317,-4.4961,0.0,0.0,0.0,-5.6401,-5.7306,-5.7848,-6.1603,-5.9979,-5.7645,-5.6934,-5.6799,0.0,-5.6799,-5.8626,-6.008,-6.008,-6.008,-6.008,-6.008,-5.9438,-5.8693,-5.7949,-5.7205,-5.619,-5.4702,-5.359,-5.2646,-5.1918,-4.9899,-4.8459,-4.7809,-4.6183,-4.4975,-4.4317,-4.4091,-4.3992,-4.3994,-4.4408,-4.4615,-4.4615,-4.4615,-4.4615,-4.4615,-4.4615,-4.4934,-4.5485,-4.5676,-4.6143,-4.6786,-4.6786,-4.6346,-4.5703,-4.5703,-4.5229,-4.4615,-4.4615,-4.4615,-4.4615,-4.4615,-4.4615,-4.4615,-4.4615,-4.4615,-4.4615,-4.4615,-4.4615,-4.4615,-4.4615,-4.5698,-4.6955,-4.7703,-4.7872,-4.7872,-4.7872,-4.7872,-4.7665,-4.6921,-4.6786,-4.6549,-4.5838,-4.5703,-4.5432,-4.4716,-4.4615,-4.4615,-4.4615,-4.4615,-4.4615,-4.4615,-4.4615,-4.4615,-4.4581,-4.3876,-4.3098,-4.232,-4.161,-4.0865,-4.0146,-4.0113,-4.0113,-4.0113,-4.0113,-4.0113,-4.0113,-4.0113,-4.0113,-4.0113,-4.0113,-4.0113,-4.3708,-4.4317,0.0,-4.6222,0.0,0.0,0.0,-5.4914,0.0,0.0,-5.8312,-5.707,-5.6833,0.0,0.0,-5.619,-5.7442,-5.8558,-5.8558,-5.8118,-5.778,-5.778,-5.7137,-5.6596,-5.6393,-5.5683,-5.4762,-5.3551,-5.2696,-5.1462,-4.9813,-4.9135,-4.8163,-4.6796,-4.58,-4.4766,-4.3589,-4.3841,-4.377,-4.3292,-4.361,-4.4045,-4.4615,-4.4615,-4.4857,-4.5331,-4.4852,-4.4998,-4.5642,-4.5687,-4.6143,-4.6752,-4.6244,-4.5906,-4.5635,-4.5128,-4.4818,-4.4615,-4.4615,-4.4615,-4.4615,-4.4615,-4.4615,-4.4615,-4.4615,-4.4615,-4.4615,-4.4615,-4.4615,-4.4615,-4.4615,-4.4919,-4.5461,-4.6177,-4.638,-4.6515,-4.7022,-4.7124,-4.6921,-4.6177,-4.6041,-4.5805,-4.5026,-4.4925,-4.4852,-4.4649,-4.4615,-4.4615,-4.4615,-4.4615,-4.4615,-4.4615,-4.4615,-4.435,-4.3809,-4.3511,-4.2834,-4.161,-4.1339,-4.0865,-4.0146,-4.0113,-4.0113,-4.0113,-4.0113,-4.0113,-4.0113,-4.0113,-4.0113,-4.0113,-4.0113,-4.0113,-4.4456,-4.4915,0.0,-4.6973,-4.8893,-5.0745,-5.1905,0.0,0.0,0.0,0.0,-5.5966,-5.6111,-5.6251,0.0,-5.5781,-5.6461,-5.7137,-5.7408,-5.6833,0.0,0.0,-5.5314,-5.4768,-5.4103,-5.3636,-5.295,-5.203,-5.1156,-5.0133,-4.8882,-4.8142,-4.7205,-4.5933,-4.5005,-4.4018,-4.294,-4.3376,-4.3387,-4.3004,-4.3277,-4.3673,-4.4113,-4.4113,-4.4384,-4.479,-4.4654,-4.4852,-4.5263,-4.5263,-4.55,-4.5872,-4.5432,-4.5263,-4.5196,-4.4784,-4.4615,-4.4615,-4.4615,-4.4615,-4.4615,-4.4615,-4.4615,-4.4615,-4.4615,-4.4615,-4.4615,-4.4615,-4.4615,-4.4615,-4.4615,-4.4615,-4.4818,-4.5534,-4.5703,-4.5838,-4.6278,-4.6346,-4.6143,-4.5399,-4.5263,-4.5128,-4.4682,-4.4615,-4.4615,-4.4615,-4.4615,-4.4615,-4.4615,-4.4615,-4.4615,-4.4615,-4.4615,-4.4248,-4.3443,-4.3375,-4.2625,-4.0869,-4.0776,-4.0274,-3.9216,-3.9773,-4.0113,-4.0113,-4.0113,-4.0113,-4.0113,-4.0113,-4.0113,-4.0113,-3.9765,-3.961,-4.5903,0.0,0.0,-4.8951,-4.9862,0.0,-5.1562,-5.4103,-5.6217,-5.6274,0.0,-5.4566,-5.4853,-5.442,-5.4361,-5.5439,-5.5683,-5.5953,-5.6596,-5.5984,0.0,0.0,-5.386,-5.315,-5.1545,-5.1403,-5.1069,-5.0306,-4.9336,-4.8728,-4.8584,-4.7141,-4.5963,-4.5214,-4.3988,-4.297,-4.2231,-4.2692,-4.2845,-4.2717,-4.3045,-4.3172,-4.3172,-4.3274,-4.3341,-4.3443,-4.4248,-4.4615,-4.4615,-4.4615,-4.4615,-4.4615,-4.4615,-4.4615,-4.4615,-4.4615,-4.4615,-4.4615,-4.4615,-4.4615,-4.4615,-4.4615,-4.4615,-4.4615,-4.4615,-4.4615,-4.4615,-4.4615,-4.4615,-4.4615,-4.4615,-4.4615,-4.4784,-4.5432,-4.5602,-4.5602,-4.5602,-4.5602,-4.5399,-4.475,-4.4615,-4.4615,-4.4615,-4.4615,-4.4615,-4.4615,-4.4615,-4.4615,-4.4615,-4.4615,-4.4615,-4.4615,-4.4615,-4.4248,-4.3369,-4.3274,-4.236,-4.0139,-3.9985,-3.9383,-3.7969,-3.9269,-3.9978,-3.9978,-4.0054,-4.0113,-4.0113,-4.0113,-4.0113,-4.0087,-3.9342,-3.8962,-4.5454,-4.5813,0.0,0.0,-4.9764,-5.0999,-5.1271,-5.1894,-5.2367,-5.2168,-5.3028,-5.3737,-5.348,-5.3799,-5.4232,-5.4766,-5.5344,-5.5784,-5.5919,-5.4573,-5.3496,-5.3243,-5.201,-5.1051,-5.0692,-5.0621,-5.0207,-4.9247,-4.8932,-4.8214,-4.6912,-4.6509,-4.5783,-4.4556,-4.3708,-4.2482,-4.0846,-4.1719,-4.163,-4.0572,-4.1311,-4.1677,-4.1711,-4.2286,-4.2861,-4.3443,-4.4248,-4.4615,-4.4615,-4.4615,-4.4615,-4.4615,-4.4615,-4.4615,-4.4615,-4.4615,-4.4615,-4.4615,-4.4615,-4.4615,-4.4615,-4.4615,-4.4615,-4.4615,-4.4615,-4.4615,-4.4615,-4.4615,-4.4615,-4.4615,-4.4615,-4.4615,-4.4649,-4.4818,-4.4852,-4.4852,-4.4852,-4.4852,-4.4818,-4.4649,-4.4615,-4.4615,-4.4615,-4.4615,-4.4615,-4.4615,-4.4615,-4.4615,-4.4615,-4.4615,-4.4615,-4.4615,-4.4615,-4.4039,-4.2658,-4.2523,-4.1554,-3.9292,-3.9139,-3.9018,-3.8663,-3.8962,-3.9183,-3.9183,-3.9799,-4.0113,-4.0113,-4.0113,-4.0113,-4.0113,-3.9927,-3.9473,0.0,0.0,0.0,-4.8745,0.0,-5.1139,-5.0764,-5.0704,-5.0545,-4.9796,-5.0648,-5.1706,-5.2152,-5.2557,-5.3213,-5.4393,-5.4634,-5.4562,-5.4441,-5.3271,-5.2118,-5.1103,-5.016,-4.9416,-4.8963,-4.8953,-4.8553,-4.7699,-4.7585,-4.6822,-4.5092,-4.4726,-4.3826,-4.2302,-4.1784,-4.0764,-3.9186,-4.0671,-4.0895,-3.99,-4.0779,-4.1035,-4.0696,-4.1779,-4.2895,-4.4012,-4.4445,-4.4615,-4.4615,-4.4615,-4.4615,-4.4615,-4.4615,-4.4615,-4.4615,-4.4615,-4.4615,-4.4615,-4.4615,-4.4615,-4.4615,-4.4615,-4.4316,-4.4079,-4.4479,-4.4316,-4.4113,-4.4513,-4.4615,-4.4615,-4.4615,-4.4615,-4.4615,-4.4615,-4.4615,-4.4615,-4.4615,-4.4615,-4.4615,-4.4615,-4.4615,-4.4615,-4.4615,-4.4615,-4.4615,-4.4615,-4.4615,-4.4615,-4.4615,-4.4248,-4.4012,-4.4012,-4.3707,-4.3031,-4.188,-4.1453,-4.0431,-3.8479,-3.8358,-3.8218,-3.7815,-3.8492,-3.9069,-3.948,-3.9901,-4.0113,-4.0113,-4.0113,-3.9901,-3.9532,-3.9156,-3.8553,0.0,0.0,0.0,0.0,0.0,0.0,-5.0196,-5.0016,-4.9703,-4.8386,-4.8626,-4.9543,-5.0953,-5.1222,-5.195,-5.4053,-5.372,-5.3105,-5.2858,-5.186,-5.0548,-4.8827,-4.8399,-4.7873,-4.7036,-4.707,-4.686,-4.6202,-4.6062,-4.5253,-4.3531,-4.2697,-4.1525,-3.9892,-3.9568,-3.8859,-3.7633,-3.9568,-4.0223,-3.9548,-4.0546,-4.0764,-4.035,-4.1542,-4.2794,-4.4039,-4.4175,-4.4276,-4.4384,-4.4384,-4.4384,-4.4412,-4.4547,-4.4513,-4.4412,-4.4547,-4.4615,-4.4581,-4.4445,-4.4384,-4.4378,-4.4242,-4.3741,-4.3335,-4.4005,-4.3842,-4.3511,-4.4215,-4.4513,-4.4615,-4.4615,-4.4615,-4.4615,-4.4615,-4.4615,-4.4581,-4.4445,-4.4513,-4.4581,-4.4445,-4.4513,-4.4581,-4.4445,-4.4513,-4.4615,-4.4615,-4.4615,-4.4547,-4.4384,-4.3809,-4.3341,-4.3206,-4.2658,-4.1982,-4.1271,-4.0635,-3.9616,-3.8084,-3.7994,-3.7703,-3.6993,-3.8213,-3.9289,-4.0087,-4.0113,-4.0113,-4.0113,-3.9952,-3.9558,-3.8881,-3.8133,-3.7352,0.0,0.0,0.0,0.0,0.0,0.0,0.0,0.0,-4.9015,0.0,-4.7967,-4.8845,-5.0295,-5.0557,-5.1205,-5.3313,-5.2764,-5.2098,-5.2053,-4.9917,-4.8261,-4.7982,-4.6671,-4.571,-4.5574,-4.6112,-4.6172,-4.5484,-4.5052,-4.4211,-4.2824,-4.1633,-4.0463,-3.9197,-3.8875,-3.817,-3.6942,-3.8362,-3.8722,-3.8078,-3.9541,-4.0553,-4.1068,-4.1271,-4.1474,-4.1677,-4.232,-4.2963,-4.3572,-4.3572,-4.3572,-4.3639,-4.4344,-4.4181,-4.3639,-4.4316,-4.4615,-4.4513,-4.3809,-4.3572,-4.347,-4.2794,-4.2523,-4.2455,-4.2557,-4.2997,-4.3409,-4.3511,-4.4045,-4.4615,-4.4615,-4.4615,-4.4615,-4.4615,-4.4615,-4.4412,-4.3707,-4.4113,-4.4384,-4.3707,-4.4113,-4.4378,-4.3673,-4.4147,-4.4615,-4.4615,-4.4615,-4.4378,-4.3673,-4.3443,-4.3166,-4.2523,-4.2354,-4.1982,-4.1271,-4.1126,-4.0414,-3.8832,-3.8745,-3.8718,-3.8608,-3.8799,-3.9289,-4.0087,-4.0113,-4.0113,-4.0113,-3.9394,-3.8989,-3.8881,-3.8133,-3.7352,-4.5484,0.0,0.0,0.0,0.0,0.0,0.0,0.0,0.0,0.0,0.0,0.0,0.0,0.0,0.0,0.0,0.0,-5.1357,-4.9815,-4.8569,-4.7423,-4.6478,-4.5744,-4.5304,-4.5304,-4.5574,-4.5203,-4.3906,-4.3615,-4.2465,-4.0211,-3.9282,-3.7979,-3.6209,-3.6852,-3.6462,-3.4899,-3.7489,-3.8901,-3.9102,-3.9773,-4.0282,-4.0561,-4.0561,-4.1035,-4.1847,-4.2151,-4.2489,-4.2828,-4.3234,-4.3375,-4.3443,-4.3809,-4.3707,-4.3375,-4.3335,-4.3328,-4.3234,-4.2895,-4.2794,-4.2794,-4.2895,-4.2625,-4.2455,-4.3328,-4.3504,-4.3477,-4.3944,-4.4344,-4.4615,-4.4615,-4.4615,-4.4615,-4.4615,-4.4615,-4.4378,-4.3544,-4.4045,-4.4513,-4.4147,-4.435,-4.4513,-4.4113,-4.4378,-4.4615,-4.4615,-4.4615,-4.431,-4.3477,-4.3064,-4.2489,-4.1745,-4.1305,-4.0959,-4.0595,-4.0165,-3.9594,-3.8941,-3.8908,-3.8908,-3.8908,-3.8908,-3.9069,-3.942,-3.942,-3.942,-3.942,-3.8635,-3.8048,-3.7613,-3.7293,-3.6934,0.0,0.0,0.0,0.0,0.0,0.0,0.0,0.0,0.0,0.0,0.0,0.0,0.0,0.0,0.0,0.0,0.0,0.0,0.0,-4.7423,-4.6671,-4.5207,-4.4915,-4.4796,-4.4796,-4.4668,-4.3961,-4.2462,-4.181,-4.0447,-3.8013,-3.7101,-3.576,-3.3765,-3.51,-3.5063,-3.3422,-3.6807,-3.9079,-4.0113,-4.0113,-4.0113,-4.0113,-4.0113,-4.0688,-4.1711,-4.1711,-4.1847,-4.2049,-4.2625,-4.2834,-4.2834,-4.3064,-4.3031,-4.2828,-4.2422,-4.2286,-4.2286,-4.2286,-4.2286,-4.2388,-4.2963,-4.276,-4.2489,-4.3667,-4.3741,-4.3538,-4.4113,-4.4445,-4.4615,-4.4615,-4.4615,-4.4615,-4.4615,-4.4615,-4.4445,-4.3842,-4.4012,-4.4282,-4.4282,-4.4479,-4.4547,-4.4316,-4.4479,-4.4615,-4.4615,-4.4615,-4.431,-4.3477,-4.276,-4.2016,-4.1271,-4.0527,-4.0113,-4.0113,-3.9558,-3.9209,-3.9209,-3.9209,-3.9096,-3.8908,-3.8908,-3.8799,-3.8635,-3.8409,-3.8409,-3.8635,-3.7847,-3.7174,-3.66,-3.66,-3.66,0.0,0.0,0.0,0.0,0.0,0.0,0.0,0.0,0.0,0.0,0.0,0.0,0.0,0.0,0.0,0.0,0.0,0.0,0.0,0.0,0.0,-4.4436,-4.3768,-4.3379,-4.3379,-4.2989,-4.2462,-4.1702,-3.9711,-3.8166,-3.736,-3.575,-3.4293,-3.3187,-3.4473,-3.4585,-3.3395,-3.6348,-3.8618,-4.0113,-4.0113,-4.0113,-4.0113,-4.0113,-4.0146,-4.0214,-4.0214,-4.0595,-4.1271,-4.1305,-4.1305,-4.1373,-4.2083,-4.1914,-4.1407,-4.2049,-4.2286,-4.2286,-4.2286,-4.2286,-4.2286,-4.232,-4.232,-4.2286,-4.2388,-4.2895,-4.3409,-4.3443,-4.4012,-4.4615,-4.4615,-4.4615,-4.4615,-4.4615,-4.4615,-4.4581,-4.4547,-4.3978,-4.3443,-4.3443,-4.4079,-4.435,-4.3578,-4.4079,-4.4615,-4.4615,-4.4615,-4.431,-4.3477,-4.276,-4.2016,-4.1271,-4.0527,-4.0113,-4.0113,-4.0054,-4.0062,-4.0062,-4.0062,-3.9688,-3.8935,-3.8908,-3.858,-3.7879,-3.7114,-3.7084,-3.7879,-3.7054,-3.663,-3.66,-3.66,-3.66,0.0,0.0,0.0,0.0,0.0,0.0,0.0,0.0,0.0,0.0,0.0,0.0,0.0,0.0,0.0,0.0,0.0,0.0,0.0,0.0,0.0,0.0,-4.3439,-4.3021,-4.2275,-4.2067,-4.1227,-3.9464,-3.8274,-3.7206,-3.6191,-3.4546,-3.3319,-3.2541,-3.3114,-3.3908,-3.4881,-3.6844,-3.8329,-3.9377,-3.9876,-4.0113,-4.0113,-4.0113,-4.0113,-4.0113,-4.0113,-4.0248,-4.0553,-4.1001,-4.1204,-4.1238,-4.1508,-4.1441,-4.117,-4.0993,-4.0891,-4.0891,-4.0891,-4.1204,-4.1576,-4.1576,-4.2219,-4.3031,-4.3031,-4.3538,-4.4181,-4.4181,-4.4378,-4.4615,-4.4615,-4.4615,-4.4615,-4.4615,-4.4615,-4.4615,-4.4615,-4.435,-4.4181,-4.4181,-4.4412,-4.4513,-4.4215,-4.4412,-4.4615,-4.4615,-4.4615,-4.431,-4.3477,-4.3166,-4.2726,-4.1982,-4.1238,-4.0798,-4.0798,-4.0383,-4.0113,-4.0113,-3.961,-3.9209,-3.8908,-3.7958,-3.7291,-3.7024,-3.629,-3.6259,-3.7024,-3.6259,-3.5879,-3.5911,-3.6384,-3.6873,-4.2201,0.0,0.0,0.0,0.0,0.0,0.0,0.0,0.0,0.0,0.0,0.0,0.0,0.0,0.0,0.0,0.0,0.0,0.0,0.0,0.0,0.0,-4.3768,-4.3186,-4.2029,-4.1367,-4.012,-3.8023,-3.6959,0.0,-3.4771,-3.3495,-3.2634,-3.2289,-3.2463,-3.3586,-3.5683,-3.7095,-3.8199,-3.9005,-3.9774,-4.0113,-4.0113,-4.0113,-4.0113,-4.0113,-4.0113,-4.0113,-4.0146,-4.0629,-4.0832,-4.0832,-4.0832,-4.0832,-4.0764,-4.0282,-4.0113,-4.0146,-4.0383,-4.0933,-4.161,-4.188,-4.2794,-4.3809,-4.3809,-4.4181,-4.4615,-4.4615,-4.4615,-4.4615,-4.4615,-4.4615,-4.4615,-4.4615,-4.4615,-4.4615,-4.4615,-4.4615,-4.4615,-4.4615,-4.4615,-4.4615,-4.4615,-4.4615,-4.4615,-4.4615,-4.4615,-4.4412,-4.3876,-4.3572,-4.3132,-4.2388,-4.1644,-4.1102,-4.0832,-4.0383,-3.9978,-3.9714,-3.9209,-3.869,-3.8157,-3.7142,-3.6477,-3.6259,-3.575,-3.5718,-3.6228,-3.5718,-3.5651,-3.5879,-3.6661,-3.7557,0.0,0.0,0.0,0.0,0.0,0.0,0.0,0.0,0.0,0.0,0.0,0.0,0.0,0.0,0.0,0.0,0.0,0.0,0.0,0.0,0.0,0.0,0.0,-4.3797,-4.2665,-4.0897,-3.9142,-3.7378,-3.5654,-3.4248,-3.3187,-3.2533,-3.2289,-3.2434,-3.2631,-3.366,-3.5619,-3.7057,-3.8192,-3.8971,-3.974,-4.0113,-4.0113,-4.0113,-4.0113,-4.0113,-4.0113,-4.0113,-4.0113,-4.0113,-4.0113,-4.0113,-4.0113,-4.0113,-4.0113,-4.0113,-4.0113,-4.0214,-4.0933,-4.1644,-4.2388,-4.3098,-4.3876,-4.4581,-4.4581,-4.4581,-4.4615,-4.4615,-4.4615,-4.4615,-4.4615,-4.4615,-4.4615,-4.4615,-4.4615,-4.4615,-4.4615,-4.4615,-4.4615,-4.4615,-4.4615,-4.4615,-4.4615,-4.4615,-4.4615,-4.4615,-4.4615,-4.4615,-4.4615,-4.391,-4.3166,-4.2388,-4.1677,-4.0933,-4.0214,-4.0113,-3.9765,-3.8989,-3.8881,-3.8185,-3.6691,-3.6569,-3.6228,-3.5489,-3.5519,-3.5489,-3.5522,-3.5522,-3.5879,-3.66,-3.744,-3.864,-4.0487,0.0,0.0,0.0,0.0,0.0,0.0,0.0,0.0,0.0,0.0,0.0,0.0,0.0,0.0,0.0,0.0,0.0,0.0,0.0,0.0,0.0,0.0,0.0,-4.1459,-4.0023,-3.8273,0.0,-3.5209,-3.4248,-3.3187,-3.2433,-3.1759,-3.1172,-3.2828,-3.386,-3.4174,-3.6621,-3.7999,-3.8227,-3.9503,-4.0113,-4.0113,-4.0113,-4.0113,-4.0113,-4.0113,-4.0113,-4.0113,-4.0113,-4.0113,-4.0113,-4.0113,-4.0113,-4.0113,-4.0113,-4.0113,-4.0146,-4.035,-4.0865,-4.1542,-4.1745,-4.2692,-4.3741,-4.3741,-4.4147,-4.4615,-4.4615,-4.4615,-4.4615,-4.4615,-4.4615,-4.4615,-4.4615,-4.4615,-4.4615,-4.4615,-4.4615,-4.4615,-4.4615,-4.4615,-4.4615,-4.4615,-4.4615,-4.4615,-4.4615,-4.4615,-4.4615,-4.4615,-4.4412,-4.3978,-4.32,-4.2455,-4.1677,-4.0967,-4.0417,-4.0003,-3.9765,-3.8723,-3.7905,-3.7501,-3.6384,-3.5686,-3.5489,-3.5519,-3.575,-3.6321,-3.6321,-3.6384,-3.663,-3.7958,-3.9129,-4.0307,-4.0666,-4.1482,-4.0935,0.0,0.0,-4.3449,-4.3539,0.0,0.0,0.0,0.0,0.0,0.0,0.0,0.0,0.0,0.0,0.0,0.0,0.0,0.0,0.0,0.0,-4.0641,-3.9287,-3.7612,-3.5324,-3.4474,-3.3445,-3.2114,-3.1824,-3.1349,-3.0617,-3.2881,-3.3942,-3.3598,-3.6455,-3.7922,-3.7922,-3.9377,-4.0113,-4.0113,-4.0113,-4.0113,-4.0113,-4.0113,-4.0113,-4.0113,-4.0113,-4.0113,-4.0113,-4.0113,-4.0113,-4.0113,-4.0113,-4.0113,-4.0113,-4.0113,-4.0561,-4.1204,-4.1204,-4.1982,-4.2997,-4.3308,-4.3504,-4.3673,-4.4012,-4.3876,-4.3735,-4.4012,-4.4079,-4.4181,-4.4513,-4.4316,-4.4181,-4.4547,-4.4316,-4.4181,-4.4547,-4.4615,-4.4615,-4.4615,-4.4615,-4.4615,-4.4615,-4.4615,-4.4615,-4.4615,-4.4615,-4.4282,-4.3504,-4.2726,-4.1982,-4.1271,-4.0236,-3.948,-3.9156,-3.7991,-3.7175,-3.6875,-3.5973,-3.5519,-3.5519,-3.5519,-3.6006,-3.7084,-3.6752,-3.6934,-3.7584,-3.8827,-3.9662,-4.0696,-4.0516,-4.0636,-4.1145,-4.0816,0.0,-4.324,-4.329,-4.323,0.0,0.0,0.0,0.0,0.0,0.0,0.0,0.0,0.0,0.0,0.0,0.0,0.0,0.0,0.0,-4.016,-3.8701,-3.7027,-3.4846,-3.3596,-3.2215,-3.0708,-3.1083,-3.1146,-3.0617,-3.2972,-3.4088,-3.3726,-3.6488,-3.7956,-3.8058,-3.9411,-4.0113,-4.0113,-4.0113,-4.0113,-4.0113,-4.0113,-4.0113,-4.0113,-4.0113,-4.0113,-4.0113,-4.0113,-4.0113,-4.0113,-4.0113,-4.0113,-4.0113,-4.0113,-4.0553,-4.1102,-4.117,-4.1644,-4.232,-4.3064,-4.2828,-4.2422,-4.3098,-4.2828,-4.2455,-4.3132,-4.3274,-4.3504,-4.4282,-4.391,-4.3639,-4.4445,-4.4045,-4.3741,-4.4479,-4.4615,-4.4615,-4.4615,-4.4615,-4.4615,-4.4615,-4.4615,-4.4615,-4.4615,-4.4513,-4.4181,-4.3477,-4.2658,-4.1888,-4.1133,-3.9748,-3.858,-3.7851,-3.7024,-3.6291,-3.5651,-3.5522,-3.5519,-3.5519,-3.5683,-3.6445,-3.7793,-3.7174,-3.7613,-3.9043,-3.9765,-4.0113,-4.1422,-4.1175,-4.1085,-4.0696,-4.0487,0.0,-4.0367,-4.024,-4.0546,0.0,0.0,0.0,0.0,0.0,0.0,0.0,0.0,0.0,0.0,0.0,0.0,0.0,0.0,0.0,-3.997,-3.7981,-3.616,-3.4801,-3.2867,-3.1386,-3.0658,-3.1697,-3.1795,-3.065,-3.3637,-3.5045,-3.4488,-3.6754,-3.8193,-3.8802,-3.9673,-4.0113,-4.0113,-4.0113,-4.0113,-4.0113,-4.0113,-4.0113,-4.0113,-4.0113,-4.0113,-4.0113,-4.0113,-4.0113,-4.0113,-4.0113,-4.0113,-4.0113,-4.0113,-4.018,-4.0417,-4.1001,-4.1305,-4.1542,-4.2286,-4.2388,-4.232,-4.2455,-4.2388,-4.232,-4.2489,-4.2523,-4.2692,-4.347,-4.3511,-4.3639,-4.4445,-4.4479,-4.4384,-4.4581,-4.4615,-4.4615,-4.4615,-4.4615,-4.4615,-4.4615,-4.4615,-4.4615,-4.4615,-4.4045,-4.3544,-4.3409,-4.2219,-4.1129,-4.0364,-3.9445,-3.858,-3.7851,-3.7024,-3.6538,-3.6384,-3.5814,-3.5519,-3.5519,-3.6723,-3.7501,-3.7793,-3.8246,-3.8935,-3.9876,-4.0003,-4.0113,-4.1055,-4.0666,-4.0337,-4.0008,-3.9918,0.0,0.0,-3.9918,-4.0187,0.0,0.0,0.0,0.0,0.0,0.0,0.0,0.0,0.0,0.0,0.0,0.0,0.0,0.0,0.0,-3.9065,-3.7115,-3.5152,-3.3219,-3.2014,-3.1035,-3.0256,-3.176,-3.2152,-3.1175,-3.4053,-3.5471,-3.5201,-3.7026,-3.8261,-3.9005,-3.9774,-4.0113,-4.0113,-4.0113,-4.0113,-4.0113,-4.0113,-4.0316,-4.0595,-4.0248,-4.0316,-4.0595,-4.0248,-4.0113,-4.0113,-4.0113,-4.0113,-4.0113,-4.0113,-4.0113,-4.018,-4.0553,-4.0629,-4.0798,-4.1542,-4.1745,-4.1677,-4.1331,-4.1196,-4.1271,-4.1644,-4.1745,-4.2016,-4.3139,-4.3132,-4.3166,-4.4344,-4.4005,-4.3701,-4.4445,-4.4282,-4.4113,-4.4547,-4.3972,-4.3572,-4.3944,-4.3673,-4.3464,-4.3464,-4.3436,-4.324,-4.2895,-4.2185,-4.1444,-4.0695,-3.9226,-3.8189,-3.7822,-3.6692,-3.607,-3.607,-3.5716,-3.5653,-3.6038,-3.7205,-3.7962,-3.8358,-3.9129,-3.9688,-4.0113,-4.0113,-4.0113,-4.1085,-4.0397,-3.9798,-3.9798,-3.9709,-3.9679,0.0,0.0,0.0,0.0,0.0,0.0,0.0,0.0,0.0,0.0,0.0,0.0,0.0,0.0,0.0,0.0,0.0,0.0,-3.7988,-3.631,-3.4413,-3.2041,-3.1599,-3.0909,-2.9854,-3.1599,-3.2332,-3.1711,-3.4258,-3.569,-3.5902,-3.7239,-3.8328,-3.9208,-3.9808,-4.0113,-4.0113,-4.0113,-4.0113,-4.0113,-4.0113,-4.0426,-4.0933,-4.035,-4.0451,-4.0933,-4.035,-4.0113,-4.0113,-4.0113,-4.0113,-4.0113,-4.0113,-4.0113,-4.0113,-4.0113,-4.0113,-4.0214,-4.0798,-4.1001,-4.0865,-4.0282,-4.0113,-4.0248,-4.0832,-4.1001,-4.1339,-4.2658,-4.2625,-4.2625,-4.3904,-4.343,-4.3064,-4.4175,-4.3842,-4.3673,-4.4479,-4.3565,-4.2895,-4.3308,-4.2895,-4.2489,-4.2489,-4.2929,-4.3031,-4.2557,-4.2252,-4.1741,-4.0836,-3.8921,-3.7677,-3.7383,-3.6196,-3.5519,-3.5519,-3.5519,-3.5846,-3.6569,-3.7381,-3.8161,-3.8908,-3.9688,-4.0113,-4.0113,-4.0113,-4.0113,-4.288,-4.2102,-4.1145,-4.1145,-4.0726,-4.0008,-3.8871,0.0,-3.9379,-3.8841,0.0,0.0,0.0,0.0,0.0,0.0,0.0,0.0,0.0,0.0,0.0,0.0,-3.8324,0.0,0.0,-3.578,-3.4488,-3.3778,-3.229,-3.0909,-2.9854,-3.1599,-3.2332,-3.1711,-3.4258,-3.5948,-3.6653,-3.7474,-3.8599,-3.9977,-4.0079,-4.0113,-4.0113,-4.0113,-4.0113,-4.0113,-4.0113,-4.0146,-4.0214,-4.0146,-4.0146,-4.0214,-4.0146,-4.0113,-4.0113,-4.0113,-4.0113,-4.0113,-4.0113,-4.0113,-4.0113,-4.0113,-4.0113,-4.0113,-4.0214,-4.0214,-4.0214,-4.0113,-4.0113,-4.0113,-4.0214,-4.0214,-4.0451,-4.1271,-4.188,-4.2354,-4.2523,-4.3498,-4.4181,-4.3639,-4.3443,-4.3673,-4.4479,-4.4445,-4.4113,-4.3477,-4.3308,-4.3274,-4.3274,-4.2794,-4.2625,-4.3206,-4.2117,-4.0735,-3.9285,-3.8322,-3.7205,-3.5846,-3.5587,-3.5519,-3.5519,-3.5519,-3.5846,-3.6569,-3.7381,-3.8161,-3.8908,-3.9688,-4.0113,-4.0113,-4.0113,-4.0113,0.0,-4.0935,-4.0157,-3.9738,-3.9439,-3.899,-3.8033,-3.8033,-3.8182,-3.7883,0.0,0.0,0.0,0.0,0.0,0.0,-3.7573,0.0,0.0,0.0,0.0,0.0,0.0,0.0,0.0,0.0,-3.4822,-3.2684,-3.1797,-3.0909,-2.9854,-3.1599,-3.2686,-3.2913,-3.5078,-3.6837,-3.8037,-3.8376,-3.9039,-4.0113,-4.0113,-4.0113,-4.0113,-4.0113,-4.0113,-4.0113,-4.0113,-4.035,-4.0696,-4.0282,-4.035,-4.0696,-4.0282,-4.0113,-4.0113,-4.0113,-4.0113,-4.0113,-4.0113,-4.0113,-4.0113,-4.0113,-4.0113,-4.0113,-4.0113,-4.0113,-4.0113,-4.0113,-4.0113,-4.0113,-4.0113,-4.0113,-4.0282,-4.1035,-4.1441,-4.1779,-4.2185,-4.2794,-4.3166,-4.2828,-4.276,-4.2997,-4.3775,-4.3538,-4.3301,-4.3403,-4.3064,-4.276,-4.276,-4.2861,-4.2726,-4.2185,-4.1948,-4.1044,-3.9075,-3.8241,-3.7324,-3.6196,-3.5718,-3.5519,-3.5519,-3.5519,-3.607,-3.7263,-3.7648,-3.8386,-3.961,-3.9927,-4.0113,-4.0113,-4.0113,-3.985,-4.004,0.0,0.0,0.0,0.0,0.0,-3.7109,-3.7178,-3.7332,-3.7605,-3.7674,0.0,0.0,0.0,-3.6756,-3.6711,0.0,-3.5226,0.0,-3.4415,0.0,0.0,0.0,0.0,0.0,0.0,-3.4743,-3.2311,-3.1665,-3.0909,-2.9854,-3.1802,-3.3214,-3.3774,-3.5859,-3.7642,-3.9005,-3.9005,-3.9368,-4.0113,-4.0113,-4.0113,-4.0113,-4.0113,-4.0113,-4.0113,-4.0113,-4.0417,-4.0865,-4.0316,-4.0417,-4.0832,-4.0316,-4.0113,-4.0113,-4.0113,-4.0113,-4.0113,-4.0113,-4.0113,-4.0113,-4.0113,-4.0113,-4.0113,-4.0113,-4.0113,-4.0113,-4.0113,-4.0113,-4.0113,-4.0113,-4.0113,-4.0248,-4.0764,-4.1068,-4.1305,-4.161,-4.2016,-4.2219,-4.2049,-4.2151,-4.2523,-4.3274,-4.2794,-4.2489,-4.3031,-4.2625,-4.2219,-4.2016,-4.2658,-4.2625,-4.1339,-4.1677,-4.1177,-3.9061,-3.8414,-3.7761,-3.6964,-3.6228,-3.5814,-3.5814,-3.5814,-3.6415,-3.7764,-3.7991,-3.8778,-4.0113,-4.0113,-4.0113,-4.0113,-4.0113,-3.9799,0.0,0.0,0.0,-3.8003,0.0,0.0,0.0,0.0,-3.7266,-3.8186,-3.8362,-3.805,-3.699,-3.6798,-3.6165,-3.4126,-3.4307,0.0,0.0,0.0,0.0,0.0,0.0,0.0,0.0,-3.5591,-3.3981,-3.3899,-3.2356,-3.0909,-2.9854,-3.2305,-3.3765,-3.3806,-3.6374,-3.8174,-3.9005,-3.9005,-3.9368,-4.0113,-4.0113,-4.0113,-4.0113,-4.0113,-4.0113,-4.0113,-4.0113,-4.0113,-4.0146,-4.0113,-4.0113,-4.0146,-4.0113,-4.0113,-4.0113,-4.0113,-4.0113,-4.0113,-4.0113,-4.0113,-4.0113,-4.0113,-4.0113,-4.0113,-4.0113,-4.0113,-4.0113,-4.0113,-4.0113,-4.0113,-4.0113,-4.0113,-4.0113,-4.0146,-4.0663,-4.1001,-4.0316,-4.1297,-4.2083,-4.1373,-4.1813,-4.2523,-4.3274,-4.2794,-4.2286,-4.232,-4.232,-4.2049,-4.1339,-4.188,-4.2049,-4.1271,-4.1238,-4.0613,-3.9028,-3.8881,-3.8553,-3.7822,-3.6994,-3.6538,-3.6538,-3.6538,-3.6934,-3.7793,-3.8497,-3.9262,-4.0113,-4.0113,-4.0113,-4.0113,-4.0113,-4.0087,0.0,0.0,-3.5658,-3.563,0.0,0.0,0.0,0.0,0.0,0.0,-3.5597,-3.5317,-3.6064,-3.5422,-3.4536,-3.3806,-3.3674,-3.3386,0.0,0.0,0.0,0.0,0.0,0.0,0.0,0.0,0.0,-3.2367,-3.1402,-3.0557,-2.9829,-3.1838,-3.3488,-3.4496,-3.6668,-3.8417,-3.9715,-3.974,-3.9876,-4.0113,-4.0113,-4.0113,-4.0113,-4.0113,-4.0113,-4.0113,-4.0113,-4.0113,-4.0113,-4.0113,-4.0113,-4.0113,-4.0113,-4.0113,-4.0113,-4.0113,-4.0113,-4.0113,-4.0113,-4.0113,-4.0113,-4.0113,-4.0113,-4.0113,-4.0113,-4.0113,-4.0113,-4.0113,-4.0113,-4.0113,-4.0113,-4.0113,-4.0113,-4.0113,-4.0282,-4.0417,-4.0146,-4.0865,-4.1339,-4.062,-4.1068,-4.1644,-4.1914,-4.1339,-4.1339,-4.2828,-4.347,-4.3538,-4.276,-4.2895,-4.276,-4.2016,-4.1508,-4.0579,-3.9028,-3.8442,-3.8048,-3.7822,-3.7528,-3.7381,-3.7381,-3.7381,-3.7761,-3.8497,-3.8772,-3.9289,-4.0113,-4.0113,-4.0113,-4.0113,-4.0113,-3.9791,-3.4289,-3.4039,0.0,-3.3625,-3.3063,0.0,-3.284,0.0,-3.3147,0.0,0.0,0.0,-3.4817,-3.4438,-3.3828,-3.3005,-3.2826,-3.2516,0.0,-3.1336,0.0,0.0,0.0,-3.399,0.0,-3.4256,-3.3421,-3.1543,-3.1085,-3.0557,-2.9829,-3.1847,-3.3607,-3.4857,-3.7044,-3.8805,-4.0087,-4.0113,-4.0113,-4.0113,-4.0113,-4.0113,-4.0113,-4.0113,-4.0113,-4.0113,-4.0113,-4.0113,-4.0113,-4.0113,-4.0113,-4.0113,-4.0113,-4.0113,-4.0113,-4.0113,-4.0113,-4.0113,-4.0113,-4.0113,-4.0113,-4.0113,-4.0113,-4.0113,-4.0113,-4.0113,-4.0113,-4.0113,-4.0113,-4.0113,-4.0113,-4.0113,-4.0113,-4.0113,-4.0113,-4.0113,-4.0113,-4.046,-4.0663,-4.018,-4.0485,-4.0899,-4.117,-4.0798,-4.0967,-4.2422,-4.3064,-4.3098,-4.232,-4.2455,-4.2354,-4.1576,-4.1068,-4.0415,-3.9401,-3.8887,-3.864,-3.864,-3.833,-3.8189,-3.8189,-3.7966,-3.829,-3.9303,-3.904,-3.9422,-4.0493,-4.0248,-4.0113,-4.0113,-4.0113,-3.9825]},{"header":{"parameterUnit":"m.s-1","parameterCategory":1,"la1":30.6,"la2":29.2853,"lo1":-89.7004,"lo2":-87.6739,"dy":0.0162,"dx":0.0183,"nx":112,"ny":82,"refTime":"2023-06-11T06:00:00:Z","depth":0,"parameterNumber":3,"parameterNumberName":"V-component_of_WINDS"},"data":[0.0,0.0,0.0,0.0,0.0,0.0,0.0,0.0,0.0,0.0,0.0,0.0,0.0,0.0,0.0,0.0,0.0,0.0,0.0,0.0,0.0,0.0,0.0,0.0,0.0,0.0,0.0,0.0,0.0,0.0,0.0,0.0,0.0,0.0,0.0,0.0,0.0,0.0,0.0,0.0,0.0,0.0,0.0,0.0,0.0,0.0,0.0,0.0,0.0,0.0,0.0,0.0,0.0,0.0,0.0,0.0,0.0,0.0,0.0,0.0,0.0,0.0,0.0,0.0,0.0,0.0,0.0,0.0,0.0,0.0,0.0,0.0,0.0,0.0,0.0,0.0,0.0,0.0,0.0,0.0,0.0,0.0,0.0,0.0,0.0,0.0,0.0,0.0,0.0,0.0,-2.2773,-2.38,-2.4649,-2.5237,-2.5611,-2.6283,-2.6865,-2.7359,0.0,0.0,0.0,0.0,0.0,0.0,0.0,0.0,0.0,0.0,0.0,0.0,0.0,0.0,0.0,0.0,0.0,0.0,0.0,0.0,0.0,0.0,0.0,0.0,0.0,0.0,0.0,0.0,0.0,0.0,0.0,0.0,0.0,0.0,0.0,0.0,0.0,0.0,0.0,0.0,0.0,0.0,0.0,0.0,0.0,0.0,0.0,0.0,0.0,0.0,0.0,0.0,0.0,0.0,0.0,0.0,0.0,0.0,0.0,0.0,0.0,0.0,0.0,0.0,0.0,0.0,0.0,0.0,0.0,0.0,0.0,0.0,0.0,0.0,0.0,0.0,0.0,0.0,0.0,0.0,0.0,0.0,0.0,0.0,0.0,0.0,0.0,0.0,0.0,0.0,0.0,0.0,0.0,0.0,0.0,0.0,0.0,0.0,0.0,0.0,0.0,0.0,0.0,0.0,-2.2168,-2.2984,-2.4309,-2.5398,-2.6186,-2.714,-2.771,-2.7729,0.0,0.0,0.0,0.0,0.0,0.0,0.0,0.0,0.0,0.0,0.0,0.0,0.0,0.0,0.0,0.0,0.0,0.0,0.0,0.0,0.0,0.0,0.0,0.0,0.0,0.0,0.0,0.0,0.0,0.0,0.0,0.0,0.0,0.0,0.0,0.0,0.0,0.0,0.0,0.0,0.0,0.0,0.0,0.0,0.0,0.0,0.0,0.0,0.0,0.0,0.0,0.0,0.0,0.0,0.0,0.0,0.0,0.0,0.0,0.0,0.0,0.0,0.0,0.0,0.0,0.0,0.0,0.0,0.0,0.0,0.0,0.0,0.0,0.0,0.0,0.0,0.0,0.0,0.0,0.0,0.0,0.0,0.0,0.0,0.0,0.0,0.0,0.0,0.0,0.0,0.0,0.0,0.0,0.0,0.0,0.0,0.0,0.0,0.0,0.0,0.0,0.0,0.0,-2.3833,-2.3412,-2.2971,-2.4195,-2.5237,-2.5638,-2.7072,-2.7696,-2.7318,-2.8014,0.0,0.0,0.0,0.0,0.0,0.0,0.0,0.0,0.0,0.0,0.0,0.0,0.0,0.0,0.0,0.0,0.0,0.0,0.0,0.0,0.0,0.0,0.0,0.0,0.0,0.0,0.0,0.0,0.0,0.0,0.0,0.0,0.0,0.0,0.0,0.0,0.0,0.0,0.0,0.0,0.0,0.0,0.0,0.0,0.0,0.0,0.0,0.0,0.0,0.0,0.0,0.0,0.0,0.0,0.0,0.0,0.0,0.0,0.0,0.0,0.0,0.0,0.0,0.0,0.0,0.0,0.0,0.0,0.0,0.0,0.0,0.0,0.0,0.0,0.0,0.0,0.0,0.0,0.0,0.0,0.0,0.0,0.0,0.0,0.0,0.0,0.0,0.0,0.0,0.0,0.0,0.0,0.0,0.0,0.0,0.0,0.0,0.0,0.0,0.0,0.0,0.0,-2.4413,-2.4761,-2.3079,-2.4548,-2.5656,-2.5725,-2.7628,-2.8427,-2.7621,-2.9135,0.0,0.0,0.0,0.0,0.0,0.0,0.0,0.0,0.0,0.0,0.0,0.0,0.0,0.0,0.0,0.0,0.0,0.0,0.0,0.0,0.0,0.0,0.0,0.0,0.0,0.0,0.0,0.0,0.0,0.0,0.0,0.0,0.0,0.0,0.0,0.0,0.0,0.0,0.0,0.0,0.0,0.0,0.0,0.0,0.0,0.0,0.0,0.0,0.0,0.0,0.0,0.0,0.0,0.0,0.0,0.0,0.0,0.0,0.0,0.0,0.0,0.0,0.0,0.0,0.0,0.0,0.0,0.0,0.0,0.0,0.0,0.0,0.0,0.0,0.0,0.0,0.0,0.0,0.0,0.0,0.0,0.0,0.0,0.0,0.0,0.0,0.0,0.0,0.0,0.0,0.0,0.0,0.0,0.0,0.0,0.0,0.0,0.0,0.0,0.0,0.0,0.0,-2.4375,-2.5134,-2.3093,-2.5555,-2.7451,-2.7674,-3.0016,-3.0884,-2.9612,-3.0255,0.0,0.0,0.0,0.0,0.0,0.0,0.0,0.0,0.0,0.0,0.0,0.0,0.0,0.0,0.0,0.0,0.0,0.0,0.0,0.0,0.0,0.0,0.0,0.0,0.0,0.0,0.0,0.0,0.0,0.0,0.0,0.0,0.0,0.0,0.0,0.0,0.0,0.0,0.0,0.0,0.0,0.0,0.0,0.0,0.0,0.0,0.0,0.0,0.0,0.0,0.0,0.0,0.0,0.0,0.0,0.0,0.0,0.0,0.0,0.0,0.0,0.0,0.0,0.0,0.0,0.0,0.0,0.0,0.0,0.0,0.0,0.0,0.0,0.0,0.0,0.0,0.0,0.0,0.0,0.0,0.0,0.0,0.0,0.0,0.0,0.0,0.0,0.0,0.0,0.0,0.0,0.0,0.0,0.0,0.0,0.0,0.0,0.0,0.0,0.0,0.0,0.0,-2.4821,-2.5674,-2.5758,-2.6412,-2.7276,-2.8514,-3.0583,-3.1061,-2.919,0.0,0.0,0.0,0.0,0.0,0.0,0.0,0.0,0.0,0.0,0.0,0.0,0.0,0.0,0.0,0.0,0.0,0.0,0.0,0.0,0.0,0.0,0.0,0.0,0.0,0.0,0.0,0.0,0.0,0.0,0.0,0.0,0.0,0.0,0.0,0.0,0.0,0.0,0.0,0.0,0.0,0.0,0.0,0.0,0.0,0.0,0.0,0.0,0.0,0.0,0.0,0.0,0.0,0.0,0.0,0.0,0.0,0.0,0.0,0.0,0.0,0.0,0.0,0.0,0.0,0.0,0.0,0.0,0.0,0.0,0.0,0.0,0.0,0.0,0.0,0.0,0.0,0.0,0.0,0.0,0.0,0.0,0.0,0.0,0.0,0.0,0.0,0.0,0.0,0.0,0.0,0.0,0.0,0.0,0.0,0.0,0.0,0.0,0.0,0.0,0.0,0.0,-2.4814,-2.5566,-2.6599,-2.7439,-2.7825,-2.849,-2.9851,-3.118,-3.1275,-2.9494,0.0,0.0,0.0,0.0,0.0,0.0,0.0,0.0,0.0,0.0,0.0,0.0,0.0,0.0,0.0,0.0,0.0,0.0,0.0,0.0,0.0,0.0,0.0,0.0,0.0,0.0,0.0,0.0,0.0,0.0,0.0,0.0,0.0,0.0,0.0,0.0,0.0,0.0,0.0,0.0,0.0,0.0,0.0,0.0,0.0,0.0,0.0,0.0,0.0,0.0,0.0,0.0,0.0,0.0,0.0,0.0,0.0,0.0,0.0,0.0,0.0,0.0,0.0,0.0,0.0,0.0,0.0,0.0,0.0,0.0,0.0,0.0,0.0,0.0,0.0,0.0,0.0,0.0,0.0,0.0,0.0,0.0,0.0,0.0,0.0,0.0,0.0,0.0,0.0,0.0,0.0,0.0,0.0,0.0,0.0,0.0,0.0,0.0,0.0,0.0,0.0,0.0,-2.5006,-2.6721,-2.8009,-2.7567,-2.9839,-3.1529,-3.1859,-3.21,-3.1797,0.0,0.0,0.0,0.0,0.0,0.0,0.0,0.0,0.0,0.0,0.0,0.0,0.0,0.0,0.0,0.0,0.0,0.0,0.0,0.0,0.0,0.0,0.0,0.0,0.0,0.0,0.0,0.0,0.0,0.0,0.0,0.0,0.0,0.0,0.0,0.0,0.0,0.0,0.0,0.0,0.0,0.0,0.0,0.0,0.0,0.0,0.0,0.0,0.0,0.0,0.0,0.0,0.0,0.0,0.0,0.0,0.0,0.0,0.0,0.0,0.0,0.0,0.0,0.0,0.0,0.0,0.0,0.0,0.0,0.0,0.0,0.0,0.0,0.0,0.0,0.0,0.0,0.0,0.0,0.0,0.0,0.0,0.0,0.0,0.0,0.0,0.0,0.0,0.0,0.0,0.0,0.0,0.0,0.0,0.0,0.0,0.0,0.0,0.0,0.0,0.0,0.0,0.0,-2.655,-2.716,-2.8414,-3.0148,-3.0145,-3.0636,-3.1998,-3.1864,-3.1211,-3.0039,0.0,0.0,0.0,0.0,0.0,0.0,0.0,0.0,0.0,0.0,0.0,0.0,0.0,0.0,0.0,0.0,0.0,0.0,0.0,0.0,0.0,0.0,0.0,0.0,0.0,0.0,0.0,0.0,0.0,0.0,0.0,0.0,0.0,0.0,0.0,0.0,0.0,0.0,0.0,0.0,0.0,0.0,0.0,0.0,0.0,0.0,0.0,0.0,0.0,0.0,0.0,0.0,0.0,0.0,0.0,0.0,0.0,0.0,0.0,0.0,0.0,0.0,0.0,0.0,0.0,0.0,0.0,0.0,0.0,0.0,0.0,0.0,0.0,0.0,0.0,0.0,0.0,0.0,0.0,0.0,0.0,0.0,0.0,0.0,0.0,0.0,0.0,0.0,0.0,0.0,0.0,0.0,0.0,0.0,0.0,0.0,0.0,0.0,0.0,0.0,0.0,0.0,-2.7199,-2.7971,-2.9348,-3.1307,-3.0948,-3.1011,-3.2107,-3.1758,-3.082,-2.916,0.0,0.0,0.0,0.0,0.0,0.0,0.0,0.0,0.0,0.0,0.0,0.0,0.0,0.0,0.0,0.0,0.0,0.0,0.0,0.0,0.0,0.0,0.0,0.0,0.0,0.0,0.0,0.0,0.0,0.0,0.0,0.0,0.0,0.0,0.0,0.0,0.0,0.0,0.0,0.0,0.0,0.0,0.0,0.0,0.0,0.0,0.0,0.0,0.0,0.0,0.0,0.0,0.0,0.0,0.0,0.0,0.0,0.0,0.0,0.0,0.0,0.0,0.0,0.0,0.0,0.0,0.0,0.0,0.0,0.0,0.0,0.0,0.0,0.0,0.0,0.0,0.0,0.0,0.0,0.0,0.0,0.0,0.0,0.0,0.0,0.0,0.0,0.0,0.0,0.0,0.0,0.0,0.0,0.0,0.0,0.0,0.0,0.0,0.0,0.0,0.0,0.0,-2.7207,-2.8867,-3.0488,-3.1367,-3.1816,-3.2051,-3.2051,-3.1641,-3.0508,-2.8418,0.0,0.0,0.0,0.0,0.0,0.0,0.0,0.0,0.0,0.0,0.0,0.0,0.0,0.0,0.0,0.0,0.0,0.0,0.0,0.0,0.0,0.0,0.0,0.0,0.0,0.0,0.0,0.0,0.0,0.0,0.0,0.0,0.0,0.0,0.0,0.0,0.0,0.0,0.0,0.0,0.0,0.0,0.0,0.0,0.0,0.0,0.0,0.0,0.0,0.0,0.0,0.0,0.0,0.0,0.0,0.0,0.0,0.0,0.0,0.0,-2.4886,0.0,0.0,0.0,0.0,0.0,0.0,0.0,0.0,0.0,0.0,0.0,0.0,0.0,0.0,0.0,0.0,0.0,0.0,0.0,0.0,0.0,0.0,0.0,0.0,0.0,0.0,0.0,0.0,0.0,0.0,0.0,0.0,0.0,0.0,0.0,0.0,0.0,0.0,0.0,0.0,0.0,-2.757,-2.8863,-3.0039,-3.0937,-3.1113,-3.1172,-3.1172,-3.0742,-2.9863,-2.8379,-2.7818,0.0,0.0,0.0,0.0,0.0,0.0,0.0,0.0,0.0,0.0,0.0,0.0,0.0,0.0,0.0,0.0,0.0,0.0,0.0,0.0,0.0,0.0,0.0,0.0,0.0,0.0,0.0,0.0,0.0,0.0,0.0,0.0,0.0,0.0,0.0,0.0,0.0,0.0,0.0,0.0,0.0,0.0,0.0,0.0,0.0,0.0,0.0,0.0,0.0,0.0,0.0,0.0,0.0,0.0,0.0,0.0,0.0,0.0,0.0,0.0,-2.6022,0.0,0.0,0.0,0.0,0.0,0.0,0.0,0.0,0.0,0.0,0.0,0.0,0.0,0.0,0.0,0.0,0.0,0.0,0.0,0.0,0.0,0.0,0.0,0.0,0.0,0.0,0.0,0.0,0.0,0.0,0.0,0.0,0.0,0.0,0.0,0.0,0.0,0.0,0.0,0.0,-2.7636,-2.8843,-2.9902,-3.0801,-3.0898,-3.0898,-3.0898,-3.0664,-2.9883,-2.8379,-2.8229,0.0,0.0,0.0,0.0,0.0,0.0,0.0,0.0,0.0,0.0,0.0,0.0,0.0,0.0,0.0,0.0,0.0,0.0,0.0,0.0,0.0,0.0,0.0,0.0,0.0,0.0,0.0,0.0,0.0,0.0,0.0,0.0,0.0,0.0,0.0,0.0,0.0,0.0,0.0,0.0,0.0,0.0,0.0,0.0,0.0,0.0,0.0,0.0,0.0,0.0,0.0,0.0,0.0,-2.0521,-2.1471,-2.2928,-2.3688,-2.4706,-2.5974,-2.7733,-2.8524,-2.8501,-2.7668,0.0,0.0,0.0,0.0,0.0,0.0,0.0,0.0,0.0,0.0,0.0,0.0,0.0,0.0,0.0,0.0,0.0,0.0,0.0,0.0,0.0,0.0,0.0,0.0,-2.9484,-2.8705,-2.8088,0.0,0.0,0.0,0.0,0.0,0.0,0.0,0.0,0.0,0.0,0.0,-2.7656,-2.8711,-2.9766,-3.0566,-3.0664,-3.0664,-3.0664,-3.0664,-3.0094,-2.8753,-2.9188,-2.907,0.0,0.0,0.0,0.0,0.0,0.0,0.0,0.0,0.0,0.0,0.0,0.0,0.0,0.0,0.0,0.0,0.0,0.0,0.0,0.0,0.0,0.0,0.0,0.0,0.0,0.0,0.0,0.0,0.0,0.0,0.0,0.0,-1.0903,-1.1972,0.0,0.0,0.0,0.0,0.0,0.0,0.0,0.0,0.0,0.0,0.0,0.0,0.0,-1.9893,-2.0441,-2.1243,-2.1657,-2.171,-2.2258,-2.2647,-2.297,-2.5723,-2.7049,-2.743,-3.0349,0.0,-2.7216,-2.824,0.0,0.0,0.0,0.0,0.0,0.0,0.0,0.0,0.0,0.0,0.0,0.0,0.0,0.0,0.0,0.0,0.0,0.0,0.0,0.0,0.0,0.0,-2.9525,-3.0651,-3.1135,-3.1496,0.0,-3.0048,-2.8111,-2.8052,-2.8326,-2.8611,0.0,0.0,0.0,0.0,0.0,0.0,-2.7591,-2.8457,-2.9199,-2.9744,-2.9746,-2.9746,-2.9746,-2.9746,-2.9849,-3.0026,-2.9785,-3.0438,-3.2043,-3.0632,0.0,0.0,0.0,0.0,0.0,0.0,0.0,0.0,0.0,0.0,0.0,0.0,0.0,0.0,0.0,0.0,0.0,0.0,0.0,0.0,0.0,0.0,0.0,0.0,0.0,0.0,0.0,0.0,0.0,-1.1597,-0.9961,-1.0591,-1.1455,-1.2141,0.0,0.0,0.0,0.0,0.0,0.0,0.0,0.0,0.0,-2.0802,-2.1122,-2.147,-2.1897,-2.2458,-2.2739,-2.2739,-2.3166,-2.4456,-2.6466,-2.772,-2.9421,-3.1249,-3.2401,-3.1747,-2.9849,-2.9715,-2.916,-2.834,0.0,0.0,0.0,0.0,-2.6367,-2.6289,-2.7207,-2.7402,-2.7226,-2.7129,0.0,0.0,0.0,0.0,0.0,0.0,0.0,-2.7246,0.0,0.0,-3.1306,-3.3052,-3.3617,-3.4107,-3.5274,-3.4257,-3.2419,-3.0202,-3.0046,-3.0166,-2.9927,-2.9226,0.0,0.0,0.0,-2.8985,-3.0121,-3.0789,-3.1082,-3.0744,-3.073,-3.0419,-2.9682,-3.0309,-3.0737,-3.0695,-3.1651,-3.2555,-3.322,-3.2491,-3.2247,0.0,0.0,0.0,0.0,0.0,0.0,0.0,0.0,0.0,0.0,0.0,0.0,0.0,0.0,0.0,0.0,0.0,0.0,0.0,0.0,0.0,0.0,0.0,0.0,0.0,0.0,0.0,0.0,-1.1028,-0.9985,-0.9802,-1.1029,-1.1673,0.0,0.0,0.0,0.0,0.0,0.0,-2.0093,-1.9696,-2.031,-2.2405,-2.2792,-2.3126,-2.342,-2.3661,-2.3781,-2.3781,-2.3928,-2.5655,-2.8756,-2.8907,-3.0644,-3.3532,-3.3345,-3.2851,-3.209,-3.0996,-3.0156,-2.9473,-2.8398,-2.7715,-2.7402,-2.7832,-2.7793,-2.7656,-2.8711,-2.9004,-2.8848,-2.8437,-2.8139,-2.763,-2.6339,0.0,0.0,0.0,0.0,-2.8269,-2.9904,-3.1388,-3.3106,-3.5359,-3.5836,-3.6162,-3.724,-3.7006,-3.5652,0.0,-3.2391,-3.2436,-3.1958,-3.146,0.0,0.0,0.0,-3.0967,-3.2017,-3.2527,-3.2561,-3.1881,-3.1763,-3.1389,-3.0404,-3.1228,-3.1827,-3.1902,-3.3361,-3.4244,-3.4222,-3.4152,-3.3721,-3.2867,0.0,0.0,0.0,0.0,0.0,0.0,0.0,0.0,0.0,0.0,0.0,0.0,0.0,0.0,0.0,0.0,0.0,0.0,0.0,0.0,0.0,0.0,0.0,0.0,0.0,0.0,0.0,0.0,0.0,-1.0283,-1.0825,0.0,0.0,0.0,0.0,-1.4821,-1.5391,-1.7368,-2.1301,-2.1938,-2.2657,-2.3647,-2.4235,-2.4663,-2.497,-2.4983,-2.4997,-2.4983,-2.4716,-2.5597,-2.7647,-2.8579,-3.0123,-3.2041,-3.2581,-3.2578,-3.2129,-3.1641,-3.0703,-2.9531,-2.9043,-2.8594,-2.8281,-2.8711,-2.8848,-2.8887,-2.9375,-2.9258,-2.9043,-2.9824,-2.9258,-2.8242,-2.8164,-2.7285,0.0,0.0,-2.8938,-3.0632,-3.1931,-3.3366,-3.4962,-3.6908,-3.74,-3.7423,-3.7453,-3.672,-3.5958,0.0,-3.5893,-3.5965,-3.534,0.0,-3.279,-3.2814,-3.2151,-3.1667,-3.1735,-3.2062,-3.2325,-3.2246,-3.2246,-3.2246,-3.2145,-3.2196,-3.2801,-3.4164,-3.436,-3.4969,-3.6213,-3.5207,-3.4605,-3.46,-3.2491,0.0,0.0,0.0,0.0,0.0,0.0,0.0,0.0,0.0,0.0,0.0,0.0,0.0,0.0,0.0,0.0,0.0,0.0,0.0,0.0,0.0,0.0,0.0,0.0,0.0,0.0,0.0,0.0,-1.0453,-1.0948,0.0,-1.0399,-1.0473,-1.1547,-1.3846,-1.5913,-1.8382,-2.1224,-2.3151,-2.4369,-2.4877,-2.5277,-2.5451,-2.5358,-2.5358,-2.5264,-2.5077,-2.5716,-2.7018,-2.8978,-2.9987,-3.1468,-3.331,-3.2971,-3.2559,-3.2129,-3.1699,-3.1074,-3.041,-3.0254,-2.9902,-2.957,-3.0019,-3.0,-2.9805,-3.0254,-3.0312,-3.0195,-3.0195,-2.9512,-2.875,-2.9023,-2.8594,-2.8203,-2.9062,-2.9782,-3.0706,-3.2392,-3.392,-3.5446,-3.7086,-3.8243,-3.8921,-3.8921,-3.7661,-3.6672,-3.7118,-3.6113,-3.5208,-3.5444,-3.4984,-3.4582,-3.4582,-3.4356,-3.4292,-3.4678,-3.4824,-3.4605,-3.3773,-3.3674,-3.3304,-3.2381,-3.3155,-3.3871,-3.4385,-3.521,-3.5709,-3.5809,-3.5127,-3.4399,-3.3671,-3.2516,-3.1587,0.0,0.0,0.0,0.0,0.0,0.0,0.0,0.0,0.0,0.0,0.0,0.0,0.0,0.0,0.0,0.0,0.0,0.0,0.0,0.0,0.0,0.0,0.0,0.0,0.0,0.0,-1.0907,-1.0602,-1.1233,-1.1436,-1.0778,-1.0995,-1.1967,-1.3852,-1.6635,-1.9178,-2.13,-2.3806,-2.5317,-2.5504,-2.5798,-2.5812,-2.5518,-2.5518,-2.5371,-2.5152,-2.643,-2.794,-2.9765,-3.0933,-3.231,-3.3809,-3.2949,-3.2344,-3.1914,-3.1484,-3.1133,-3.0898,-3.0898,-3.0703,-3.0469,-3.0781,-3.0703,-3.0449,-3.0605,-3.0664,-3.0586,-3.0137,-2.9609,-2.916,-2.9316,-2.9258,-2.9258,-2.9824,-3.0475,-3.1277,-3.2726,-3.4181,-3.5627,-3.6921,-3.7976,-3.8652,-3.8506,-3.7655,-3.6939,-3.7072,-3.5397,-3.4382,-3.5578,-3.5431,-3.534,-3.5987,-3.5931,-3.6006,-3.6631,-3.6531,-3.6073,-3.5162,-3.5066,-3.4727,-3.3749,-3.4557,-3.4993,-3.4775,-3.5412,-3.5554,-3.4956,-3.465,-3.4022,-3.3136,-3.2315,-3.1411,-3.0331,0.0,0.0,0.0,0.0,0.0,0.0,0.0,0.0,0.0,0.0,0.0,0.0,0.0,0.0,0.0,0.0,0.0,0.0,0.0,0.0,0.0,0.0,0.0,-1.0101,-1.077,-1.107,-1.0792,-1.1667,-1.2006,-1.1267,-1.1801,-1.288,-1.4703,-1.7292,-1.9681,-2.162,-2.4125,-2.5531,-2.5531,-2.5798,-2.5798,-2.5518,-2.5504,-2.5358,-2.5152,-2.6705,-2.8212,-2.9748,-3.116,-3.2384,-3.3359,-3.2519,-3.1914,-3.1484,-3.1055,-3.0898,-3.0898,-3.0898,-3.0898,-3.0898,-3.0898,-3.0879,-3.0801,-3.0351,-3.0176,-3.0117,-2.9707,-2.9626,-2.9492,-2.9062,-2.9238,-2.9626,-2.9646,-3.0909,-3.2434,-3.2952,-3.4181,-3.5482,-3.6444,-3.6668,-3.6578,-3.6105,-3.6578,-3.6773,-3.5521,-3.4143,-3.383,-3.6053,-3.5331,-3.509,-3.6868,-3.6757,0.0,-3.7086,-3.6732,-3.6405,-3.643,-3.6405,-3.6405,-3.643,-3.6405,-3.6107,-3.5508,-3.4956,-3.4449,-3.3897,-3.3872,-3.3621,-3.3068,-3.1964,-3.0859,-2.9804,0.0,0.0,0.0,0.0,0.0,0.0,0.0,0.0,0.0,0.0,0.0,0.0,0.0,0.0,0.0,0.0,0.0,0.0,0.0,0.0,0.0,0.0,-1.0168,-1.0209,-1.0955,-1.1504,-1.1525,-1.1979,-1.221,-1.1999,-1.2223,-1.2609,-1.313,-1.7098,-1.9713,-2.0248,-2.3807,-2.5838,-2.5838,-2.5705,-2.5598,-2.5518,-2.5304,-2.5157,-2.5152,-2.6171,-2.7555,-2.9215,-3.0197,-3.1485,-3.293,-3.207,-3.1621,-3.1484,-3.1055,-3.0898,-3.0898,-3.0898,-3.0898,-3.0898,-3.0898,-3.0684,-3.0371,-3.0234,-3.0,-2.9726,-2.9665,-2.9626,-2.9607,-2.9434,-2.9473,-2.9629,-2.9941,-3.0438,-3.1164,-3.2669,-3.3162,-3.3506,-3.484,-3.5707,-3.6176,-3.6033,-3.5855,-3.594,-3.6505,-3.4416,-3.3365,-3.593,-3.6121,-3.6028,-3.6558,-3.6505,0.0,-3.6606,-3.6505,-3.6556,-3.6958,-3.6656,-3.6581,-3.6983,-3.6232,-3.5483,-3.4931,-3.4424,-3.3872,-3.3319,-3.3294,-3.3043,-3.2466,-3.1763,-3.106,0.0,0.0,0.0,0.0,0.0,0.0,0.0,0.0,0.0,0.0,0.0,0.0,0.0,0.0,0.0,0.0,0.0,0.0,0.0,0.0,0.0,0.0,-1.0107,-1.0582,-1.0643,-1.1212,-1.1694,-1.1904,-1.2142,-1.2338,-1.2461,-1.2549,-1.2651,-1.2773,-1.7066,-1.9693,-1.9785,-2.3592,-2.5772,-2.5772,-2.5491,-2.5277,-2.5144,-2.5104,-2.4957,-2.4777,-2.6769,-2.8132,-2.8921,-3.0696,-3.1897,-3.25,-3.1816,-3.1406,-3.123,-3.0996,-3.0898,0.0,0.0,0.0,0.0,0.0,-3.0586,-3.0176,-3.0,-2.9648,-2.9277,-2.9101,-2.916,-2.9258,-2.9082,-2.9277,-2.9646,-2.9648,-2.9785,-3.0207,-3.1349,-3.1431,-3.1554,-3.2814,-3.3487,-3.3999,-3.4356,-3.4654,-3.511,-3.5893,-3.4968,0.0,-3.6096,-3.5906,-3.5837,-3.6611,-3.6556,-3.648,-3.6732,-3.6556,-3.6531,-3.6857,-3.6606,-3.6531,-3.6857,-3.6056,0.0,0.0,0.0,-3.3194,-3.239,-3.2164,0.0,0.0,0.0,-3.0809,-3.0256,0.0,0.0,0.0,-3.0608,-3.1009,0.0,0.0,0.0,0.0,0.0,0.0,0.0,0.0,0.0,0.0,0.0,0.0,0.0,0.0,0.0,0.0,-1.0516,-1.1023,-1.1165,-1.145,-1.1748,-1.2026,-1.221,-1.2427,-1.2705,-1.2745,-1.2954,-1.3552,-1.7333,-1.9814,-2.0179,0.0,0.0,0.0,0.0,-2.4903,-2.4562,-2.4903,-2.4756,-2.4268,-2.7731,-2.9094,-2.8692,-3.1607,-3.2665,-3.2148,-3.166,-3.123,-3.0898,-3.0898,-3.0898,-3.0898,-3.0898,-3.0859,-3.082,-3.082,-3.0488,-3.0,-2.9629,0.0,0.0,-2.8418,-2.8535,-2.8769,-2.8398,-2.8828,-2.9355,-2.9004,-2.9199,-2.9512,-2.9607,-2.9531,-2.9727,-3.0591,-3.0819,-3.1127,-3.1936,-3.3304,-3.4385,-3.4385,-3.5475,-3.6405,-3.6405,-3.5427,-3.5187,-3.6866,-3.6732,-3.6581,-3.7036,-3.6707,-3.643,-3.648,0.0,0.0,-3.6505,-3.583,-3.5182,-3.463,-3.3596,-3.2491,-3.1436,-3.1009,-3.0733,-3.0608,-3.0608,-3.0357,-2.9804,-2.9804,-3.008,-3.0608,-3.0608,-3.116,0.0,0.0,0.0,0.0,0.0,0.0,0.0,0.0,0.0,0.0,0.0,0.0,0.0,0.0,0.0,-1.0175,-1.0731,-1.1172,-1.1328,-1.1599,-1.1857,-1.204,-1.2298,-1.2528,-1.2712,-1.284,-1.3698,-1.5643,-1.8126,-2.03,-2.2032,-2.4073,-2.5157,-2.5157,-2.4877,-2.469,-2.4636,-2.469,-2.4543,-2.4195,0.0,0.0,-2.8675,-2.9712,-3.0958,-3.219,-3.1348,-3.0957,-3.0898,-3.0898,-3.0898,-3.0898,-3.0898,-3.0664,-3.0332,-3.0332,-2.9844,-2.916,-2.9062,-2.8769,-2.8398,-2.832,-2.834,-2.8398,-2.832,-2.8418,0.0,-2.8848,-2.8984,-2.9121,-2.9473,-2.9316,-2.9078,-2.9253,-2.9901,-3.0485,-3.0639,-3.2655,-3.4385,-3.4385,-3.5475,-3.6405,-3.6405,-3.6168,-3.6146,-3.6508,-3.648,-3.6455,-3.6556,-3.648,-3.6581,-3.6985,-3.6681,-3.6581,-3.6985,-3.5705,-3.465,-3.4098,-3.3018,-3.2089,-3.1411,-3.1712,-3.1486,-3.0633,-3.0608,-3.0357,-2.9804,-2.9804,-3.008,-3.0608,-3.0608,-3.0959,0.0,0.0,0.0,0.0,0.0,0.0,0.0,0.0,0.0,0.0,0.0,-0.8686,0.0,0.0,-0.8988,-1.0303,-1.0873,-1.1212,-1.1369,-1.1714,-1.1972,-1.2054,-1.2325,-1.2589,-1.282,-1.2983,-1.3612,-1.4817,-1.7789,-1.9961,-2.1072,-2.3666,-2.5077,-2.5077,-2.4796,-2.4636,-2.4636,-2.4636,-2.4422,-2.4053,-2.6508,-2.7936,-2.8478,-3.0131,-3.1336,-3.2129,-3.1269,-3.0898,-3.0898,-3.0898,-3.0898,-3.0898,-3.0898,-3.0605,-3.0195,-3.0195,-2.9648,-2.8926,-2.8926,-2.8652,-2.8301,-2.8301,-2.8301,-2.8301,-2.8301,-2.8301,-2.834,-2.8555,-2.8613,-2.8652,-2.8867,-2.8769,-2.8613,-2.8613,-2.8953,-2.946,-3.0172,-3.1389,-3.2755,-3.4117,-3.4921,-3.5619,-3.6263,-3.6405,-3.6405,-3.6405,-3.6405,-3.6405,-3.6405,-3.6405,-3.6505,-3.6782,-3.6581,-3.6405,-3.6358,-3.5102,-3.4073,-3.352,-3.2692,-3.1964,-3.1411,-3.1411,-3.1035,-3.0231,-3.0206,-3.0055,-2.9804,-2.9804,-3.008,-3.0608,-3.0608,-3.0884,0.0,0.0,0.0,0.0,0.0,0.0,0.0,0.0,-1.0103,-0.9245,-0.7807,-0.7348,-0.9477,-0.8584,-0.8214,-1.0359,-1.0989,-1.1226,-1.1409,-1.1796,-1.2149,-1.2176,-1.2366,-1.2644,-1.2895,-1.3468,-1.4016,-1.4519,-1.7923,-2.0185,-2.0537,-2.3401,-2.4997,-2.4997,-2.4756,-2.4636,-2.4636,-2.4636,-2.4369,-2.3919,-2.7354,-2.8755,-2.8378,-3.099,-3.2229,-3.2129,-3.1269,-3.0898,-3.0898,-3.0898,-3.0898,-3.0879,-3.0801,-3.0469,-3.0078,-3.0078,-2.959,-2.8906,-2.8828,-2.8574,-2.8301,-2.8301,-2.8301,-2.8301,-2.8301,-2.8301,-2.8301,-2.8301,-2.8301,-2.8301,-2.8301,-2.8301,-2.8301,-2.8301,-2.8301,-2.8601,-2.967,-3.0328,-3.1338,-3.3575,-3.4434,-3.5114,-3.6216,-3.6405,-3.6405,-3.6405,-3.6405,-3.6405,-3.6405,-3.6329,-3.6207,-3.6207,-3.6153,-3.583,-3.5232,-3.4399,-3.3671,-3.3119,-3.2641,-3.2089,-3.1411,-3.0984,-3.0457,-2.9804,-2.9804,-2.9804,-2.9804,-2.9804,-3.003,-3.0457,-3.0457,-3.0733,-3.1834,-2.7989,-2.3532,-2.1139,-1.8331,-1.5769,0.0,0.0,-1.1121,-0.9919,-0.8515,-0.8064,-0.9899,-0.8858,-0.8437,-1.053,-1.1056,-1.126,-1.1552,-1.1864,-1.2115,-1.225,-1.2522,-1.2718,-1.2752,-1.4754,-1.6719,-1.8454,-2.07,-2.2716,-2.4415,-2.4565,-2.469,-2.469,-2.4649,-2.4636,-2.4636,-2.4636,-2.4476,-2.4227,-2.7462,-2.8818,-2.8676,-3.1102,-3.2229,-3.2129,-3.1269,-3.0898,-3.0898,-3.0898,-3.0898,-3.0859,-3.043,-3.0019,-2.9704,-2.9704,-2.9336,-2.8867,-2.8496,-2.834,-2.8301,-2.8301,-2.8301,-2.8301,-2.8301,-2.8301,-2.8301,-2.8301,-2.8301,-2.8301,-2.8301,-2.8301,-2.8301,-2.8301,-2.8301,-2.8335,-2.8495,-3.0411,-3.218,-3.2482,-3.4508,-3.6216,-3.6358,-3.6405,-3.6405,-3.6405,-3.6405,-3.6405,-3.6405,-3.5931,-3.5583,-3.5583,-3.5157,-3.4675,-3.4123,-3.3972,-3.3671,-3.3119,-3.3061,-3.2491,-3.1436,-3.1336,-3.0834,-2.9804,-2.9804,-2.9804,-2.9804,-2.9804,-2.9829,-2.988,-2.988,-3.0181,-2.8431,-2.5053,-2.1939,-1.9878,-1.759,-1.5842,-1.5737,-1.4501,-1.2985,-1.1848,-1.0266,-0.9042,-0.8887,-0.8296,-0.8141,0.0,-1.044,-1.1301,-1.1687,-1.1925,-1.2149,-1.2386,-1.2603,-1.2766,-1.2854,-1.496,-1.6584,-1.7376,-2.028,-2.2336,-2.3152,-2.4113,-2.4636,-2.4636,-2.4636,-2.4636,-2.4636,-2.4636,-2.4409,-2.4026,-2.7385,-2.8804,-2.8428,-3.1027,-3.1894,-3.1406,-3.1055,-3.0898,-3.0859,-3.0605,-3.0488,-3.0449,-3.0,-2.9726,-2.9607,-2.9277,-2.8926,-2.8535,-2.8359,-2.8301,-2.8301,-2.8301,-2.8301,-2.8301,-2.8301,-2.8301,-2.8301,-2.8301,-2.8301,-2.8301,-2.8301,-2.8301,-2.8301,-2.8301,-2.8301,-2.8301,-2.8301,-2.9197,-3.0224,-3.0979,-3.2682,-3.4289,-3.5066,-3.5858,-3.6405,-3.6405,-3.6405,-3.6405,-3.6405,-3.5881,-3.5382,-3.5056,-3.4575,-3.4148,-3.3922,-3.3596,-3.3169,-3.2616,-3.2893,-3.2441,-3.1009,-3.1235,-3.0884,-2.9804,-2.9804,-2.9804,-2.9804,-2.9804,-2.9804,-2.9804,-2.9804,-2.9905,-2.4762,-2.2264,-2.0526,-1.8701,-1.7277,-1.6532,-1.7273,-1.6401,-1.5056,-1.3837,-1.1815,-0.9914,-0.8762,-0.8133,-0.8075,-0.8917,-1.0266,-1.1369,-1.1775,-1.1999,-1.2216,-1.2474,-1.2637,-1.301,-1.367,-1.5721,-1.7226,-1.7728,-2.0869,-2.2685,-2.2685,-2.3877,-2.4636,-2.4636,-2.4636,-2.4636,-2.4636,-2.4636,-2.4382,-2.3959,-2.6883,-2.8248,-2.8213,-3.0823,-3.1582,-3.0898,-3.0898,-3.0898,-3.0859,-3.0391,-3.0195,-3.0137,-2.959,-2.9394,-2.9336,-2.8906,-2.8633,-2.8437,-2.834,-2.8301,-2.8301,-2.8301,-2.8301,-2.8301,-2.8301,-2.8301,-2.8301,-2.8301,-2.8301,-2.8301,-2.8301,-2.8301,-2.8301,-2.8301,-2.8301,-2.8301,-2.8301,-2.8601,-2.9144,-3.012,-3.1367,-3.2733,-3.419,-3.5235,-3.5953,-3.6358,-3.6405,-3.6355,-3.6157,-3.5529,-3.4831,-3.4324,-3.3897,-3.3596,-3.3445,-3.3068,-3.2591,-3.2014,-3.239,-3.2014,-3.0683,-3.0984,-3.0733,-2.9804,-2.9804,-2.9804,-2.9804,-2.9804,-2.9804,-2.9804,-2.9804,-2.9804,-2.194,-2.0303,-1.9527,-1.8094,-1.7994,-1.8488,-1.9542,-1.8561,-1.7024,-1.5555,-1.2628,-1.0426,-1.0415,-0.8986,-0.8475,-1.0489,-1.1123,-1.1491,-1.1789,-1.2094,-1.2338,-1.2481,-1.2637,-1.3512,0.0,-1.7792,-1.986,-2.1708,-2.377,-2.5002,-2.5002,-2.4722,-2.4636,-2.4636,-2.4636,-2.4636,-2.4636,-2.4636,-2.4489,-2.4182,-2.5753,-2.7037,-2.8065,-3.0482,-3.1309,-3.0898,-3.0898,-3.0898,-3.0859,-3.0391,-3.0195,-3.0117,-2.9277,-2.8945,-2.8887,-2.8476,-2.8555,-2.8848,-2.8437,-2.8301,-2.8301,-2.8301,-2.8301,-2.8301,-2.8301,-2.8301,-2.8301,-2.8301,-2.8301,-2.8301,-2.8301,-2.8301,-2.8301,-2.8301,-2.8301,-2.8301,-2.8301,-2.9303,-3.0255,-3.0276,-3.1367,-3.2733,-3.419,-3.4434,-3.4872,-3.6216,-3.6405,-3.6182,-3.5583,-3.4625,-3.3746,-3.3237,-3.3119,-3.2867,-3.2315,-3.224,-3.2014,-3.1461,-3.1436,-3.1185,-3.0633,-3.0633,-3.0357,-2.9804,-2.9804,-2.9804,-2.9804,-2.9804,-2.9804,-2.9804,-2.9804,-2.9804,-1.7935,-1.7203,-1.7357,-1.7524,-1.8763,-2.0384,-2.2368,-2.261,-2.2081,-2.091,-1.8398,-1.5455,-1.2336,-1.1031,-1.0092,-0.899,-1.0385,-1.1681,-1.2081,-1.2481,-1.2718,-1.2657,-1.3949,0.0,0.0,0.0,0.0,-2.1685,-2.3845,-2.5077,-2.5077,-2.4983,-2.493,-2.493,-2.4743,-2.4636,-2.4636,-2.4449,-2.4209,-2.3973,-2.6095,-2.7719,-2.8772,-3.0638,-3.1289,-3.0879,-3.0566,-3.043,-3.0371,-2.9648,-2.9355,-2.9297,-2.873,-2.8496,-2.8496,-2.834,-2.8379,-2.8476,-2.834,-2.8301,-2.8301,-2.8301,-2.8301,-2.8301,-2.8301,-2.8301,-2.8301,-2.8301,-2.8301,-2.8301,-2.8301,-2.8301,-2.8301,-2.8301,-2.8301,-2.8301,-2.8301,-2.8654,-2.8953,-2.8953,-3.0068,-3.144,-3.2755,-3.3773,-3.4703,-3.5669,-3.5805,-3.5629,-3.5031,-3.4349,-3.3696,-3.3187,-3.2742,-3.2416,-3.224,-3.1863,-3.1436,-3.0909,-3.121,-3.0984,-3.0105,-3.0407,-3.0357,-2.9804,-2.9804,-2.9804,-2.9804,-2.9804,-2.9804,-2.9804,-2.9804,-2.9804,-1.5101,-1.5,-1.5753,-1.7158,-1.9873,-2.2823,-2.511,-2.645,-2.6839,-2.5545,-2.289,-1.9562,-1.5333,-1.3364,-1.1708,-0.9602,-1.0435,-1.1572,-1.2128,-1.2501,-1.2766,-1.2874,-1.4867,-1.6932,0.0,0.0,0.0,-2.2849,-2.4402,-2.5237,-2.5237,-2.5144,-2.5077,-2.5077,-2.4796,-2.4636,-2.4636,-2.4342,-2.3955,-2.3504,-2.6059,-2.7567,-2.8193,-3.0298,-3.1152,-3.0859,-3.0391,-3.0195,-3.0137,-2.9277,-2.8926,-2.8887,-2.8457,-2.8301,-2.8301,-2.8301,-2.8301,-2.8301,-2.8301,-2.8301,-2.8301,-2.8301,-2.8301,-2.8301,-2.8301,-2.8301,-2.8301,-2.8301,-2.8301,-2.8301,-2.8301,-2.8301,-2.8301,-2.8301,-2.8301,-2.8301,-2.8301,-2.8301,-2.8301,-2.8301,-2.9006,-3.0172,-3.1977,-3.3848,-3.5184,-3.5444,-3.5332,-3.5006,-3.45,-3.3947,-3.347,-3.3162,-3.2566,-3.2139,-3.1938,-3.1411,-3.0884,-3.0357,-3.0633,-3.0507,-2.9829,-3.0131,-3.0156,-2.9804,-2.9804,-2.9804,-2.9804,-2.9804,-2.9804,-2.9804,-2.9804,-2.9804,-1.3284,-1.3625,-1.4823,-1.7131,-2.1386,-2.5633,-2.7865,-3.0028,-3.1025,-2.9302,-2.6118,-2.2599,0.0,0.0,-1.3156,-1.2184,-1.1424,-1.126,-1.2006,-1.2257,-1.2576,0.0,0.0,0.0,0.0,0.0,0.0,-2.5006,0.0,-2.5531,-2.5531,-2.5277,-2.5117,-2.5104,-2.481,-2.4649,-2.4609,-2.4315,-2.3701,-2.2874,-2.5612,-2.6687,-2.6463,-2.9521,-3.0898,-3.0859,-3.0371,-3.0156,-3.0098,-2.9238,-2.8887,-2.8848,-2.8437,-2.8301,-2.8301,-2.8301,-2.8301,-2.8301,-2.8301,-2.8301,-2.8301,-2.8301,-2.8301,-2.8301,-2.8301,-2.8301,-2.8301,-2.8301,-2.8301,-2.8301,-2.8301,-2.8301,-2.8301,-2.8301,-2.8301,-2.8301,-2.8301,-2.8301,-2.8301,-2.8301,-2.8368,-2.9262,-3.1882,-3.4582,-3.6081,-3.5508,-3.4981,-3.45,-3.3972,-3.342,-3.3111,-3.3086,-3.2516,-3.1938,-3.1386,-3.0884,-3.0357,-2.9829,-2.9804,-2.9804,-2.9804,-2.9804,-2.9804,-2.9804,-2.9804,-2.9804,-2.9804,-2.9804,-2.9804,-2.9804,-2.9804,-2.9804,-0.9372,-1.1737,-1.5183,-1.9068,-2.2719,-2.6536,-3.0989,-3.2613,-3.3273,-3.3412,-3.0002,-2.5907,0.0,0.0,0.0,-1.2281,-1.1893,0.0,-1.2644,-1.3146,0.0,-1.3505,0.0,-1.942,-1.9695,-2.325,0.0,0.0,-2.5798,-2.5838,-2.5838,-2.5772,-2.5625,-2.5411,-2.5117,-2.4756,-2.4315,-2.3808,-2.31,-2.2271,-2.5396,-2.6619,-2.6239,-2.945,-3.0898,-3.084,-3.0078,-2.9726,-2.9668,-2.8809,-2.8457,-2.8437,-2.834,-2.8301,-2.8301,-2.8301,-2.8301,-2.8301,-2.8301,-2.8301,-2.8301,-2.8301,-2.8301,-2.8301,-2.8301,-2.8301,-2.8301,-2.8301,-2.8301,-2.8301,-2.8301,-2.8301,-2.8301,-2.8301,-2.8301,-2.8301,-2.8301,-2.8301,-2.8301,-2.8301,-2.9591,-3.1246,-3.2922,-3.4285,-3.4951,-3.4399,-3.4198,-3.4048,-3.3922,-3.342,-3.2918,-3.2491,-3.1938,-3.1386,-3.0859,-3.0306,-2.9955,-2.9804,-2.9804,-2.9804,-2.9804,-2.9804,-2.9804,-2.9804,-2.9804,-2.9804,-2.9804,-2.9804,-2.9804,-2.9804,-2.9804,-2.9804,-1.0012,-1.3021,-1.6681,-2.1294,-2.5033,-2.8583,-3.2237,-3.4342,-3.5542,-3.5499,-3.2508,-2.888,-2.546,-2.0897,0.0,0.0,0.0,0.0,-1.2725,-1.3119,-1.3853,0.0,-1.8388,0.0,-2.1627,-2.4802,-2.6653,0.0,-2.6226,-2.6092,-2.6037,-2.6037,-2.5825,-2.5518,-2.5237,-2.5086,-2.5199,-2.4708,-2.4399,-2.4287,-2.682,-2.7689,-2.7134,-2.9726,-3.0898,-3.084,0.0,-2.9626,-2.9512,-2.8652,-2.8301,-2.8301,-2.8301,-2.8301,-2.8301,-2.8301,-2.8301,-2.8301,-2.8301,-2.8301,-2.8301,-2.8301,-2.8301,-2.8301,-2.8301,-2.8301,-2.8301,-2.8301,-2.8301,-2.8301,-2.8301,-2.8301,-2.8301,-2.8301,-2.8301,-2.8301,-2.8301,-2.8301,-2.8301,-2.8301,-3.0053,-3.1806,-3.2771,-3.3928,-3.4625,-3.4299,-3.4048,-3.3796,-3.3571,-3.3269,-3.2842,-3.2265,-3.1712,-3.1185,-3.0658,-3.0105,-2.9804,-2.9804,-2.9804,-2.9804,-2.9804,-2.9804,-2.9804,-2.9804,-2.9804,-2.9804,-2.9804,-2.9804,-2.9804,-2.9804,-2.9804,-2.9804,-1.2881,-1.5906,-1.9099,-2.3691,-2.7613,-3.0846,-3.281,-3.5473,-3.7209,-3.6279,-3.3992,-3.1241,-2.8421,-2.4164,-1.9889,-1.6291,0.0,-1.4011,-1.2863,-1.3154,-1.4475,-1.7027,-1.9543,-2.1874,-2.3867,-2.6077,-2.7201,-2.6907,-2.6613,-2.6319,-2.6104,-2.6012,-2.6007,-2.59,-2.5479,-2.5747,-2.6783,-2.636,-2.6479,-2.709,-2.8674,-2.9069,-2.8468,-3.0081,-3.0801,-3.0762,-2.9863,-2.9492,-2.9414,-2.8613,-2.8301,-2.8301,-2.8301,-2.8301,-2.8301,-2.8301,-2.8301,-2.8301,-2.8301,-2.8301,-2.8301,-2.8301,-2.8301,-2.8301,-2.8301,-2.8301,-2.8301,-2.8301,-2.8301,-2.8301,-2.8301,-2.8301,-2.8301,-2.8301,-2.8301,-2.8301,-2.8301,-2.8301,-2.8335,-2.8548,-3.0001,-3.1429,-3.2051,-3.3387,-3.4329,-3.4329,-3.4015,-3.3621,-3.3187,-3.3061,-3.2742,-3.2164,-3.1612,-3.1085,-3.0557,-3.0055,-2.9804,-2.9804,-2.9804,-2.9804,-2.9804,-2.9804,-2.9804,-2.9804,-2.9804,-2.9804,-2.9804,-2.9804,-2.9804,-2.9804,-2.9804,-2.9804,-1.3705,-1.7826,-2.2071,-2.6095,-2.8835,-3.1553,-3.5461,-3.6414,0.0,0.0,-3.4799,-3.1941,-2.9347,-2.4863,-2.1008,-1.9292,-1.8042,-1.6748,-1.5224,-1.5634,-1.6508,0.0,-1.976,-2.2096,-2.438,-2.6401,0.0,0.0,-2.6921,-2.6613,-2.6333,-2.6319,-2.6831,-2.783,-2.6793,-2.7019,-2.8688,-2.7765,-2.7182,-2.709,-2.8412,-2.8817,-2.8468,-2.9756,-3.0312,-3.0273,-2.9414,0.0,-2.8984,-2.8496,-2.8301,-2.8301,-2.8301,-2.8301,-2.8301,-2.8301,-2.8301,-2.8301,-2.8301,-2.8301,-2.8301,-2.8301,-2.8301,-2.8301,-2.8301,-2.8301,-2.8301,-2.8301,-2.8301,-2.8301,-2.8301,-2.8301,-2.8301,-2.8301,-2.8301,-2.8301,-2.8301,-2.8301,-2.8654,-2.9755,-2.9899,-3.0242,-3.1406,-3.2065,-3.2378,-3.2378,-3.2862,-3.3237,-3.3136,-3.2667,-3.2164,-3.1587,-3.106,-3.0532,-2.998,-2.9854,-2.9804,-2.9804,-2.9804,-2.9804,-2.9804,-2.9804,-2.9804,-2.9804,-2.9804,-2.9804,-2.9804,-2.9804,-2.9804,-2.9804,-2.9804,-2.9804,-1.6531,-2.1057,-2.5548,-2.8287,-3.0906,-3.3206,-3.4913,0.0,0.0,0.0,-3.3358,-3.1453,-2.9656,-2.6346,0.0,-2.1523,-1.994,-1.8138,-1.6127,-1.6089,0.0,-1.9108,-2.0478,-2.26,0.0,-2.714,-2.7415,-2.7281,-2.6854,-2.6466,-2.6186,-2.5879,-2.6544,-2.8342,-2.712,-2.7724,-3.0615,-2.9474,-2.9175,-2.9741,-3.0092,-3.0043,-2.9707,-3.0045,-3.0195,-3.0156,-2.9297,-2.8926,-2.8887,-2.8457,-2.8301,-2.8301,-2.8301,-2.8301,-2.8301,-2.8301,-2.8301,-2.8301,-2.8301,-2.8301,-2.8301,-2.8301,-2.8301,-2.8301,-2.8301,-2.8301,-2.8301,-2.8301,-2.8301,-2.8301,-2.8301,-2.8301,-2.8301,-2.8301,-2.8301,-2.8301,-2.8301,-2.8301,-2.8495,-2.9164,-2.9405,-3.0003,-3.1628,-3.2129,-3.255,-3.3238,-3.3424,-3.3395,-3.3162,-3.2566,-3.1989,-3.1461,-3.116,-3.0683,-2.9854,-2.9804,-2.9804,-2.9804,-2.9804,-2.9804,-2.9804,-2.9804,-2.9804,-2.9804,-2.9804,-2.9804,-2.9804,-2.9804,-2.9804,-2.9804,-2.9804,-2.9804,-2.0153,-2.4585,-2.882,-3.0753,-3.3077,-3.4795,-3.4537,-3.4347,0.0,-3.2833,-3.1865,-3.097,-3.0165,-2.7908,-2.5611,0.0,-2.1976,-1.9836,-1.7712,-1.7216,-1.8242,0.0,-2.1757,0.0,-2.7799,-2.7752,0.0,-2.7268,-2.7132,-2.6877,-2.6644,-2.6123,-2.6912,-2.9291,-2.8239,-2.9135,-3.2338,-3.1194,-3.1146,-3.2168,-3.1641,-3.1211,-3.0879,-3.041,-3.0137,-3.0019,-2.9258,-2.8867,-2.8769,-2.8437,-2.8301,-2.8301,-2.8301,-2.8301,-2.8301,-2.8301,-2.8301,-2.8301,-2.8301,-2.8301,-2.8301,-2.8301,-2.8301,-2.8301,-2.8301,-2.8301,-2.8301,-2.8301,-2.8301,-2.8301,-2.8301,-2.8301,-2.8301,-2.8301,-2.8301,-2.8301,-2.8301,-2.8301,-2.8301,-2.8301,-2.9019,-3.0143,-3.1607,-3.2446,-3.3215,-3.4111,-3.407,-3.3696,-3.3144,-3.2692,-3.219,-3.1637,-3.1361,-3.0884,-3.003,-2.9854,-2.9804,-2.9804,-2.9804,-2.9804,-2.9804,-2.9804,-2.9804,-2.9804,-2.9804,-2.9804,-2.9804,-2.9804,-2.9804,-2.9804,-2.9804,-2.9804,-2.4052,-2.7824,-3.1298,-3.3974,-3.5011,-3.568,-3.6646,0.0,-3.354,-3.2763,-3.1865,-3.1325,-3.1701,-2.9148,-2.7127,-2.7513,0.0,-2.3018,-2.2039,-2.1648,-2.2055,-2.3698,0.0,0.0,-2.7968,-2.7856,0.0,-2.7281,-2.8239,-2.8694,-2.8512,-2.8264,-2.9477,-3.2456,-3.1817,-3.2217,-3.3863,-3.2665,-3.2085,-3.2209,-3.1328,-3.0937,-3.0879,-3.041,-2.998,-2.9609,-2.9121,-2.8711,0.0,-2.832,-2.8301,-2.8301,-2.8301,-2.8301,-2.8301,-2.8301,-2.8301,-2.8301,-2.8301,-2.8301,-2.8301,-2.8301,-2.8301,-2.8301,-2.8301,-2.8301,-2.8301,-2.8301,-2.8301,-2.8301,-2.8301,-2.8301,-2.8301,-2.8301,-2.8301,-2.8301,-2.8301,-2.8301,-2.8301,-2.8301,-2.9315,-3.0265,-3.0463,-3.2131,-3.3292,-3.2957,-3.3437,-3.3696,-3.3144,-3.3043,-3.2767,-3.219,-3.126,-3.0658,-3.0557,-3.008,-2.9804,-2.9804,-2.9804,-2.9804,-2.9804,-2.9804,-2.9804,-2.9804,-2.9804,-2.9804,-2.9804,-2.9804,-2.9804,-2.9804,-2.9804,-2.9804,-2.5666,-2.9404,-3.3141,-3.5017,-3.5208,-3.5277,-3.6171,0.0,-3.214,-3.1538,-3.0786,-3.0307,-3.0505,-2.854,-2.7062,-2.7613,0.0,0.0,-2.236,-2.1229,-2.1118,-2.3095,-2.3517,0.0,0.0,0.0,-2.7798,-2.8474,-2.8758,-2.9851,-3.2,-3.077,-3.0927,-3.2979,-3.2259,-3.2485,-3.3691,-3.2676,-3.2031,-3.1777,-3.1172,-3.0742,-3.0449,-3.0019,-2.959,-2.916,-2.873,-2.8437,0.0,-2.8301,-2.8301,-2.8301,-2.8301,-2.8301,-2.8301,-2.8301,-2.8301,-2.8301,-2.8301,-2.8301,-2.8301,-2.8301,-2.8301,-2.8301,-2.8301,-2.8301,-2.8301,-2.8301,-2.8301,-2.8301,-2.8301,-2.8301,-2.8301,-2.8301,-2.8301,-2.8301,-2.8301,-2.8301,-2.8301,-2.8301,-2.9355,-3.0566,-3.1367,-3.2944,-3.4031,-3.3934,-3.4209,-3.4073,-3.3194,-3.3111,-3.2993,-3.2767,-3.2039,-3.1436,-3.111,-3.0583,-3.0281,-3.0281,-2.998,-2.9804,-2.9804,-2.9804,-2.9804,-2.9804,-2.9804,-2.9804,-2.9804,-2.9804,-2.9804,-2.9804,-2.9804,-2.9804,-2.7316,-3.0793,-3.4409,-3.679,-3.6251,-3.5339,0.0,0.0,-3.0836,-2.9756,-2.9397,-2.9273,-2.9436,-2.8183,-2.7285,-2.7938,0.0,-2.4048,-2.3365,-2.2044,-2.1669,0.0,0.0,-2.4539,0.0,-2.7962,-2.8504,-2.9338,-3.0114,-3.1721,-3.4144,-3.3126,-3.2772,-3.3463,-3.274,-3.2636,-3.3242,-3.2402,-3.1816,-3.1504,-3.0957,-3.0508,-3.0176,-2.9766,-2.9336,-2.8906,-2.8613,-2.8183,0.0,-2.8121,-2.8067,-2.7672,-2.8121,-2.8301,-2.8301,-2.8301,-2.8301,-2.8301,-2.8301,-2.8301,-2.8301,-2.8301,-2.8301,-2.8301,-2.8301,-2.8301,-2.8301,-2.8301,-2.8301,-2.8301,-2.8301,-2.8301,-2.8301,-2.8301,-2.8301,-2.8301,-2.8301,-2.8301,-2.8301,-2.8301,-2.9547,-3.1011,-3.2107,-3.3515,-3.46,-3.4869,-3.47,-3.4198,-3.342,-3.3212,-3.3111,-3.3111,-3.2393,-3.1836,-3.1646,-3.1135,-3.0783,-3.0633,-3.0256,-2.9955,-2.9804,-2.9804,-2.9804,-2.9804,-2.9804,-2.9804,-2.9804,-2.9804,-2.9804,-2.9804,-2.9804,-2.9804,-2.9435,-3.2189,-3.5149,-4.0022,-3.8785,-3.6447,0.0,0.0,-2.9785,-2.7615,-2.7831,-2.8566,-2.9101,-2.8533,-2.8299,-2.9316,-2.778,0.0,-2.599,-2.5528,0.0,0.0,0.0,-2.5042,-2.6293,-2.8725,-2.9992,-2.9416,-3.2742,0.0,-3.4198,-3.5319,-3.5558,-3.4746,-3.3823,-3.3223,-3.2812,-3.1953,-3.1523,-3.1504,-3.0625,-3.0195,-3.0176,-2.9766,-2.9336,-2.8926,-2.8906,-2.7817,0.0,-2.7726,-2.7438,-2.6264,-2.7726,-2.8301,-2.8301,-2.8301,-2.8301,-2.8301,-2.8301,-2.8301,-2.8301,-2.8301,-2.8301,-2.8301,-2.8301,-2.8301,-2.8301,-2.8301,-2.8301,-2.8301,-2.8301,-2.8301,-2.8301,-2.8301,-2.8301,-2.8301,-2.8301,-2.8301,-2.8301,-2.8301,-3.0053,-3.1672,-3.2191,-3.3648,-3.4881,-3.5408,-3.46,-3.3897,-3.3897,-3.342,-3.3111,-3.3111,-3.1952,-3.1491,-3.2114,-3.1712,-3.116,-3.0658,-3.0608,-3.0357,-2.9804,-2.9804,-2.9804,-2.9804,-2.9804,-2.9804,-2.9804,-2.9804,-2.9804,-2.9804,-2.9804,-2.9804,-2.8882,-3.1711,-3.4712,-3.7155,-3.5597,-3.3707,-3.4717,0.0,-2.9035,-2.8589,-2.8392,-2.8412,-2.8833,-2.8304,-2.797,-2.86,-2.7712,0.0,0.0,0.0,0.0,-2.4488,-2.5812,-2.7335,0.0,0.0,-3.0903,-3.2984,-3.3918,-3.4864,-3.5857,-3.5404,-3.498,-3.4707,-3.3867,-3.3086,-3.2383,-3.1797,-3.1367,-3.1074,-3.0488,-3.0059,-2.9746,-2.9316,-2.8887,-2.8496,-2.8496,-2.7571,-2.6209,-2.7672,-2.7457,-2.6264,-2.7726,-2.8301,-2.8301,-2.8301,-2.8301,-2.8301,-2.8301,-2.8301,-2.8301,-2.8301,-2.8301,-2.8301,-2.8301,-2.8301,-2.8301,-2.8301,-2.8301,-2.8301,-2.8301,-2.8301,-2.8301,-2.8301,-2.8301,-2.8301,-2.8301,-2.8301,-2.8301,-2.8301,-2.9353,-3.0673,-3.2062,-3.3237,-3.4025,-3.4147,-3.3834,-3.3146,-3.1879,-3.1553,-3.1368,-3.0996,-3.0629,-3.1037,-3.2671,-3.1522,-3.1003,-3.163,-3.1009,-3.0532,-3.0357,-2.9263,-2.9028,-2.9779,-2.9028,-2.9028,-2.9804,-2.9804,-2.9804,-2.9804,-2.9804,-2.9804,0.0,-3.1794,-3.4414,-3.6434,-3.4495,0.0,0.0,-3.0664,-2.808,-2.7917,-2.7939,-2.8105,-2.8319,-2.8237,-2.8223,-2.8496,-2.8387,0.0,0.0,0.0,0.0,-2.5822,0.0,0.0,0.0,-3.1697,-3.2966,-3.4754,-3.5227,-3.5708,-3.6376,-3.5332,-3.4551,-3.4219,-3.3398,-3.2617,-3.1934,-3.1504,-3.1055,-3.0625,-3.0176,-2.9746,-2.9316,-2.8887,-2.8535,-2.8301,-2.8301,-2.7114,0.0,-2.6825,-2.6608,-2.5371,-2.6879,-2.778,-2.8301,-2.8301,-2.8301,-2.8301,-2.8301,-2.8301,-2.8301,-2.8301,-2.8301,-2.8301,-2.8301,-2.8301,-2.8301,-2.8301,-2.8301,-2.8301,-2.8301,-2.8301,-2.8301,-2.8301,-2.8301,-2.8301,-2.8301,-2.8301,-2.8301,-2.8301,-2.901,-2.9973,-3.1113,-3.2003,-3.2624,-3.281,-3.2622,-3.2101,-3.1117,-3.0842,-3.0529,-3.0039,-2.9972,-3.0675,-3.2245,-3.1332,-3.1129,-3.2131,-3.1587,-3.111,-3.0909,-2.9696,-2.9163,-2.9465,-2.8562,-2.8267,-2.8554,-2.8949,-2.9365,-2.9804,-2.9804,-2.9804,0.0,-3.2548,-3.4264,-3.7222,-3.4972,-3.2031,-3.2157,-2.9709,0.0,-2.6054,-2.6836,-2.7728,-2.7754,-2.8398,-2.8945,-2.9004,-2.9687,0.0,0.0,-2.8439,0.0,0.0,-2.8806,0.0,-3.1759,-3.4329,-3.5638,-3.5048,-3.6409,-3.6836,-3.6016,-3.5098,-3.4219,-3.3398,-3.2559,-3.1934,-3.1523,-3.1074,-3.0625,-3.0195,-2.9746,-2.9316,-2.8906,-2.8476,-2.8301,0.0,-2.8174,-2.6499,-2.3933,-2.5371,-2.5096,-2.3933,-2.548,-2.6987,-2.8301,-2.8301,-2.8301,-2.8281,-2.8262,-2.8262,-2.8301,-2.8301,-2.8301,-2.8301,-2.8301,-2.8301,-2.8301,-2.8301,-2.8301,-2.8301,-2.8301,-2.8301,-2.8301,-2.8301,-2.8301,-2.8301,-2.8301,-2.8301,-2.8301,-2.8301,-2.8906,-2.9453,-2.9677,-3.0225,-3.0856,-3.1493,-3.1083,-3.0803,-3.1197,-3.0816,-3.033,-2.9847,-2.985,-3.0235,-3.1003,-3.1134,-3.1516,-3.2231,-3.224,-3.1989,-3.1461,-3.0829,-2.9958,-2.891,-2.8329,-2.7522,-2.6648,-2.7602,-2.8688,-2.9804,-2.9804,-2.9804,-3.3419,0.0,-3.3986,-3.4781,-3.3039,-3.1172,0.0,0.0,-2.715,-2.72,-2.7461,-2.7904,-2.8496,-2.8789,-2.9141,-2.9785,0.0,0.0,-2.9617,0.0,0.0,-3.0653,-3.1457,-3.2423,-3.3401,-3.45,-3.5485,-3.6221,-3.6266,-3.6094,-3.5566,-3.4375,-3.3476,-3.2969,-3.2109,-3.1621,-3.1523,-3.0742,-3.0312,-3.0176,-2.9434,-2.9023,-2.8906,-2.8476,-2.8301,-2.8228,-2.7114,-2.5553,-2.3822,-2.4211,-2.4156,-2.3933,-2.548,-2.6987,-2.8301,-2.8301,-2.8301,-2.8242,-2.793,-2.8027,-2.8301,-2.8301,-2.8301,-2.8301,-2.8301,-2.8301,-2.8301,-2.8301,-2.8301,-2.8301,-2.8301,-2.8301,-2.8301,-2.8301,-2.8301,-2.8301,-2.8301,-2.8301,-2.8301,-2.8301,-2.8193,-2.8568,-2.9891,-3.0037,-3.0069,-3.0538,-3.0517,-3.0086,-2.9193,-2.8955,-2.8591,-2.7804,-2.8528,-2.9288,-2.9806,-3.0664,-3.166,-3.2825,-3.2466,-3.2164,-3.2014,-3.0261,-2.9179,-2.891,-2.7597,-2.7157,-2.7723,-2.7964,-2.8688,-2.9804,-2.9804,-2.9804,-3.4349,-3.4449,-3.4605,-3.4605,-3.2959,-3.1282,-3.1282,0.0,0.0,0.0,0.0,0.0,-2.8809,0.0,0.0,0.0,-3.0859,0.0,0.0,0.0,0.0,-3.2867,-3.3266,-3.4136,0.0,0.0,-3.619,-3.6649,-3.6269,-3.5742,-3.5117,-3.4023,-3.3144,-3.2519,-3.1855,-3.1328,-3.0918,-3.043,-3.0,-2.9609,-2.9141,-2.8809,-2.8633,-2.8398,-2.8301,-2.8228,-2.6717,-2.5173,-2.3574,-2.291,-2.3021,-2.3668,-2.4319,-2.6062,-2.8262,-2.8066,-2.8125,-2.8223,-2.7812,-2.7812,-2.8047,-2.8223,-2.8301,-2.8301,-2.8301,-2.8301,-2.8301,-2.8301,-2.8301,-2.8301,-2.8301,-2.8301,-2.8301,-2.8301,-2.8301,-2.8301,-2.8301,-2.8301,-2.8301,-2.8301,-2.8105,-2.8213,-2.8999,-2.9082,-2.9062,-2.9103,-2.9286,-2.9112,-2.8388,-2.8301,-2.8047,-2.7383,-2.8719,-2.965,-2.966,-3.1142,-3.237,-3.3068,-3.2228,-3.1889,-3.2173,-3.0264,-2.8763,-2.7818,-2.5928,-2.5462,-2.6603,-2.6603,-2.7157,-2.8291,-2.8291,-2.8291,-3.5077,-3.5533,-3.5934,-3.5583,-3.3696,-3.1915,-3.1798,0.0,0.0,0.0,0.0,0.0,0.0,-2.9668,0.0,0.0,0.0,0.0,-3.2375,-3.2715,-3.3475,-3.4903,-3.4812,0.0,-3.7981,-3.7539,-3.6934,-3.6504,-3.6016,-3.5371,-3.4551,-3.3691,-3.2871,-3.209,-3.1582,-3.0918,-3.0117,-3.0098,-2.9707,-2.8926,-2.8848,-2.8633,-2.8301,-2.8301,-2.8301,-2.8174,0.0,0.0,-2.3293,-2.149,-2.179,-2.3232,-2.293,-2.4987,-2.8164,-2.7845,-2.7891,-2.8144,-2.7845,-2.7669,-2.7637,-2.8125,-2.8301,-2.8301,-2.8301,-2.8301,-2.8301,-2.8301,-2.8301,-2.8301,-2.8301,-2.8301,-2.8301,-2.8301,-2.8301,-2.8301,-2.8301,-2.8301,-2.8301,-2.8301,-2.8301,-2.8184,-2.7832,-2.8066,-2.8164,-2.7812,-2.8066,-2.8301,-2.8301,-2.8301,-2.8212,-2.791,-2.9572,-3.0533,-3.0208,-3.1999,-3.3025,-3.2828,-3.1952,-3.1574,-3.1796,-3.0158,-2.8291,-2.6276,-2.4188,-2.3671,-2.4787,-2.4787,-2.5378,-2.6524,-2.6524,-2.6524,-3.6684,-3.7563,-3.7914,-3.5959,-3.4194,-3.2858,-3.2331,0.0,0.0,0.0,0.0,0.0,0.0,-2.9863,-3.0332,0.0,0.0,-3.4388,0.0,0.0,-3.6984,-3.6887,0.0,-3.7087,-3.6435,-3.6289,-3.6035,-3.5625,-3.4824,-3.416,-3.3652,-3.2812,-3.2129,-3.1641,-3.082,-3.0156,-2.9668,-2.9668,-2.9414,-2.8906,-2.8555,-2.8359,-2.8301,-2.8301,-2.8301,-2.8155,0.0,-2.367,-2.3168,-2.0163,-2.0431,-2.2848,-2.3166,-2.513,-2.7754,-2.7748,-2.7767,-2.7806,-2.7748,-2.7422,-2.7246,-2.8027,-2.8301,-2.8301,-2.8301,-2.8301,-2.8301,-2.8301,-2.8301,-2.8301,-2.8301,-2.8301,-2.8301,-2.8301,-2.8301,-2.8301,-2.8301,-2.8301,-2.8301,-2.8301,-2.8301,-2.8262,-2.8203,-2.8262,-2.8262,-2.8203,-2.8262,-2.8301,-2.8301,-2.8301,-2.839,-2.8601,-2.9851,-3.0778,-3.101,-3.2288,-3.2655,-3.1533,-3.2326,-3.2013,-3.0224,-2.856,-2.6832,-2.5083,-2.3757,-2.3671,-2.4787,-2.4787,-2.5378,-2.6524,-2.6524,-2.6524,-3.6732,-3.7385,-3.7567,-3.5966,-3.4988,-3.416,0.0,0.0,0.0,0.0,0.0,0.0,0.0,0.0,-3.1445,-3.3066,0.0,-3.4512,-3.5801,-3.6094,-3.6211,0.0,0.0,-3.6406,-3.6055,-3.582,-3.5488,-3.5059,-3.4219,-3.3633,-3.3437,-3.2402,-3.2117,-3.2685,-3.1755,-3.1121,-3.0805,-3.0506,-2.9748,-2.8574,-2.8379,-2.8184,-2.7949,-2.7949,-2.7832,-2.7474,0.0,-2.4052,-2.3703,-2.1625,-2.2001,-2.3983,-2.4157,-2.5786,-2.7988,-2.7806,-2.7383,-2.7012,-2.7246,-2.7031,-2.6816,-2.7676,-2.7949,-2.7949,-2.7949,-2.8105,-2.8242,-2.8027,-2.8125,-2.8301,-2.8301,-2.8301,-2.8301,-2.8301,-2.8301,-2.8301,-2.8301,-2.8301,-2.8301,-2.8301,-2.8301,-2.8301,-2.8301,-2.8301,-2.8301,-2.8301,-2.8301,-2.8301,-2.8301,-2.8086,-2.8055,-2.8186,-2.8859,-2.9389,-2.9564,-3.0512,-3.0749,-2.9935,-3.0141,-2.9433,-2.7473,-2.6472,-2.5593,-2.483,-2.3671,-2.3343,-2.3887,-2.3887,-2.4125,-2.4638,-2.4638,-2.4638,-3.6556,-3.7008,-3.6997,-3.5534,0.0,0.0,0.0,0.0,0.0,0.0,0.0,0.0,0.0,-3.1133,0.0,-3.4707,-3.4687,-3.4726,-3.5703,-3.5527,-3.543,-3.5801,-3.5664,-3.5664,-3.5996,-3.5449,-3.4883,-3.4434,-3.3711,-3.3184,-3.2988,-3.2394,-3.2468,-3.3545,-3.2902,-3.2466,-3.2287,-3.1233,-2.9855,-2.8144,-2.8144,-2.793,-2.7571,-2.7571,-2.7324,-2.691,-2.5352,-2.4342,-2.3768,-2.2921,-2.3302,-2.4435,-2.4927,-2.6293,-2.7949,-2.7637,-2.6973,-2.6289,-2.6719,-2.666,-2.6504,-2.7266,-2.7571,-2.7571,-2.7571,-2.7734,-2.793,-2.7598,-2.7754,-2.8027,-2.8242,-2.8301,-2.8301,-2.8301,-2.8301,-2.8301,-2.8301,-2.8301,-2.8301,-2.8301,-2.8301,-2.8262,-2.8164,-2.8144,-2.8105,-2.8008,-2.7988,-2.7988,-2.7988,-2.7715,-2.7636,-2.7827,-2.807,-2.8256,-2.8487,-2.8696,-2.8629,-2.8232,-2.8009,-2.7151,-2.5522,-2.5039,-2.466,-2.4425,-2.356,-2.3101,-2.3101,-2.3101,-2.3101,-2.3101,-2.3101,-2.3101,-3.6985,-3.7538,-3.727,-3.4595,-3.3645,0.0,-3.3991,-3.2105,0.0,-3.2285,0.0,0.0,0.0,-3.1797,-3.2578,-3.3945,-3.4805,-3.5742,-3.6992,0.0,-3.7129,-3.7168,-3.6465,-3.5996,-3.6016,-3.4902,-3.3984,-3.3535,-3.3105,-3.25,-3.1699,-3.2842,-3.3445,-3.314,-3.353,-3.3696,-3.3651,-3.1116,-2.9075,-2.7767,-2.7767,-2.748,-2.707,-2.707,-2.7051,-2.689,-2.5108,-2.3632,-2.2428,-2.2341,-2.2409,-2.2684,-2.4739,-2.6199,-2.7109,-2.707,-2.6523,-2.5791,-2.6289,-2.6406,-2.6465,-2.6914,-2.707,-2.707,-2.707,-2.709,-2.7109,-2.707,-2.709,-2.7285,-2.8086,-2.8301,-2.8301,-2.8301,-2.8301,-2.8301,-2.8301,-2.8301,-2.8301,-2.8301,-2.8301,-2.8164,-2.7826,-2.7767,-2.7578,-2.7168,-2.7109,-2.7109,-2.7109,-2.709,-2.735,-2.8077,-2.8216,-2.8514,-2.9277,-2.792,-2.6922,-2.6525,-2.7371,-2.7216,-2.5675,-2.5082,-2.4296,-2.3256,-2.3144,-2.3101,-2.3101,-2.3101,-2.3101,-2.3101,-2.3101,-2.3101,-3.6656,-3.7337,-3.7319,-3.4386,-3.3846,0.0,0.0,-3.2512,-3.207,-3.2988,-3.3476,0.0,0.0,0.0,-3.3203,-3.3945,-3.4805,-3.5566,-3.6055,-3.6113,-3.5996,-3.5723,-3.5391,-3.5098,-3.4824,-3.4121,-3.3496,-3.3066,-3.2383,-3.2256,-3.2822,-3.3152,-3.4073,-3.5759,-3.5333,-3.5062,-3.5165,-3.2353,-3.0142,-2.8482,-2.7657,-2.7031,-2.6621,-2.6621,-2.6621,-2.6551,-2.5588,-2.5033,-2.4891,-2.5131,-2.5242,-2.5348,-2.6446,-2.6949,-2.6973,-2.6719,-2.625,-2.5713,-2.5869,-2.5977,-2.6055,-2.6484,-2.6621,-2.6621,-2.6621,-2.6816,-2.6953,-2.6699,-2.6816,-2.709,-2.7422,-2.75,-2.7578,-2.7832,-2.791,-2.7969,-2.8242,-2.8301,-2.8223,-2.8002,-2.791,-2.7773,-2.7324,-2.7266,-2.7207,-2.7031,-2.7012,-2.7012,-2.7012,-2.6777,-2.6743,-2.7061,-2.685,-2.6754,-2.7078,-2.6506,-2.5866,-2.5168,-2.5251,-2.4948,-2.4062,-2.3837,-2.356,-2.3101,-2.3101,-2.3101,-2.3101,-2.3101,-2.3101,-2.3101,-2.3101,-2.3101,-3.6681,-3.7186,-3.7097,-3.4341,0.0,0.0,-3.3173,-3.2891,-3.3066,-3.4043,-3.4277,-3.3984,-3.2988,0.0,0.0,0.0,-3.4512,-3.5176,-3.5176,-3.5176,-3.5059,-3.4746,-3.459,-3.4336,-3.3906,-3.3476,-3.2988,-3.2441,-3.2236,-3.2565,-3.3482,-3.4129,-3.5363,-3.7162,-3.6744,-3.6468,-3.6375,-3.3099,-3.0869,-2.9612,-2.7552,-2.6465,-2.6191,-2.6191,-2.6191,-2.6172,-2.581,-2.5653,-2.5595,-2.6489,-2.6894,-2.7051,-2.7344,-2.7207,-2.6777,-2.6504,-2.6113,-2.5693,-2.5693,-2.5693,-2.5732,-2.6094,-2.6191,-2.6191,-2.6191,-2.6387,-2.6543,-2.6269,-2.6387,-2.6621,-2.6621,-2.6816,-2.7129,-2.7611,-2.7728,-2.7806,-2.8027,-2.8086,-2.7969,-2.7539,-2.7461,-2.7324,-2.6894,-2.6816,-2.6777,-2.6641,-2.6621,-2.6621,-2.6621,-2.6367,-2.6191,-2.6191,-2.5869,-2.5693,-2.5693,-2.5557,-2.5215,-2.4473,-2.4023,-2.3594,-2.312,-2.3101,-2.3101,-2.3101,-2.3101,-2.3101,-2.3101,-2.3101,-2.3101,-2.3101,-2.3101,-2.3101,-3.7186,-3.7186,-3.6653,0.0,0.0,0.0,-3.3472,-3.3086,-3.3398,-3.5566,-3.4629,-3.3281,-3.2871,-3.2793,0.0,-3.2793,-3.3848,-3.4687,-3.4687,-3.4687,-3.4687,-3.4687,-3.4316,-3.3887,-3.3457,-3.3027,-3.2441,-3.1582,-3.284,-3.3539,-3.3155,-3.5922,-3.7268,-3.6768,-3.7565,-3.7739,-3.7186,-3.3074,-3.1019,-3.0948,-2.7413,-2.5693,-2.5693,-2.5693,-2.5693,-2.5693,-2.5693,-2.4971,-2.3868,-2.5645,-2.6641,-2.7012,-2.7012,-2.6758,-2.6387,-2.6387,-2.6113,-2.5693,-2.5693,-2.5693,-2.5693,-2.5693,-2.5693,-2.5693,-2.5693,-2.5693,-2.5693,-2.5693,-2.5693,-2.5693,-2.5693,-2.6317,-2.7109,-2.7611,-2.7708,-2.7708,-2.7708,-2.7708,-2.7519,-2.709,-2.7012,-2.6875,-2.6465,-2.6387,-2.623,-2.5752,-2.5693,-2.5693,-2.5693,-2.5693,-2.5693,-2.5693,-2.5693,-2.5693,-2.5674,-2.5332,-2.4883,-2.4434,-2.4023,-2.3594,-2.312,-2.3101,-2.3101,-2.3101,-2.3101,-2.3101,-2.3101,-2.3101,-2.3101,-2.3101,-2.3101,-2.3101,-3.6757,-3.7186,0.0,-3.5307,0.0,0.0,0.0,-3.5068,0.0,0.0,-3.4692,-3.2949,-3.2812,0.0,0.0,-3.2441,-3.3164,-3.3809,-3.3809,-3.3555,-3.3359,-3.3359,-3.2988,-3.2676,-3.2559,-3.2148,-3.2177,-3.2977,-3.3168,-3.4142,-3.6108,-3.7026,-3.7714,-3.8234,-3.8091,-3.7563,-3.6656,-3.2887,-3.0791,-3.0384,-2.6921,-2.543,-2.5693,-2.5693,-2.5898,-2.6172,-2.583,-2.5653,-2.5626,-2.6179,-2.6641,-2.6992,-2.6699,-2.6504,-2.6348,-2.6055,-2.581,-2.5693,-2.5693,-2.5693,-2.5693,-2.5693,-2.5693,-2.5693,-2.5693,-2.5693,-2.5693,-2.5693,-2.5693,-2.5693,-2.5693,-2.5869,-2.6181,-2.666,-2.6777,-2.6855,-2.7148,-2.7207,-2.709,-2.666,-2.6582,-2.6445,-2.5996,-2.5937,-2.583,-2.5713,-2.5693,-2.5693,-2.5693,-2.5693,-2.5693,-2.5693,-2.5693,-2.5605,-2.5293,-2.5184,-2.4793,-2.4023,-2.3867,-2.3594,-2.312,-2.3101,-2.3101,-2.3101,-2.3101,-2.3101,-2.3101,-2.3101,-2.3101,-2.3101,-2.3101,-2.3101,-3.7385,-3.7688,0.0,-3.6699,-3.7601,-3.8587,-3.8145,0.0,0.0,0.0,0.0,-3.4717,-3.3882,-3.3799,0.0,-3.2368,-3.2598,-3.2988,-3.3144,-3.2812,0.0,0.0,-3.3236,-3.3234,-3.3644,-3.3434,-3.3571,-3.4275,-3.4668,-3.5595,-3.7423,-3.7867,-3.8226,-3.8542,-3.7764,-3.6935,-3.6031,-3.2464,-3.0521,-3.0182,-2.6716,-2.5215,-2.5469,-2.5469,-2.5625,-2.5859,-2.5781,-2.583,-2.6133,-2.6133,-2.6269,-2.6484,-2.623,-2.6133,-2.6094,-2.5791,-2.5693,-2.5693,-2.5693,-2.5693,-2.5693,-2.5693,-2.5693,-2.5693,-2.5693,-2.5693,-2.5693,-2.5693,-2.5693,-2.5693,-2.5693,-2.5693,-2.581,-2.6289,-2.6387,-2.6465,-2.6719,-2.6758,-2.6641,-2.6211,-2.6133,-2.6055,-2.5732,-2.5693,-2.5693,-2.5693,-2.5693,-2.5693,-2.5693,-2.5693,-2.5693,-2.5693,-2.5693,-2.5547,-2.5145,-2.5106,-2.492,-2.4436,-2.444,-2.4439,-2.4445,-2.3604,-2.3101,-2.3101,-2.3101,-2.3101,-2.3101,-2.3101,-2.3101,-2.3101,-2.3541,-2.38,-3.8517,0.0,0.0,-3.8417,-3.852,0.0,-3.9833,-4.0034,-3.9914,-3.9495,0.0,-3.7502,-3.5452,-3.4753,-3.3969,-3.2412,-3.2148,-3.2305,-3.2676,-3.2485,0.0,0.0,-3.4395,-3.4847,-3.5758,-3.5826,-3.5759,-3.5553,-3.6757,-3.7559,-3.7618,-3.843,-3.8567,-3.7939,-3.691,-3.6056,-3.5357,-3.1879,-3.007,-2.998,-2.6572,-2.4988,-2.4988,-2.5047,-2.5086,-2.5145,-2.5547,-2.5693,-2.5693,-2.5693,-2.5693,-2.5693,-2.5693,-2.5693,-2.5693,-2.5693,-2.5693,-2.5693,-2.5693,-2.5693,-2.5693,-2.5693,-2.5693,-2.5693,-2.5693,-2.5693,-2.5693,-2.5693,-2.5693,-2.5693,-2.5693,-2.5693,-2.5791,-2.623,-2.6328,-2.6328,-2.6328,-2.6328,-2.6211,-2.5771,-2.5693,-2.5693,-2.5693,-2.5693,-2.5693,-2.5693,-2.5693,-2.5693,-2.5693,-2.5693,-2.5693,-2.5693,-2.5693,-2.5547,-2.5039,-2.5047,-2.5139,-2.5326,-2.5351,-2.5637,-2.634,-2.436,-2.3256,-2.3256,-2.3125,-2.3101,-2.3101,-2.3101,-2.3101,-2.3144,-2.4168,-2.4702,-3.814,-3.8442,0.0,0.0,-4.1022,-4.2041,-4.2264,-4.2305,-4.1655,-3.949,-3.8262,-3.6846,-3.4482,-3.4274,-3.3806,-3.1938,-3.1953,-3.2207,-3.2285,-3.2953,-3.3509,-3.3838,-3.4588,-3.5168,-3.5412,-3.5445,-3.5895,-3.6942,-3.7293,-3.7839,-3.8586,-3.8767,-3.8417,-3.7387,-3.6757,-3.5726,-3.4274,-3.1224,-2.9285,-2.8343,-2.5439,-2.4062,-2.4082,-2.4414,-2.4746,-2.5145,-2.5547,-2.5693,-2.5693,-2.5693,-2.5693,-2.5693,-2.5693,-2.5693,-2.5693,-2.5693,-2.5693,-2.5693,-2.5693,-2.5693,-2.5693,-2.5693,-2.5693,-2.5693,-2.5693,-2.5693,-2.5693,-2.5693,-2.5693,-2.5693,-2.5693,-2.5693,-2.5713,-2.581,-2.583,-2.583,-2.583,-2.583,-2.581,-2.5713,-2.5693,-2.5693,-2.5693,-2.5693,-2.5693,-2.5693,-2.5693,-2.5693,-2.5693,-2.5693,-2.5693,-2.5693,-2.5693,-2.5362,-2.4629,-2.4551,-2.466,-2.4911,-2.4934,-2.4977,-2.5168,-2.4702,-2.4425,-2.4425,-2.356,-2.3101,-2.3101,-2.3101,-2.3101,-2.3101,-2.3343,-2.3953,0.0,0.0,0.0,-4.0902,0.0,-4.2911,-4.269,-4.264,-4.2038,-4.0055,-3.9482,-3.8348,-3.5426,-3.5035,-3.4392,-3.188,-3.1543,-3.19,-3.2792,-3.3207,-3.3927,-3.5369,-3.6027,-3.6649,-3.7317,-3.7394,-3.7594,-3.8112,-3.8191,-3.8511,-3.9285,-3.9051,-3.8774,-3.8425,-3.7131,-3.5749,-3.429,-3.0927,-2.8768,-2.7873,-2.5112,-2.3691,-2.3496,-2.4121,-2.4766,-2.541,-2.5596,-2.5693,-2.5693,-2.5693,-2.5693,-2.5693,-2.5693,-2.5693,-2.5693,-2.5693,-2.5693,-2.5693,-2.5693,-2.5693,-2.5693,-2.5693,-2.5586,-2.5449,-2.5615,-2.5586,-2.5469,-2.5635,-2.5693,-2.5693,-2.5693,-2.5693,-2.5693,-2.5693,-2.5693,-2.5693,-2.5693,-2.5693,-2.5693,-2.5693,-2.5693,-2.5693,-2.5693,-2.5693,-2.5693,-2.5693,-2.5693,-2.5693,-2.5693,-2.5547,-2.541,-2.541,-2.5234,-2.4844,-2.418,-2.4601,-2.508,-2.5589,-2.563,-2.5839,-2.6356,-2.5357,-2.4532,-2.4016,-2.3387,-2.3101,-2.3101,-2.3101,-2.3387,-2.393,-2.4467,-2.5336,0.0,0.0,0.0,0.0,0.0,0.0,-4.2213,-4.2062,-4.1706,-4.0601,-4.0802,-4.0119,-3.6597,-3.5949,-3.4958,-3.1919,-3.1328,-3.183,-3.3351,-3.3678,-3.4659,-3.7045,-3.7474,-3.808,-3.9293,-3.9496,-3.932,-3.8768,-3.8995,-3.9338,-3.9628,-3.9382,-3.932,-3.9546,-3.7467,-3.5764,-3.4559,-3.0568,-2.823,-2.7627,-2.4968,-2.3535,-2.3237,-2.3984,-2.4707,-2.5362,-2.544,-2.5499,-2.5625,-2.5625,-2.5625,-2.5577,-2.5654,-2.5635,-2.5577,-2.5654,-2.5693,-2.5674,-2.5596,-2.5625,-2.5557,-2.5479,-2.5254,-2.5019,-2.5343,-2.5312,-2.5184,-2.5527,-2.5635,-2.5693,-2.5693,-2.5693,-2.5693,-2.5693,-2.5693,-2.5674,-2.5596,-2.5635,-2.5674,-2.5596,-2.5635,-2.5674,-2.5596,-2.5635,-2.5693,-2.5693,-2.5693,-2.5654,-2.5625,-2.5293,-2.5086,-2.5008,-2.4629,-2.4238,-2.3828,-2.4597,-2.5421,-2.6174,-2.6235,-2.6584,-2.7498,-2.5775,-2.4253,-2.3144,-2.3101,-2.3101,-2.3101,-2.3299,-2.3887,-2.483,-2.5964,-2.7075,0.0,0.0,0.0,0.0,0.0,0.0,0.0,0.0,-4.1128,0.0,-4.0249,-3.9554,-3.6041,-3.54,-3.4457,-3.1482,-3.2018,-3.2871,-3.3161,-3.4952,-3.6367,-3.6735,-3.7458,-3.8017,-3.8241,-3.8693,-3.8743,-3.8165,-3.9509,-3.9983,-3.907,-3.9942,-4.0024,-3.9026,-3.6891,-3.513,-3.3925,-2.9636,-2.724,-2.6662,-2.429,-2.3354,-2.3711,-2.3828,-2.3945,-2.4062,-2.4434,-2.4805,-2.5156,-2.5156,-2.5156,-2.5195,-2.5538,-2.5508,-2.5195,-2.5586,-2.5693,-2.5635,-2.5293,-2.5156,-2.5098,-2.4707,-2.4551,-2.4512,-2.457,-2.4824,-2.5125,-2.5184,-2.543,-2.5693,-2.5693,-2.5693,-2.5693,-2.5693,-2.5693,-2.5577,-2.5234,-2.5469,-2.5625,-2.5234,-2.5469,-2.5557,-2.5215,-2.5488,-2.5693,-2.5693,-2.5693,-2.5557,-2.5215,-2.5145,-2.4922,-2.4551,-2.4453,-2.4238,-2.3828,-2.3924,-2.4283,-2.4978,-2.5041,-2.5083,-2.5252,-2.4957,-2.4253,-2.3144,-2.3101,-2.3101,-2.3101,-2.4082,-2.466,-2.483,-2.5964,-2.7075,-3.8165,0.0,0.0,0.0,0.0,0.0,0.0,0.0,0.0,0.0,0.0,0.0,0.0,0.0,0.0,0.0,0.0,-3.3591,-3.4962,-3.6021,-3.6884,-3.7386,-3.7792,-3.8015,-3.8015,-3.8241,-3.8437,-3.8505,-3.9185,-3.986,-4.0387,-4.0589,-4.0373,-3.9776,-3.7337,-3.5288,-3.3702,-2.9422,-2.6363,-2.4553,-2.3604,-2.3198,-2.3418,-2.3418,-2.3691,-2.416,-2.4336,-2.4531,-2.4727,-2.4961,-2.5106,-2.5145,-2.5293,-2.5234,-2.5106,-2.5019,-2.4953,-2.4961,-2.4766,-2.4707,-2.4707,-2.4766,-2.4609,-2.4512,-2.4953,-2.5117,-2.5165,-2.5371,-2.5538,-2.5693,-2.5693,-2.5693,-2.5693,-2.5693,-2.5693,-2.5557,-2.5204,-2.543,-2.5635,-2.5488,-2.5605,-2.5635,-2.5469,-2.5557,-2.5693,-2.5693,-2.5693,-2.5518,-2.5165,-2.4863,-2.4531,-2.4102,-2.3848,-2.3588,-2.3437,-2.4015,-2.4502,-2.4808,-2.4787,-2.4787,-2.4787,-2.4787,-2.4532,-2.4039,-2.4039,-2.4039,-2.4039,-2.521,-2.6088,-2.6644,-2.7157,-2.7643,0.0,0.0,0.0,0.0,0.0,0.0,0.0,0.0,0.0,0.0,0.0,0.0,0.0,0.0,0.0,0.0,0.0,0.0,0.0,-3.6884,-3.7207,-3.7766,-3.7688,-3.7588,-3.7588,-3.7982,-3.8383,-3.8655,-3.9245,-4.0096,-4.1303,-4.1024,-4.0598,-4.0151,-3.7558,-3.537,-3.3642,-2.9278,-2.5744,-2.3101,-2.3101,-2.3101,-2.3101,-2.3101,-2.3432,-2.4082,-2.4082,-2.416,-2.4277,-2.4609,-2.4793,-2.4793,-2.4863,-2.4844,-2.4727,-2.4492,-2.4414,-2.4414,-2.4414,-2.4414,-2.4473,-2.4805,-2.4687,-2.4531,-2.5148,-2.5254,-2.5137,-2.5469,-2.5596,-2.5693,-2.5693,-2.5693,-2.5693,-2.5693,-2.5693,-2.5596,-2.5312,-2.541,-2.5566,-2.5566,-2.5615,-2.5654,-2.5586,-2.5615,-2.5693,-2.5693,-2.5693,-2.5518,-2.5165,-2.4687,-2.4258,-2.3828,-2.3398,-2.3101,-2.3101,-2.3887,-2.4382,-2.4382,-2.4382,-2.4489,-2.4787,-2.4787,-2.4957,-2.521,-2.5483,-2.5483,-2.521,-2.6378,-2.7319,-2.8084,-2.8084,-2.8084,0.0,0.0,0.0,0.0,0.0,0.0,0.0,0.0,0.0,0.0,0.0,0.0,0.0,0.0,0.0,0.0,0.0,0.0,0.0,0.0,0.0,-3.7287,-3.6807,-3.648,-3.648,-3.795,-3.8655,-3.8213,-4.0059,-4.1108,-4.0682,-4.1126,-4.0778,-3.9463,-3.6968,-3.4964,-3.3614,-2.8913,-2.5379,-2.3101,-2.3101,-2.3101,-2.3101,-2.3101,-2.312,-2.3159,-2.3159,-2.3437,-2.3828,-2.3848,-2.3848,-2.3887,-2.4297,-2.4199,-2.3906,-2.4277,-2.4414,-2.4414,-2.4414,-2.4414,-2.4414,-2.4434,-2.4434,-2.4414,-2.4473,-2.4766,-2.5125,-2.5145,-2.541,-2.5693,-2.5693,-2.5693,-2.5693,-2.5693,-2.5693,-2.5674,-2.5654,-2.5391,-2.5145,-2.5145,-2.5449,-2.5605,-2.5223,-2.5449,-2.5693,-2.5693,-2.5693,-2.5518,-2.5165,-2.4687,-2.4258,-2.3828,-2.3398,-2.3101,-2.3101,-2.3125,-2.3188,-2.3188,-2.3188,-2.3671,-2.4745,-2.4787,-2.5294,-2.64,-2.74,-2.7441,-2.64,-2.7481,-2.8044,-2.8084,-2.8084,-2.8084,0.0,0.0,0.0,0.0,0.0,0.0,0.0,0.0,0.0,0.0,0.0,0.0,0.0,0.0,0.0,0.0,0.0,0.0,0.0,0.0,0.0,0.0,-3.6531,-3.6662,-3.7402,-3.8044,-3.8953,-4.0247,-4.0686,-4.114,-4.1725,-4.0718,-3.9709,-3.8781,-3.5511,-3.1968,-2.812,-2.6039,-2.4242,-2.2734,-2.2964,-2.3101,-2.3101,-2.3101,-2.3101,-2.3101,-2.3101,-2.3179,-2.3354,-2.3672,-2.3789,-2.3809,-2.3965,-2.3926,-2.3769,-2.3608,-2.3549,-2.3549,-2.3549,-2.3789,-2.4004,-2.4004,-2.4375,-2.4844,-2.4844,-2.5137,-2.5508,-2.5508,-2.5557,-2.5693,-2.5693,-2.5693,-2.5693,-2.5693,-2.5693,-2.5693,-2.5693,-2.5605,-2.5508,-2.5508,-2.5577,-2.5635,-2.5527,-2.5577,-2.5693,-2.5693,-2.5693,-2.5518,-2.5165,-2.4922,-2.4668,-2.4238,-2.3809,-2.3555,-2.3555,-2.3257,-2.3101,-2.3101,-2.38,-2.4382,-2.4787,-2.6149,-2.7093,-2.7522,-2.8609,-2.8648,-2.7522,-2.8648,-2.9184,-2.9145,-2.8426,-2.7723,-3.5332,0.0,0.0,0.0,0.0,0.0,0.0,0.0,0.0,0.0,0.0,0.0,0.0,0.0,0.0,0.0,0.0,0.0,0.0,0.0,0.0,0.0,-3.6807,-3.713,-3.826,-3.8575,-3.9426,-4.1133,-4.1047,0.0,-4.1346,-3.9918,-3.8293,-3.6576,-3.3543,-2.9714,-2.5043,-2.4495,-2.3638,-2.2519,-2.2906,-2.3101,-2.3101,-2.3101,-2.3101,-2.3101,-2.3101,-2.3101,-2.312,-2.3457,-2.3574,-2.3574,-2.3574,-2.3574,-2.3535,-2.3198,-2.3101,-2.312,-2.3257,-2.3633,-2.4023,-2.418,-2.4707,-2.5293,-2.5293,-2.5508,-2.5693,-2.5693,-2.5693,-2.5693,-2.5693,-2.5693,-2.5693,-2.5693,-2.5693,-2.5693,-2.5693,-2.5693,-2.5693,-2.5693,-2.5693,-2.5693,-2.5693,-2.5693,-2.5693,-2.5693,-2.5693,-2.5577,-2.5332,-2.5156,-2.4902,-2.4473,-2.4043,-2.373,-2.3574,-2.3257,-2.3256,-2.3627,-2.4382,-2.5126,-2.5859,-2.7296,-2.8307,-2.8648,-2.9404,-2.9443,-2.8688,-2.9443,-2.9585,-2.9184,-2.8068,-2.6789,0.0,0.0,0.0,0.0,0.0,0.0,0.0,0.0,0.0,0.0,0.0,0.0,0.0,0.0,0.0,0.0,0.0,0.0,0.0,0.0,0.0,0.0,0.0,-3.7738,-3.8839,-3.958,-4.018,-4.0613,-4.1106,-4.0816,-3.9463,-3.8686,-3.6576,-3.2861,-3.1101,-2.8495,-2.4998,-2.4411,-2.3576,-2.25,-2.2886,-2.3101,-2.3101,-2.3101,-2.3101,-2.3101,-2.3101,-2.3101,-2.3101,-2.3101,-2.3101,-2.3101,-2.3101,-2.3101,-2.3101,-2.3101,-2.3101,-2.3159,-2.3633,-2.4043,-2.4473,-2.4883,-2.5332,-2.5674,-2.5674,-2.5674,-2.5693,-2.5693,-2.5693,-2.5693,-2.5693,-2.5693,-2.5693,-2.5693,-2.5693,-2.5693,-2.5693,-2.5693,-2.5693,-2.5693,-2.5693,-2.5693,-2.5693,-2.5693,-2.5693,-2.5693,-2.5693,-2.5693,-2.5693,-2.5352,-2.4922,-2.4473,-2.4062,-2.3633,-2.3159,-2.3101,-2.3541,-2.466,-2.483,-2.5817,-2.7964,-2.8124,-2.8688,-2.9779,-2.9804,-2.9779,-2.974,-2.974,-2.9184,-2.8084,-2.6953,-2.5274,-3.3972,0.0,0.0,0.0,0.0,0.0,0.0,0.0,0.0,0.0,0.0,0.0,0.0,0.0,0.0,0.0,0.0,0.0,0.0,0.0,0.0,0.0,0.0,0.0,-4.0124,-4.1175,-4.1859,0.0,-4.159,-4.0816,-3.9463,-3.7228,-3.4583,-3.1582,-2.898,-2.6454,-2.3929,-2.2995,-2.2383,-2.207,-2.275,-2.3101,-2.3101,-2.3101,-2.3101,-2.3101,-2.3101,-2.3101,-2.3101,-2.3101,-2.3101,-2.3101,-2.3101,-2.3101,-2.3101,-2.3101,-2.3101,-2.312,-2.3237,-2.3594,-2.3984,-2.4102,-2.4648,-2.5254,-2.5254,-2.5488,-2.5693,-2.5693,-2.5693,-2.5693,-2.5693,-2.5693,-2.5693,-2.5693,-2.5693,-2.5693,-2.5693,-2.5693,-2.5693,-2.5693,-2.5693,-2.5693,-2.5693,-2.5693,-2.5693,-2.5693,-2.5693,-2.5693,-2.5693,-2.5577,-2.5391,-2.4941,-2.4512,-2.4062,-2.3652,-2.3276,-2.3212,-2.3541,-2.5147,-2.6295,-2.6935,-2.849,-2.9482,-2.9779,-2.9804,-2.9404,-2.8569,-2.8569,-2.8426,-2.8044,-2.6149,-2.451,-3.3822,-3.4123,-3.4731,-3.4349,0.0,0.0,-3.6458,-3.6533,0.0,0.0,0.0,0.0,0.0,0.0,0.0,0.0,0.0,0.0,0.0,0.0,0.0,0.0,0.0,0.0,-4.1719,-4.2038,-4.214,-4.2004,-4.1085,-3.9858,-3.8272,-3.5892,-3.3471,-3.1088,-2.8145,-2.5577,-2.3526,-2.2449,-2.1894,-2.1894,-2.2734,-2.3101,-2.3101,-2.3101,-2.3101,-2.3101,-2.3101,-2.3101,-2.3101,-2.3101,-2.3101,-2.3101,-2.3101,-2.3101,-2.3101,-2.3101,-2.3101,-2.3101,-2.3101,-2.3418,-2.3789,-2.3789,-2.4238,-2.4824,-2.5067,-2.5117,-2.5215,-2.541,-2.5332,-2.5187,-2.541,-2.5449,-2.5508,-2.5635,-2.5586,-2.5508,-2.5654,-2.5586,-2.5508,-2.5654,-2.5693,-2.5693,-2.5693,-2.5693,-2.5693,-2.5693,-2.5693,-2.5693,-2.5693,-2.5693,-2.5566,-2.5117,-2.4668,-2.4238,-2.3828,-2.3819,-2.4016,-2.4467,-2.6171,-2.7383,-2.7851,-2.9131,-2.9804,-2.9804,-2.9804,-2.9028,-2.7441,-2.7884,-2.7643,-2.6685,-2.4914,-2.3714,-3.4148,-3.3997,-3.4098,-3.4525,-3.4248,0.0,-3.6282,-3.6405,-3.6355,0.0,0.0,0.0,0.0,0.0,0.0,0.0,0.0,0.0,0.0,0.0,0.0,0.0,0.0,0.0,-4.3255,-4.242,-4.1668,-4.1436,-4.0038,-3.8392,-3.6596,-3.4826,-3.2965,-3.1088,-2.8037,-2.5513,-2.3615,-2.2469,-2.1914,-2.1973,-2.2754,-2.3101,-2.3101,-2.3101,-2.3101,-2.3101,-2.3101,-2.3101,-2.3101,-2.3101,-2.3101,-2.3101,-2.3101,-2.3101,-2.3101,-2.3101,-2.3101,-2.3101,-2.3101,-2.3354,-2.373,-2.3769,-2.4043,-2.4434,-2.4863,-2.4727,-2.4492,-2.4883,-2.4727,-2.4512,-2.4902,-2.5047,-2.5117,-2.5566,-2.5352,-2.5195,-2.5596,-2.543,-2.5254,-2.5615,-2.5693,-2.5693,-2.5693,-2.5693,-2.5693,-2.5693,-2.5693,-2.5693,-2.5693,-2.5635,-2.5508,-2.5165,-2.4629,-2.4245,-2.3988,-2.4477,-2.5294,-2.6442,-2.7522,-2.8545,-2.9585,-2.974,-2.9804,-2.9804,-2.9546,-2.8474,-2.6524,-2.7319,-2.6644,-2.4575,-2.3541,-2.3101,-3.468,-3.455,-3.4474,-3.4148,-3.3972,0.0,-3.3872,-3.384,-3.4022,0.0,0.0,0.0,0.0,0.0,0.0,0.0,0.0,0.0,0.0,0.0,0.0,0.0,0.0,0.0,-4.3429,-4.3119,-4.2525,-4.1474,-3.917,-3.7404,-3.6537,-3.4215,-3.2284,-3.1054,-2.7422,-2.4997,-2.4093,-2.2633,-2.2051,-2.2402,-2.2847,-2.3101,-2.3101,-2.3101,-2.3101,-2.3101,-2.3101,-2.3101,-2.3101,-2.3101,-2.3101,-2.3101,-2.3101,-2.3101,-2.3101,-2.3101,-2.3101,-2.3101,-2.3101,-2.314,-2.3276,-2.3672,-2.3848,-2.3984,-2.4414,-2.4473,-2.4434,-2.4512,-2.4473,-2.4434,-2.4531,-2.4551,-2.4648,-2.5098,-2.5184,-2.5195,-2.5596,-2.5615,-2.5625,-2.5674,-2.5693,-2.5693,-2.5693,-2.5693,-2.5693,-2.5693,-2.5693,-2.5693,-2.5693,-2.543,-2.5204,-2.5125,-2.4375,-2.4227,-2.5039,-2.4888,-2.5294,-2.6442,-2.7522,-2.8227,-2.8426,-2.9326,-2.9804,-2.9804,-2.8051,-2.6935,-2.6524,-2.5797,-2.4745,-2.343,-2.3212,-2.3101,-3.4449,-3.4123,-3.3847,-3.3571,-3.3495,0.0,0.0,-3.3495,-3.3721,0.0,0.0,0.0,0.0,0.0,0.0,0.0,0.0,0.0,0.0,0.0,0.0,0.0,0.0,0.0,-4.435,-4.3456,-4.1893,-3.9589,-3.8153,-3.6985,-3.6058,-3.3836,-3.1873,-3.0303,-2.6966,-2.4664,-2.3465,-2.2413,-2.209,-2.2519,-2.2906,-2.3101,-2.3101,-2.3101,-2.3101,-2.3101,-2.3101,-2.3218,-2.3437,-2.3179,-2.3218,-2.3437,-2.3179,-2.3101,-2.3101,-2.3101,-2.3101,-2.3101,-2.3101,-2.3101,-2.314,-2.3354,-2.3457,-2.3555,-2.3984,-2.4102,-2.4062,-2.3803,-2.3725,-2.3828,-2.4043,-2.4102,-2.4258,-2.4969,-2.4902,-2.4922,-2.5538,-2.5343,-2.5167,-2.5596,-2.5566,-2.5469,-2.5654,-2.5323,-2.5156,-2.5371,-2.5215,-2.5031,-2.5031,-2.5078,-2.5028,-2.4766,-2.4355,-2.423,-2.4573,-2.5231,-2.588,-2.6483,-2.8028,-2.8949,-2.8949,-2.9507,-2.9521,-2.8988,-2.7342,-2.6213,-2.563,-2.451,-2.3671,-2.3101,-2.3101,-2.3101,-3.4474,-3.3897,-3.3395,-3.3395,-3.3319,-3.3294,0.0,0.0,0.0,0.0,0.0,0.0,0.0,0.0,0.0,0.0,0.0,0.0,0.0,0.0,0.0,0.0,0.0,0.0,-4.5072,-4.3369,-4.083,-3.7515,-3.7327,-3.6836,-3.5579,-3.3665,-3.1635,-2.9571,-2.6705,-2.4415,-2.2817,-2.221,-2.2129,-2.2637,-2.2925,-2.3101,-2.3101,-2.3101,-2.3101,-2.3101,-2.3101,-2.334,-2.3633,-2.3237,-2.3296,-2.3633,-2.3237,-2.3101,-2.3101,-2.3101,-2.3101,-2.3101,-2.3101,-2.3101,-2.3101,-2.3101,-2.3101,-2.3159,-2.3555,-2.3672,-2.3594,-2.3198,-2.3101,-2.3179,-2.3574,-2.3672,-2.3867,-2.4629,-2.4609,-2.4609,-2.5284,-2.5011,-2.4863,-2.544,-2.5312,-2.5215,-2.5615,-2.5089,-2.4766,-2.5067,-2.4766,-2.4531,-2.4531,-2.4785,-2.4844,-2.457,-2.4394,-2.4342,-2.4415,-2.57,-2.6689,-2.7098,-2.8791,-2.9804,-2.9804,-2.9804,-2.9287,-2.8124,-2.7035,-2.5922,-2.4787,-2.3671,-2.3101,-2.3101,-2.3101,-2.3101,-3.5981,-3.5328,-3.4525,-3.4525,-3.4173,-3.3571,-3.2616,0.0,-3.3043,-3.2591,0.0,0.0,0.0,0.0,0.0,0.0,0.0,0.0,0.0,0.0,0.0,0.0,-4.3701,0.0,0.0,-4.2641,-4.0203,-3.7024,-3.7146,-3.6836,-3.5579,-3.3665,-3.1635,-2.9571,-2.6705,-2.4591,-2.3238,-2.235,-2.2285,-2.3023,-2.3081,-2.3101,-2.3101,-2.3101,-2.3101,-2.3101,-2.3101,-2.312,-2.3159,-2.312,-2.312,-2.3159,-2.312,-2.3101,-2.3101,-2.3101,-2.3101,-2.3101,-2.3101,-2.3101,-2.3101,-2.3101,-2.3101,-2.3101,-2.3159,-2.3159,-2.3159,-2.3101,-2.3101,-2.3101,-2.3159,-2.3159,-2.3296,-2.3828,-2.418,-2.4453,-2.4551,-2.505,-2.5508,-2.5195,-2.5145,-2.5215,-2.5615,-2.5596,-2.5469,-2.5165,-2.5067,-2.5047,-2.5047,-2.4707,-2.4609,-2.5008,-2.4316,-2.4658,-2.6561,-2.6585,-2.7342,-2.9287,-2.9663,-2.9804,-2.9804,-2.9804,-2.9287,-2.8124,-2.7035,-2.5922,-2.4787,-2.3671,-2.3101,-2.3101,-2.3101,-2.3101,0.0,-3.4349,-3.3696,-3.3345,-3.3093,-3.2717,-3.1913,-3.1913,-3.2039,-3.1788,0.0,0.0,0.0,0.0,0.0,0.0,-3.6443,0.0,0.0,0.0,0.0,0.0,0.0,0.0,0.0,0.0,-3.9446,-3.7269,-3.7312,-3.6836,-3.5579,-3.3665,-3.1495,-2.9119,-2.6795,-2.4672,-2.2855,-2.2436,-2.2539,-2.3101,-2.3101,-2.3101,-2.3101,-2.3101,-2.3101,-2.3101,-2.3101,-2.3237,-2.3496,-2.3198,-2.3237,-2.3496,-2.3198,-2.3101,-2.3101,-2.3101,-2.3101,-2.3101,-2.3101,-2.3101,-2.3101,-2.3101,-2.3101,-2.3101,-2.3101,-2.3101,-2.3101,-2.3101,-2.3101,-2.3101,-2.3101,-2.3101,-2.3198,-2.3691,-2.3926,-2.4121,-2.4355,-2.4707,-2.4922,-2.4727,-2.4687,-2.4824,-2.5273,-2.5137,-2.5,-2.5059,-2.4863,-2.4687,-2.4687,-2.4746,-2.4668,-2.4355,-2.4219,-2.4601,-2.568,-2.6221,-2.718,-2.8727,-2.9443,-2.9804,-2.9804,-2.9804,-2.8949,-2.7197,-2.673,-2.5588,-2.38,-2.3343,-2.3101,-2.3101,-2.3101,-2.3474,-3.4197,0.0,0.0,0.0,0.0,0.0,-3.1975,-3.1894,-3.1955,-3.1694,-3.1612,0.0,0.0,0.0,-3.4126,-3.5143,0.0,-3.8611,0.0,-3.9853,0.0,0.0,0.0,0.0,0.0,0.0,-3.9098,-3.7334,-3.7322,-3.6836,-3.5579,-3.3366,-3.1109,-2.8782,-2.6535,-2.4445,-2.2519,-2.2519,-2.2672,-2.3101,-2.3101,-2.3101,-2.3101,-2.3101,-2.3101,-2.3101,-2.3101,-2.3276,-2.3594,-2.3218,-2.3276,-2.3574,-2.3218,-2.3101,-2.3101,-2.3101,-2.3101,-2.3101,-2.3101,-2.3101,-2.3101,-2.3101,-2.3101,-2.3101,-2.3101,-2.3101,-2.3101,-2.3101,-2.3101,-2.3101,-2.3101,-2.3101,-2.3179,-2.3535,-2.3711,-2.3848,-2.4023,-2.4258,-2.4375,-2.4277,-2.4336,-2.4551,-2.5047,-2.4707,-2.4531,-2.4844,-2.4609,-2.4375,-2.4258,-2.4629,-2.4609,-2.3867,-2.4062,-2.4376,-2.4765,-2.5546,-2.6502,-2.7602,-2.8688,-2.9326,-2.9326,-2.9326,-2.845,-2.6565,-2.6171,-2.5062,-2.3101,-2.3101,-2.3101,-2.3101,-2.3101,-2.356,0.0,0.0,0.0,-3.4444,0.0,0.0,0.0,0.0,-3.3335,-3.2398,-3.219,-3.2498,-3.3525,-3.3793,-3.447,-3.6596,-3.744,0.0,0.0,0.0,0.0,0.0,0.0,0.0,0.0,-3.9441,-3.935,-3.6913,-3.714,-3.6836,-3.5579,-3.2659,-3.0335,-2.8746,-2.5825,-2.368,-2.2519,-2.2519,-2.2672,-2.3101,-2.3101,-2.3101,-2.3101,-2.3101,-2.3101,-2.3101,-2.3101,-2.3101,-2.312,-2.3101,-2.3101,-2.312,-2.3101,-2.3101,-2.3101,-2.3101,-2.3101,-2.3101,-2.3101,-2.3101,-2.3101,-2.3101,-2.3101,-2.3101,-2.3101,-2.3101,-2.3101,-2.3101,-2.3101,-2.3101,-2.3101,-2.3101,-2.3101,-2.312,-2.3477,-2.3672,-2.3218,-2.3783,-2.4297,-2.3887,-2.4141,-2.4551,-2.5047,-2.4707,-2.4414,-2.4434,-2.4434,-2.4277,-2.3867,-2.418,-2.4277,-2.3828,-2.3809,-2.4102,-2.4744,-2.483,-2.5336,-2.6483,-2.7562,-2.8164,-2.8164,-2.8164,-2.7643,-2.6524,-2.542,-2.4296,-2.3101,-2.3101,-2.3101,-2.3101,-2.3101,-2.3144,0.0,0.0,-3.4434,-3.4407,0.0,0.0,0.0,0.0,0.0,0.0,-3.2618,-3.315,-3.3264,-3.4733,-3.6156,-3.6893,-3.8062,-3.8832,0.0,0.0,0.0,0.0,0.0,0.0,0.0,0.0,0.0,-3.7234,-3.693,-3.6417,-3.5549,-3.3331,-3.116,-2.9139,-2.6886,-2.4829,-2.293,-2.2886,-2.2964,-2.3101,-2.3101,-2.3101,-2.3101,-2.3101,-2.3101,-2.3101,-2.3101,-2.3101,-2.3101,-2.3101,-2.3101,-2.3101,-2.3101,-2.3101,-2.3101,-2.3101,-2.3101,-2.3101,-2.3101,-2.3101,-2.3101,-2.3101,-2.3101,-2.3101,-2.3101,-2.3101,-2.3101,-2.3101,-2.3101,-2.3101,-2.3101,-2.3101,-2.3101,-2.3101,-2.3198,-2.3276,-2.312,-2.3594,-2.3867,-2.3393,-2.3711,-2.4043,-2.4199,-2.3867,-2.3867,-2.4727,-2.5098,-2.5137,-2.4687,-2.4766,-2.4687,-2.4258,-2.3965,-2.4082,-2.4744,-2.5504,-2.6088,-2.6483,-2.683,-2.7035,-2.7035,-2.7035,-2.6502,-2.542,-2.4999,-2.4253,-2.3101,-2.3101,-2.3101,-2.3101,-2.3101,-2.3497,-3.4817,-3.479,0.0,-3.4593,-3.4538,0.0,-3.4156,0.0,-3.3584,0.0,0.0,0.0,-3.4066,-3.5817,-3.7242,-3.7142,-3.818,-3.8751,0.0,-3.7345,0.0,0.0,0.0,-3.7833,0.0,-3.7962,-3.8025,-3.7425,-3.7045,-3.6417,-3.5549,-3.3268,-3.1203,-2.9378,-2.71,-2.502,-2.3144,-2.3101,-2.3101,-2.3101,-2.3101,-2.3101,-2.3101,-2.3101,-2.3101,-2.3101,-2.3101,-2.3101,-2.3101,-2.3101,-2.3101,-2.3101,-2.3101,-2.3101,-2.3101,-2.3101,-2.3101,-2.3101,-2.3101,-2.3101,-2.3101,-2.3101,-2.3101,-2.3101,-2.3101,-2.3101,-2.3101,-2.3101,-2.3101,-2.3101,-2.3101,-2.3101,-2.3101,-2.3101,-2.3101,-2.3101,-2.3101,-2.3359,-2.3477,-2.314,-2.3315,-2.3613,-2.3769,-2.3555,-2.3652,-2.4492,-2.4863,-2.4883,-2.4434,-2.4512,-2.4453,-2.4004,-2.3711,-2.3747,-2.4145,-2.4893,-2.5274,-2.5274,-2.5672,-2.588,-2.588,-2.6276,-2.601,-2.5039,-2.4871,-2.4335,-2.3379,-2.3179,-2.3101,-2.3101,-2.3101,-2.3517]}]]